<?xml version="1.0" encoding="UTF-8" standalone="no" ?>
<gpx xmlns="http://www.topografix.com/GPX/1/1" xmlns:xsi="http://www.w3.org/2001/XMLSchema-instance" xsi:schemaLocation="http://www.topografix.com/GPX/1/1 http://www.topografix.com/GPX/1/1/gpx.xsd" version="1.1" creator="VisuGPX - https://www.visugpx.com">
  <metadata>
    <name>Jura_Champagnole</name>
  </metadata>
  <trk>
    <name><![CDATA[30-JUIL-22 03:47:16 PM]]></name>
    <extensions>
      <line xmlns="http://www.topografix.com/GPX/gpx_style/0/2">
        <color>0000FF</color>
        <width>4</width>
      </line>
    </extensions>
    <trkseg>
      <trkpt lat="46.74624" lon="5.89667">
        <ele>548.57</ele>
        <time>2022-07-30T06:44:11Z</time>
      </trkpt>
      <trkpt lat="46.74625" lon="5.89669">
        <ele>548.57</ele>
        <time>2022-07-30T06:44:19Z</time>
      </trkpt>
      <trkpt lat="46.74626" lon="5.89675">
        <ele>548.09</ele>
        <time>2022-07-30T06:44:23Z</time>
      </trkpt>
      <trkpt lat="46.7463" lon="5.89692">
        <ele>549.53</ele>
        <time>2022-07-30T06:44:31Z</time>
      </trkpt>
      <trkpt lat="46.74635" lon="5.89704">
        <ele>549.53</ele>
        <time>2022-07-30T06:44:37Z</time>
      </trkpt>
      <trkpt lat="46.74647" lon="5.89734">
        <ele>550.49</ele>
        <time>2022-07-30T06:44:49Z</time>
      </trkpt>
      <trkpt lat="46.7465" lon="5.89783">
        <ele>550.97</ele>
        <time>2022-07-30T06:45:04Z</time>
      </trkpt>
      <trkpt lat="46.74648" lon="5.89819">
        <ele>552.41</ele>
        <time>2022-07-30T06:45:18Z</time>
      </trkpt>
      <trkpt lat="46.74648" lon="5.89821">
        <ele>552.9</ele>
        <time>2022-07-30T06:45:19Z</time>
      </trkpt>
      <trkpt lat="46.7465" lon="5.89827">
        <ele>553.38</ele>
        <time>2022-07-30T06:45:22Z</time>
      </trkpt>
      <trkpt lat="46.74654" lon="5.8983">
        <ele>553.86</ele>
        <time>2022-07-30T06:45:25Z</time>
      </trkpt>
      <trkpt lat="46.74683" lon="5.89823">
        <ele>555.78</ele>
        <time>2022-07-30T06:45:44Z</time>
      </trkpt>
      <trkpt lat="46.74695" lon="5.89837">
        <ele>556.26</ele>
        <time>2022-07-30T06:45:53Z</time>
      </trkpt>
      <trkpt lat="46.74693" lon="5.89868">
        <ele>557.22</ele>
        <time>2022-07-30T06:46:06Z</time>
      </trkpt>
      <trkpt lat="46.74686" lon="5.89908">
        <ele>557.7</ele>
        <time>2022-07-30T06:46:21Z</time>
      </trkpt>
      <trkpt lat="46.7468" lon="5.89952">
        <ele>557.7</ele>
        <time>2022-07-30T06:46:32Z</time>
      </trkpt>
      <trkpt lat="46.74698" lon="5.8999">
        <ele>558.18</ele>
        <time>2022-07-30T06:46:45Z</time>
      </trkpt>
      <trkpt lat="46.74726" lon="5.90049">
        <ele>558.18</ele>
        <time>2022-07-30T06:47:01Z</time>
      </trkpt>
      <trkpt lat="46.74751" lon="5.90088">
        <ele>560.11</ele>
        <time>2022-07-30T06:47:16Z</time>
      </trkpt>
      <trkpt lat="46.74778" lon="5.90145">
        <ele>560.11</ele>
        <time>2022-07-30T06:47:35Z</time>
      </trkpt>
      <trkpt lat="46.74827" lon="5.90193">
        <ele>560.11</ele>
        <time>2022-07-30T06:47:51Z</time>
      </trkpt>
      <trkpt lat="46.74882" lon="5.90247">
        <ele>560.11</ele>
        <time>2022-07-30T06:48:09Z</time>
      </trkpt>
      <trkpt lat="46.74913" lon="5.90279">
        <ele>560.11</ele>
        <time>2022-07-30T06:48:20Z</time>
      </trkpt>
      <trkpt lat="46.74908" lon="5.90325">
        <ele>560.59</ele>
        <time>2022-07-30T06:48:30Z</time>
      </trkpt>
      <trkpt lat="46.74886" lon="5.90427">
        <ele>560.59</ele>
        <time>2022-07-30T06:48:49Z</time>
      </trkpt>
      <trkpt lat="46.74862" lon="5.90537">
        <ele>561.07</ele>
        <time>2022-07-30T06:49:09Z</time>
      </trkpt>
      <trkpt lat="46.74845" lon="5.90622">
        <ele>560.59</ele>
        <time>2022-07-30T06:49:25Z</time>
      </trkpt>
      <trkpt lat="46.74827" lon="5.90712">
        <ele>557.7</ele>
        <time>2022-07-30T06:49:38Z</time>
      </trkpt>
      <trkpt lat="46.74824" lon="5.90719">
        <ele>557.7</ele>
        <time>2022-07-30T06:49:39Z</time>
      </trkpt>
      <trkpt lat="46.74817" lon="5.90731">
        <ele>556.74</ele>
        <time>2022-07-30T06:49:41Z</time>
      </trkpt>
      <trkpt lat="46.74814" lon="5.90736">
        <ele>556.26</ele>
        <time>2022-07-30T06:49:42Z</time>
      </trkpt>
      <trkpt lat="46.74809" lon="5.90738">
        <ele>556.26</ele>
        <time>2022-07-30T06:49:43Z</time>
      </trkpt>
      <trkpt lat="46.74805" lon="5.9074">
        <ele>555.78</ele>
        <time>2022-07-30T06:49:44Z</time>
      </trkpt>
      <trkpt lat="46.748" lon="5.90741">
        <ele>555.3</ele>
        <time>2022-07-30T06:49:45Z</time>
      </trkpt>
      <trkpt lat="46.74737" lon="5.90757">
        <ele>552.41</ele>
        <time>2022-07-30T06:49:56Z</time>
      </trkpt>
      <trkpt lat="46.74718" lon="5.90765">
        <ele>552.41</ele>
        <time>2022-07-30T06:50:01Z</time>
      </trkpt>
      <trkpt lat="46.74716" lon="5.90769">
        <ele>551.93</ele>
        <time>2022-07-30T06:50:02Z</time>
      </trkpt>
      <trkpt lat="46.74717" lon="5.90774">
        <ele>551.93</ele>
        <time>2022-07-30T06:50:03Z</time>
      </trkpt>
      <trkpt lat="46.74718" lon="5.90822">
        <ele>554.34</ele>
        <time>2022-07-30T06:50:16Z</time>
      </trkpt>
      <trkpt lat="46.74717" lon="5.90826">
        <ele>553.86</ele>
        <time>2022-07-30T06:50:17Z</time>
      </trkpt>
      <trkpt lat="46.74717" lon="5.9083">
        <ele>553.86</ele>
        <time>2022-07-30T06:50:18Z</time>
      </trkpt>
      <trkpt lat="46.74717" lon="5.90833">
        <ele>553.86</ele>
        <time>2022-07-30T06:50:19Z</time>
      </trkpt>
      <trkpt lat="46.74717" lon="5.90837">
        <ele>554.34</ele>
        <time>2022-07-30T06:50:20Z</time>
      </trkpt>
      <trkpt lat="46.74715" lon="5.90861">
        <ele>554.82</ele>
        <time>2022-07-30T06:50:27Z</time>
      </trkpt>
      <trkpt lat="46.74702" lon="5.90894">
        <ele>555.3</ele>
        <time>2022-07-30T06:50:40Z</time>
      </trkpt>
      <trkpt lat="46.74706" lon="5.90897">
        <ele>555.78</ele>
        <time>2022-07-30T06:51:08Z</time>
      </trkpt>
      <trkpt lat="46.74706" lon="5.90899">
        <ele>555.78</ele>
        <time>2022-07-30T06:51:09Z</time>
      </trkpt>
      <trkpt lat="46.74706" lon="5.90901">
        <ele>555.78</ele>
        <time>2022-07-30T06:51:10Z</time>
      </trkpt>
      <trkpt lat="46.74706" lon="5.90904">
        <ele>555.78</ele>
        <time>2022-07-30T06:51:11Z</time>
      </trkpt>
      <trkpt lat="46.74705" lon="5.90906">
        <ele>555.78</ele>
        <time>2022-07-30T06:51:12Z</time>
      </trkpt>
      <trkpt lat="46.74703" lon="5.90909">
        <ele>555.78</ele>
        <time>2022-07-30T06:51:13Z</time>
      </trkpt>
      <trkpt lat="46.74702" lon="5.90912">
        <ele>556.26</ele>
        <time>2022-07-30T06:51:14Z</time>
      </trkpt>
      <trkpt lat="46.74677" lon="5.90961">
        <ele>556.74</ele>
        <time>2022-07-30T06:51:27Z</time>
      </trkpt>
      <trkpt lat="46.74674" lon="5.90972">
        <ele>557.22</ele>
        <time>2022-07-30T06:51:29Z</time>
      </trkpt>
      <trkpt lat="46.74671" lon="5.90977">
        <ele>556.26</ele>
        <time>2022-07-30T06:51:30Z</time>
      </trkpt>
      <trkpt lat="46.7465" lon="5.91012">
        <ele>556.74</ele>
        <time>2022-07-30T06:51:38Z</time>
      </trkpt>
      <trkpt lat="46.74647" lon="5.91017">
        <ele>556.74</ele>
        <time>2022-07-30T06:51:39Z</time>
      </trkpt>
      <trkpt lat="46.74606" lon="5.91088">
        <ele>556.74</ele>
        <time>2022-07-30T06:51:56Z</time>
      </trkpt>
      <trkpt lat="46.74566" lon="5.91162">
        <ele>557.7</ele>
        <time>2022-07-30T06:52:13Z</time>
      </trkpt>
      <trkpt lat="46.74532" lon="5.91216">
        <ele>559.62</ele>
        <time>2022-07-30T06:52:28Z</time>
      </trkpt>
      <trkpt lat="46.74506" lon="5.91269">
        <ele>561.07</ele>
        <time>2022-07-30T06:52:43Z</time>
      </trkpt>
      <trkpt lat="46.74481" lon="5.91318">
        <ele>562.99</ele>
        <time>2022-07-30T06:52:57Z</time>
      </trkpt>
      <trkpt lat="46.74449" lon="5.91371">
        <ele>563.95</ele>
        <time>2022-07-30T06:53:13Z</time>
      </trkpt>
      <trkpt lat="46.74415" lon="5.91431">
        <ele>563.95</ele>
        <time>2022-07-30T06:53:28Z</time>
      </trkpt>
      <trkpt lat="46.74379" lon="5.91496">
        <ele>563.95</ele>
        <time>2022-07-30T06:53:45Z</time>
      </trkpt>
      <trkpt lat="46.74358" lon="5.91525">
        <ele>564.43</ele>
        <time>2022-07-30T06:53:56Z</time>
      </trkpt>
      <trkpt lat="46.74357" lon="5.91524">
        <ele>563.95</ele>
        <time>2022-07-30T06:53:57Z</time>
      </trkpt>
      <trkpt lat="46.74355" lon="5.91521">
        <ele>564.43</ele>
        <time>2022-07-30T06:53:58Z</time>
      </trkpt>
      <trkpt lat="46.74353" lon="5.91517">
        <ele>564.43</ele>
        <time>2022-07-30T06:53:59Z</time>
      </trkpt>
      <trkpt lat="46.74351" lon="5.91512">
        <ele>563.95</ele>
        <time>2022-07-30T06:54:00Z</time>
      </trkpt>
      <trkpt lat="46.74322" lon="5.91452">
        <ele>564.43</ele>
        <time>2022-07-30T06:54:12Z</time>
      </trkpt>
      <trkpt lat="46.74319" lon="5.91445">
        <ele>563.47</ele>
        <time>2022-07-30T06:54:13Z</time>
      </trkpt>
      <trkpt lat="46.74318" lon="5.91439">
        <ele>563.95</ele>
        <time>2022-07-30T06:54:14Z</time>
      </trkpt>
      <trkpt lat="46.74314" lon="5.91426">
        <ele>563.95</ele>
        <time>2022-07-30T06:54:16Z</time>
      </trkpt>
      <trkpt lat="46.74312" lon="5.9142">
        <ele>564.43</ele>
        <time>2022-07-30T06:54:17Z</time>
      </trkpt>
      <trkpt lat="46.74308" lon="5.91415">
        <ele>564.43</ele>
        <time>2022-07-30T06:54:18Z</time>
      </trkpt>
      <trkpt lat="46.74304" lon="5.91412">
        <ele>563.95</ele>
        <time>2022-07-30T06:54:19Z</time>
      </trkpt>
      <trkpt lat="46.74299" lon="5.91409">
        <ele>564.43</ele>
        <time>2022-07-30T06:54:20Z</time>
      </trkpt>
      <trkpt lat="46.74295" lon="5.91404">
        <ele>563.47</ele>
        <time>2022-07-30T06:54:21Z</time>
      </trkpt>
      <trkpt lat="46.74292" lon="5.91399">
        <ele>563.47</ele>
        <time>2022-07-30T06:54:22Z</time>
      </trkpt>
      <trkpt lat="46.74236" lon="5.91289">
        <ele>562.99</ele>
        <time>2022-07-30T06:54:41Z</time>
      </trkpt>
      <trkpt lat="46.74229" lon="5.91258">
        <ele>562.03</ele>
        <time>2022-07-30T06:54:46Z</time>
      </trkpt>
      <trkpt lat="46.74222" lon="5.91253">
        <ele>562.03</ele>
        <time>2022-07-30T06:54:48Z</time>
      </trkpt>
      <trkpt lat="46.74215" lon="5.91257">
        <ele>562.03</ele>
        <time>2022-07-30T06:54:50Z</time>
      </trkpt>
      <trkpt lat="46.74162" lon="5.9133">
        <ele>562.99</ele>
        <time>2022-07-30T06:55:05Z</time>
      </trkpt>
      <trkpt lat="46.74107" lon="5.91402">
        <ele>563.47</ele>
        <time>2022-07-30T06:55:20Z</time>
      </trkpt>
      <trkpt lat="46.74104" lon="5.91408">
        <ele>563.47</ele>
        <time>2022-07-30T06:55:21Z</time>
      </trkpt>
      <trkpt lat="46.74043" lon="5.91492">
        <ele>562.99</ele>
        <time>2022-07-30T06:55:36Z</time>
      </trkpt>
      <trkpt lat="46.73987" lon="5.91575">
        <ele>564.43</ele>
        <time>2022-07-30T06:55:54Z</time>
      </trkpt>
      <trkpt lat="46.73979" lon="5.91587">
        <ele>564.43</ele>
        <time>2022-07-30T06:55:57Z</time>
      </trkpt>
      <trkpt lat="46.73975" lon="5.91591">
        <ele>564.43</ele>
        <time>2022-07-30T06:55:58Z</time>
      </trkpt>
      <trkpt lat="46.73972" lon="5.91596">
        <ele>564.43</ele>
        <time>2022-07-30T06:55:59Z</time>
      </trkpt>
      <trkpt lat="46.73926" lon="5.91666">
        <ele>564.43</ele>
        <time>2022-07-30T06:56:13Z</time>
      </trkpt>
      <trkpt lat="46.73912" lon="5.91686">
        <ele>564.43</ele>
        <time>2022-07-30T06:56:17Z</time>
      </trkpt>
      <trkpt lat="46.7384" lon="5.91775">
        <ele>564.43</ele>
        <time>2022-07-30T06:56:37Z</time>
      </trkpt>
      <trkpt lat="46.73807" lon="5.91818">
        <ele>563.47</ele>
        <time>2022-07-30T06:56:46Z</time>
      </trkpt>
      <trkpt lat="46.73764" lon="5.91875">
        <ele>564.91</ele>
        <time>2022-07-30T06:57:00Z</time>
      </trkpt>
      <trkpt lat="46.73726" lon="5.91925">
        <ele>564.91</ele>
        <time>2022-07-30T06:57:14Z</time>
      </trkpt>
      <trkpt lat="46.7369" lon="5.91967">
        <ele>564.91</ele>
        <time>2022-07-30T06:57:24Z</time>
      </trkpt>
      <trkpt lat="46.73676" lon="5.91979">
        <ele>564.43</ele>
        <time>2022-07-30T06:57:28Z</time>
      </trkpt>
      <trkpt lat="46.73612" lon="5.92007">
        <ele>565.39</ele>
        <time>2022-07-30T06:57:43Z</time>
      </trkpt>
      <trkpt lat="46.73553" lon="5.92027">
        <ele>565.87</ele>
        <time>2022-07-30T06:57:58Z</time>
      </trkpt>
      <trkpt lat="46.73495" lon="5.92051">
        <ele>567.32</ele>
        <time>2022-07-30T06:58:14Z</time>
      </trkpt>
      <trkpt lat="46.73436" lon="5.92073">
        <ele>568.76</ele>
        <time>2022-07-30T06:58:31Z</time>
      </trkpt>
      <trkpt lat="46.73373" lon="5.92097">
        <ele>570.2</ele>
        <time>2022-07-30T06:58:49Z</time>
      </trkpt>
      <trkpt lat="46.73314" lon="5.92118">
        <ele>569.72</ele>
        <time>2022-07-30T06:59:05Z</time>
      </trkpt>
      <trkpt lat="46.73233" lon="5.92148">
        <ele>568.76</ele>
        <time>2022-07-30T06:59:21Z</time>
      </trkpt>
      <trkpt lat="46.73137" lon="5.92185">
        <ele>567.8</ele>
        <time>2022-07-30T06:59:38Z</time>
      </trkpt>
      <trkpt lat="46.73046" lon="5.92219">
        <ele>564.43</ele>
        <time>2022-07-30T06:59:53Z</time>
      </trkpt>
      <trkpt lat="46.73039" lon="5.92221">
        <ele>564.43</ele>
        <time>2022-07-30T06:59:54Z</time>
      </trkpt>
      <trkpt lat="46.72964" lon="5.92236">
        <ele>562.51</ele>
        <time>2022-07-30T07:00:05Z</time>
      </trkpt>
      <trkpt lat="46.72958" lon="5.92236">
        <ele>562.03</ele>
        <time>2022-07-30T07:00:06Z</time>
      </trkpt>
      <trkpt lat="46.72952" lon="5.92234">
        <ele>562.03</ele>
        <time>2022-07-30T07:00:07Z</time>
      </trkpt>
      <trkpt lat="46.72946" lon="5.9223">
        <ele>562.51</ele>
        <time>2022-07-30T07:00:08Z</time>
      </trkpt>
      <trkpt lat="46.72935" lon="5.92224">
        <ele>562.99</ele>
        <time>2022-07-30T07:00:10Z</time>
      </trkpt>
      <trkpt lat="46.7293" lon="5.92222">
        <ele>562.51</ele>
        <time>2022-07-30T07:00:11Z</time>
      </trkpt>
      <trkpt lat="46.72924" lon="5.92222">
        <ele>562.51</ele>
        <time>2022-07-30T07:00:12Z</time>
      </trkpt>
      <trkpt lat="46.72918" lon="5.92223">
        <ele>562.51</ele>
        <time>2022-07-30T07:00:13Z</time>
      </trkpt>
      <trkpt lat="46.72912" lon="5.92226">
        <ele>562.51</ele>
        <time>2022-07-30T07:00:14Z</time>
      </trkpt>
      <trkpt lat="46.72896" lon="5.92236">
        <ele>562.51</ele>
        <time>2022-07-30T07:00:17Z</time>
      </trkpt>
      <trkpt lat="46.7289" lon="5.92239">
        <ele>562.03</ele>
        <time>2022-07-30T07:00:18Z</time>
      </trkpt>
      <trkpt lat="46.72831" lon="5.92268">
        <ele>563.95</ele>
        <time>2022-07-30T07:00:32Z</time>
      </trkpt>
      <trkpt lat="46.72787" lon="5.92328">
        <ele>566.35</ele>
        <time>2022-07-30T07:00:48Z</time>
      </trkpt>
      <trkpt lat="46.72743" lon="5.92413">
        <ele>567.8</ele>
        <time>2022-07-30T07:01:08Z</time>
      </trkpt>
      <trkpt lat="46.72715" lon="5.92455">
        <ele>567.32</ele>
        <time>2022-07-30T07:01:17Z</time>
      </trkpt>
      <trkpt lat="46.72686" lon="5.92473">
        <ele>566.35</ele>
        <time>2022-07-30T07:01:23Z</time>
      </trkpt>
      <trkpt lat="46.7268" lon="5.92474">
        <ele>565.39</ele>
        <time>2022-07-30T07:01:24Z</time>
      </trkpt>
      <trkpt lat="46.72674" lon="5.92475">
        <ele>564.91</ele>
        <time>2022-07-30T07:01:25Z</time>
      </trkpt>
      <trkpt lat="46.72668" lon="5.92475">
        <ele>564.91</ele>
        <time>2022-07-30T07:01:26Z</time>
      </trkpt>
      <trkpt lat="46.72661" lon="5.92474">
        <ele>563.95</ele>
        <time>2022-07-30T07:01:27Z</time>
      </trkpt>
      <trkpt lat="46.72655" lon="5.92472">
        <ele>563.95</ele>
        <time>2022-07-30T07:01:28Z</time>
      </trkpt>
      <trkpt lat="46.72648" lon="5.9247">
        <ele>563.95</ele>
        <time>2022-07-30T07:01:29Z</time>
      </trkpt>
      <trkpt lat="46.72642" lon="5.92466">
        <ele>563.47</ele>
        <time>2022-07-30T07:01:30Z</time>
      </trkpt>
      <trkpt lat="46.72636" lon="5.92461">
        <ele>562.99</ele>
        <time>2022-07-30T07:01:31Z</time>
      </trkpt>
      <trkpt lat="46.7263" lon="5.92455">
        <ele>563.47</ele>
        <time>2022-07-30T07:01:32Z</time>
      </trkpt>
      <trkpt lat="46.72626" lon="5.92447">
        <ele>563.47</ele>
        <time>2022-07-30T07:01:33Z</time>
      </trkpt>
      <trkpt lat="46.72623" lon="5.92438">
        <ele>563.47</ele>
        <time>2022-07-30T07:01:34Z</time>
      </trkpt>
      <trkpt lat="46.72621" lon="5.92429">
        <ele>563.47</ele>
        <time>2022-07-30T07:01:35Z</time>
      </trkpt>
      <trkpt lat="46.7262" lon="5.92421">
        <ele>562.51</ele>
        <time>2022-07-30T07:01:36Z</time>
      </trkpt>
      <trkpt lat="46.7262" lon="5.92413">
        <ele>562.99</ele>
        <time>2022-07-30T07:01:37Z</time>
      </trkpt>
      <trkpt lat="46.7262" lon="5.92398">
        <ele>563.47</ele>
        <time>2022-07-30T07:01:39Z</time>
      </trkpt>
      <trkpt lat="46.72619" lon="5.92391">
        <ele>562.99</ele>
        <time>2022-07-30T07:01:40Z</time>
      </trkpt>
      <trkpt lat="46.72616" lon="5.92386">
        <ele>563.47</ele>
        <time>2022-07-30T07:01:41Z</time>
      </trkpt>
      <trkpt lat="46.72613" lon="5.92382">
        <ele>563.47</ele>
        <time>2022-07-30T07:01:42Z</time>
      </trkpt>
      <trkpt lat="46.72609" lon="5.92379">
        <ele>563.47</ele>
        <time>2022-07-30T07:01:43Z</time>
      </trkpt>
      <trkpt lat="46.72606" lon="5.92377">
        <ele>562.99</ele>
        <time>2022-07-30T07:01:44Z</time>
      </trkpt>
      <trkpt lat="46.72602" lon="5.92377">
        <ele>563.47</ele>
        <time>2022-07-30T07:01:45Z</time>
      </trkpt>
      <trkpt lat="46.726" lon="5.92378">
        <ele>562.99</ele>
        <time>2022-07-30T07:01:46Z</time>
      </trkpt>
      <trkpt lat="46.72597" lon="5.9238">
        <ele>562.99</ele>
        <time>2022-07-30T07:01:47Z</time>
      </trkpt>
      <trkpt lat="46.72594" lon="5.92383">
        <ele>562.99</ele>
        <time>2022-07-30T07:01:48Z</time>
      </trkpt>
      <trkpt lat="46.7259" lon="5.92386">
        <ele>563.95</ele>
        <time>2022-07-30T07:01:49Z</time>
      </trkpt>
      <trkpt lat="46.72587" lon="5.9239">
        <ele>563.47</ele>
        <time>2022-07-30T07:01:50Z</time>
      </trkpt>
      <trkpt lat="46.72584" lon="5.92393">
        <ele>562.99</ele>
        <time>2022-07-30T07:01:51Z</time>
      </trkpt>
      <trkpt lat="46.72577" lon="5.92401">
        <ele>562.99</ele>
        <time>2022-07-30T07:01:53Z</time>
      </trkpt>
      <trkpt lat="46.72573" lon="5.92402">
        <ele>562.51</ele>
        <time>2022-07-30T07:01:54Z</time>
      </trkpt>
      <trkpt lat="46.72568" lon="5.92402">
        <ele>563.47</ele>
        <time>2022-07-30T07:01:55Z</time>
      </trkpt>
      <trkpt lat="46.72548" lon="5.92402">
        <ele>562.99</ele>
        <time>2022-07-30T07:01:59Z</time>
      </trkpt>
      <trkpt lat="46.72517" lon="5.92408">
        <ele>562.51</ele>
        <time>2022-07-30T07:02:05Z</time>
      </trkpt>
      <trkpt lat="46.72512" lon="5.92411">
        <ele>562.03</ele>
        <time>2022-07-30T07:02:06Z</time>
      </trkpt>
      <trkpt lat="46.72507" lon="5.92414">
        <ele>562.03</ele>
        <time>2022-07-30T07:02:07Z</time>
      </trkpt>
      <trkpt lat="46.72503" lon="5.92418">
        <ele>562.03</ele>
        <time>2022-07-30T07:02:08Z</time>
      </trkpt>
      <trkpt lat="46.72498" lon="5.92422">
        <ele>561.55</ele>
        <time>2022-07-30T07:02:09Z</time>
      </trkpt>
      <trkpt lat="46.72494" lon="5.92427">
        <ele>562.03</ele>
        <time>2022-07-30T07:02:10Z</time>
      </trkpt>
      <trkpt lat="46.7249" lon="5.92433">
        <ele>562.03</ele>
        <time>2022-07-30T07:02:11Z</time>
      </trkpt>
      <trkpt lat="46.72487" lon="5.92438">
        <ele>561.55</ele>
        <time>2022-07-30T07:02:12Z</time>
      </trkpt>
      <trkpt lat="46.72435" lon="5.92532">
        <ele>560.11</ele>
        <time>2022-07-30T07:02:29Z</time>
      </trkpt>
      <trkpt lat="46.72377" lon="5.92616">
        <ele>559.62</ele>
        <time>2022-07-30T07:02:48Z</time>
      </trkpt>
      <trkpt lat="46.72318" lon="5.92727">
        <ele>559.62</ele>
        <time>2022-07-30T07:03:09Z</time>
      </trkpt>
      <trkpt lat="46.72298" lon="5.92817">
        <ele>559.14</ele>
        <time>2022-07-30T07:03:24Z</time>
      </trkpt>
      <trkpt lat="46.7227" lon="5.92885">
        <ele>558.18</ele>
        <time>2022-07-30T07:03:35Z</time>
      </trkpt>
      <trkpt lat="46.72219" lon="5.92983">
        <ele>557.22</ele>
        <time>2022-07-30T07:03:52Z</time>
      </trkpt>
      <trkpt lat="46.72216" lon="5.92989">
        <ele>557.22</ele>
        <time>2022-07-30T07:03:53Z</time>
      </trkpt>
      <trkpt lat="46.72196" lon="5.93017">
        <ele>557.7</ele>
        <time>2022-07-30T07:03:59Z</time>
      </trkpt>
      <trkpt lat="46.72192" lon="5.9302">
        <ele>557.22</ele>
        <time>2022-07-30T07:04:00Z</time>
      </trkpt>
      <trkpt lat="46.72172" lon="5.93036">
        <ele>557.7</ele>
        <time>2022-07-30T07:04:05Z</time>
      </trkpt>
      <trkpt lat="46.72168" lon="5.93039">
        <ele>557.7</ele>
        <time>2022-07-30T07:04:06Z</time>
      </trkpt>
      <trkpt lat="46.7209" lon="5.93089">
        <ele>557.7</ele>
        <time>2022-07-30T07:04:24Z</time>
      </trkpt>
      <trkpt lat="46.72009" lon="5.93147">
        <ele>559.14</ele>
        <time>2022-07-30T07:04:44Z</time>
      </trkpt>
      <trkpt lat="46.7195" lon="5.93227">
        <ele>559.62</ele>
        <time>2022-07-30T07:05:02Z</time>
      </trkpt>
      <trkpt lat="46.71914" lon="5.93275">
        <ele>561.07</ele>
        <time>2022-07-30T07:05:14Z</time>
      </trkpt>
      <trkpt lat="46.71849" lon="5.93351">
        <ele>560.59</ele>
        <time>2022-07-30T07:05:33Z</time>
      </trkpt>
      <trkpt lat="46.71794" lon="5.93405">
        <ele>561.55</ele>
        <time>2022-07-30T07:05:48Z</time>
      </trkpt>
      <trkpt lat="46.7173" lon="5.93469">
        <ele>562.51</ele>
        <time>2022-07-30T07:06:05Z</time>
      </trkpt>
      <trkpt lat="46.71675" lon="5.93533">
        <ele>562.51</ele>
        <time>2022-07-30T07:06:21Z</time>
      </trkpt>
      <trkpt lat="46.71614" lon="5.93586">
        <ele>562.99</ele>
        <time>2022-07-30T07:06:38Z</time>
      </trkpt>
      <trkpt lat="46.71551" lon="5.93645">
        <ele>564.43</ele>
        <time>2022-07-30T07:06:55Z</time>
      </trkpt>
      <trkpt lat="46.71481" lon="5.93704">
        <ele>564.91</ele>
        <time>2022-07-30T07:07:14Z</time>
      </trkpt>
      <trkpt lat="46.71439" lon="5.9375">
        <ele>564.91</ele>
        <time>2022-07-30T07:07:27Z</time>
      </trkpt>
      <trkpt lat="46.71395" lon="5.93813">
        <ele>564.43</ele>
        <time>2022-07-30T07:07:40Z</time>
      </trkpt>
      <trkpt lat="46.71351" lon="5.93898">
        <ele>562.03</ele>
        <time>2022-07-30T07:07:54Z</time>
      </trkpt>
      <trkpt lat="46.71289" lon="5.93964">
        <ele>559.62</ele>
        <time>2022-07-30T07:08:07Z</time>
      </trkpt>
      <trkpt lat="46.71202" lon="5.93988">
        <ele>558.18</ele>
        <time>2022-07-30T07:08:21Z</time>
      </trkpt>
      <trkpt lat="46.7108" lon="5.93988">
        <ele>555.3</ele>
        <time>2022-07-30T07:08:40Z</time>
      </trkpt>
      <trkpt lat="46.70977" lon="5.94006">
        <ele>554.82</ele>
        <time>2022-07-30T07:08:57Z</time>
      </trkpt>
      <trkpt lat="46.709" lon="5.94062">
        <ele>554.82</ele>
        <time>2022-07-30T07:09:12Z</time>
      </trkpt>
      <trkpt lat="46.70846" lon="5.94173">
        <ele>554.34</ele>
        <time>2022-07-30T07:09:29Z</time>
      </trkpt>
      <trkpt lat="46.70782" lon="5.94244">
        <ele>553.86</ele>
        <time>2022-07-30T07:09:45Z</time>
      </trkpt>
      <trkpt lat="46.70715" lon="5.94316">
        <ele>550.97</ele>
        <time>2022-07-30T07:10:02Z</time>
      </trkpt>
      <trkpt lat="46.70705" lon="5.94336">
        <ele>550.97</ele>
        <time>2022-07-30T07:10:12Z</time>
      </trkpt>
      <trkpt lat="46.70705" lon="5.94343">
        <ele>551.45</ele>
        <time>2022-07-30T07:10:23Z</time>
      </trkpt>
      <trkpt lat="46.70701" lon="5.94342">
        <ele>551.45</ele>
        <time>2022-07-30T07:11:04Z</time>
      </trkpt>
      <trkpt lat="46.70702" lon="5.94347">
        <ele>551.45</ele>
        <time>2022-07-30T07:11:37Z</time>
      </trkpt>
      <trkpt lat="46.707" lon="5.94349">
        <ele>550.97</ele>
        <time>2022-07-30T07:11:51Z</time>
      </trkpt>
      <trkpt lat="46.70688" lon="5.94364">
        <ele>551.93</ele>
        <time>2022-07-30T07:12:01Z</time>
      </trkpt>
      <trkpt lat="46.70687" lon="5.94364">
        <ele>551.45</ele>
        <time>2022-07-30T07:12:02Z</time>
      </trkpt>
      <trkpt lat="46.70685" lon="5.94365">
        <ele>551.93</ele>
        <time>2022-07-30T07:12:03Z</time>
      </trkpt>
      <trkpt lat="46.70683" lon="5.94365">
        <ele>552.41</ele>
        <time>2022-07-30T07:12:04Z</time>
      </trkpt>
      <trkpt lat="46.70682" lon="5.94365">
        <ele>552.41</ele>
        <time>2022-07-30T07:12:05Z</time>
      </trkpt>
      <trkpt lat="46.7068" lon="5.94364">
        <ele>552.41</ele>
        <time>2022-07-30T07:12:06Z</time>
      </trkpt>
      <trkpt lat="46.70657" lon="5.94359">
        <ele>553.38</ele>
        <time>2022-07-30T07:12:18Z</time>
      </trkpt>
      <trkpt lat="46.70656" lon="5.94359">
        <ele>553.86</ele>
        <time>2022-07-30T07:12:19Z</time>
      </trkpt>
      <trkpt lat="46.70655" lon="5.9436">
        <ele>553.86</ele>
        <time>2022-07-30T07:12:20Z</time>
      </trkpt>
      <trkpt lat="46.70657" lon="5.94361">
        <ele>553.86</ele>
        <time>2022-07-30T07:12:34Z</time>
      </trkpt>
      <trkpt lat="46.70658" lon="5.94361">
        <ele>554.34</ele>
        <time>2022-07-30T07:12:35Z</time>
      </trkpt>
      <trkpt lat="46.70658" lon="5.94359">
        <ele>553.38</ele>
        <time>2022-07-30T07:12:36Z</time>
      </trkpt>
      <trkpt lat="46.70658" lon="5.94357">
        <ele>553.38</ele>
        <time>2022-07-30T07:12:37Z</time>
      </trkpt>
      <trkpt lat="46.70658" lon="5.94355">
        <ele>553.86</ele>
        <time>2022-07-30T07:12:38Z</time>
      </trkpt>
      <trkpt lat="46.70656" lon="5.94353">
        <ele>553.38</ele>
        <time>2022-07-30T07:12:39Z</time>
      </trkpt>
      <trkpt lat="46.70654" lon="5.94352">
        <ele>553.38</ele>
        <time>2022-07-30T07:12:40Z</time>
      </trkpt>
      <trkpt lat="46.70652" lon="5.94351">
        <ele>553.86</ele>
        <time>2022-07-30T07:12:41Z</time>
      </trkpt>
      <trkpt lat="46.70607" lon="5.9433">
        <ele>551.93</ele>
        <time>2022-07-30T07:12:55Z</time>
      </trkpt>
      <trkpt lat="46.70541" lon="5.9431">
        <ele>551.45</ele>
        <time>2022-07-30T07:13:12Z</time>
      </trkpt>
      <trkpt lat="46.70478" lon="5.94293">
        <ele>551.45</ele>
        <time>2022-07-30T07:13:28Z</time>
      </trkpt>
      <trkpt lat="46.70469" lon="5.94291">
        <ele>551.45</ele>
        <time>2022-07-30T07:13:30Z</time>
      </trkpt>
      <trkpt lat="46.70435" lon="5.94299">
        <ele>550.97</ele>
        <time>2022-07-30T07:13:38Z</time>
      </trkpt>
      <trkpt lat="46.70368" lon="5.94353">
        <ele>548.57</ele>
        <time>2022-07-30T07:13:52Z</time>
      </trkpt>
      <trkpt lat="46.70333" lon="5.9443">
        <ele>549.05</ele>
        <time>2022-07-30T07:14:05Z</time>
      </trkpt>
      <trkpt lat="46.70324" lon="5.94501">
        <ele>550.97</ele>
        <time>2022-07-30T07:14:20Z</time>
      </trkpt>
      <trkpt lat="46.7032" lon="5.94561">
        <ele>552.9</ele>
        <time>2022-07-30T07:14:34Z</time>
      </trkpt>
      <trkpt lat="46.70314" lon="5.94621">
        <ele>555.78</ele>
        <time>2022-07-30T07:14:50Z</time>
      </trkpt>
      <trkpt lat="46.70305" lon="5.94678">
        <ele>557.7</ele>
        <time>2022-07-30T07:15:08Z</time>
      </trkpt>
      <trkpt lat="46.70297" lon="5.94722">
        <ele>559.62</ele>
        <time>2022-07-30T07:15:23Z</time>
      </trkpt>
      <trkpt lat="46.7029" lon="5.94767">
        <ele>562.03</ele>
        <time>2022-07-30T07:15:36Z</time>
      </trkpt>
      <trkpt lat="46.70281" lon="5.9483">
        <ele>563.95</ele>
        <time>2022-07-30T07:15:51Z</time>
      </trkpt>
      <trkpt lat="46.70256" lon="5.94899">
        <ele>565.39</ele>
        <time>2022-07-30T07:16:08Z</time>
      </trkpt>
      <trkpt lat="46.70229" lon="5.94939">
        <ele>564.91</ele>
        <time>2022-07-30T07:16:20Z</time>
      </trkpt>
      <trkpt lat="46.70193" lon="5.94968">
        <ele>564.91</ele>
        <time>2022-07-30T07:16:33Z</time>
      </trkpt>
      <trkpt lat="46.70146" lon="5.95006">
        <ele>565.39</ele>
        <time>2022-07-30T07:16:49Z</time>
      </trkpt>
      <trkpt lat="46.70107" lon="5.95047">
        <ele>565.87</ele>
        <time>2022-07-30T07:17:03Z</time>
      </trkpt>
      <trkpt lat="46.70072" lon="5.95087">
        <ele>566.83</ele>
        <time>2022-07-30T07:17:17Z</time>
      </trkpt>
      <trkpt lat="46.70044" lon="5.95119">
        <ele>568.76</ele>
        <time>2022-07-30T07:17:30Z</time>
      </trkpt>
      <trkpt lat="46.70024" lon="5.95132">
        <ele>570.2</ele>
        <time>2022-07-30T07:17:41Z</time>
      </trkpt>
      <trkpt lat="46.69994" lon="5.95138">
        <ele>572.12</ele>
        <time>2022-07-30T07:17:58Z</time>
      </trkpt>
      <trkpt lat="46.69966" lon="5.95141">
        <ele>574.04</ele>
        <time>2022-07-30T07:18:14Z</time>
      </trkpt>
      <trkpt lat="46.69935" lon="5.95145">
        <ele>576.93</ele>
        <time>2022-07-30T07:18:30Z</time>
      </trkpt>
      <trkpt lat="46.69907" lon="5.95156">
        <ele>579.33</ele>
        <time>2022-07-30T07:18:45Z</time>
      </trkpt>
      <trkpt lat="46.69868" lon="5.95184">
        <ele>581.25</ele>
        <time>2022-07-30T07:19:01Z</time>
      </trkpt>
      <trkpt lat="46.69832" lon="5.95236">
        <ele>580.77</ele>
        <time>2022-07-30T07:19:15Z</time>
      </trkpt>
      <trkpt lat="46.69797" lon="5.95278">
        <ele>581.25</ele>
        <time>2022-07-30T07:19:28Z</time>
      </trkpt>
      <trkpt lat="46.69751" lon="5.95297">
        <ele>582.7</ele>
        <time>2022-07-30T07:19:43Z</time>
      </trkpt>
      <trkpt lat="46.69711" lon="5.95304">
        <ele>584.14</ele>
        <time>2022-07-30T07:19:58Z</time>
      </trkpt>
      <trkpt lat="46.69672" lon="5.95319">
        <ele>585.58</ele>
        <time>2022-07-30T07:20:15Z</time>
      </trkpt>
      <trkpt lat="46.69636" lon="5.95341">
        <ele>587.5</ele>
        <time>2022-07-30T07:20:33Z</time>
      </trkpt>
      <trkpt lat="46.69596" lon="5.9535">
        <ele>590.87</ele>
        <time>2022-07-30T07:20:50Z</time>
      </trkpt>
      <trkpt lat="46.69558" lon="5.95345">
        <ele>592.79</ele>
        <time>2022-07-30T07:21:06Z</time>
      </trkpt>
      <trkpt lat="46.69527" lon="5.95319">
        <ele>594.23</ele>
        <time>2022-07-30T07:21:23Z</time>
      </trkpt>
      <trkpt lat="46.69507" lon="5.95281">
        <ele>596.15</ele>
        <time>2022-07-30T07:21:41Z</time>
      </trkpt>
      <trkpt lat="46.69473" lon="5.95256">
        <ele>598.08</ele>
        <time>2022-07-30T07:21:58Z</time>
      </trkpt>
      <trkpt lat="46.69433" lon="5.95252">
        <ele>600.48</ele>
        <time>2022-07-30T07:22:16Z</time>
      </trkpt>
      <trkpt lat="46.69394" lon="5.95249">
        <ele>602.4</ele>
        <time>2022-07-30T07:22:31Z</time>
      </trkpt>
      <trkpt lat="46.69356" lon="5.95234">
        <ele>604.33</ele>
        <time>2022-07-30T07:22:48Z</time>
      </trkpt>
      <trkpt lat="46.69322" lon="5.95229">
        <ele>606.73</ele>
        <time>2022-07-30T07:23:04Z</time>
      </trkpt>
      <trkpt lat="46.69283" lon="5.95256">
        <ele>607.21</ele>
        <time>2022-07-30T07:23:19Z</time>
      </trkpt>
      <trkpt lat="46.69226" lon="5.95304">
        <ele>608.65</ele>
        <time>2022-07-30T07:23:37Z</time>
      </trkpt>
      <trkpt lat="46.69182" lon="5.95337">
        <ele>609.61</ele>
        <time>2022-07-30T07:23:50Z</time>
      </trkpt>
      <trkpt lat="46.69116" lon="5.95405">
        <ele>606.73</ele>
        <time>2022-07-30T07:24:04Z</time>
      </trkpt>
      <trkpt lat="46.69057" lon="5.95471">
        <ele>603.36</ele>
        <time>2022-07-30T07:24:14Z</time>
      </trkpt>
      <trkpt lat="46.68971" lon="5.95553">
        <ele>605.29</ele>
        <time>2022-07-30T07:24:29Z</time>
      </trkpt>
      <trkpt lat="46.68923" lon="5.95595">
        <ele>606.73</ele>
        <time>2022-07-30T07:24:43Z</time>
      </trkpt>
      <trkpt lat="46.68885" lon="5.95623">
        <ele>609.13</ele>
        <time>2022-07-30T07:24:58Z</time>
      </trkpt>
      <trkpt lat="46.68848" lon="5.95634">
        <ele>611.54</ele>
        <time>2022-07-30T07:25:14Z</time>
      </trkpt>
      <trkpt lat="46.68816" lon="5.95654">
        <ele>612.98</ele>
        <time>2022-07-30T07:25:29Z</time>
      </trkpt>
      <trkpt lat="46.68788" lon="5.95678">
        <ele>614.42</ele>
        <time>2022-07-30T07:25:43Z</time>
      </trkpt>
      <trkpt lat="46.68767" lon="5.95723">
        <ele>616.34</ele>
        <time>2022-07-30T07:25:58Z</time>
      </trkpt>
      <trkpt lat="46.68758" lon="5.9577">
        <ele>617.78</ele>
        <time>2022-07-30T07:26:12Z</time>
      </trkpt>
      <trkpt lat="46.6873" lon="5.95816">
        <ele>619.23</ele>
        <time>2022-07-30T07:26:26Z</time>
      </trkpt>
      <trkpt lat="46.68697" lon="5.95837">
        <ele>620.67</ele>
        <time>2022-07-30T07:26:40Z</time>
      </trkpt>
      <trkpt lat="46.68659" lon="5.95855">
        <ele>622.11</ele>
        <time>2022-07-30T07:26:55Z</time>
      </trkpt>
      <trkpt lat="46.68619" lon="5.95882">
        <ele>624.51</ele>
        <time>2022-07-30T07:27:14Z</time>
      </trkpt>
      <trkpt lat="46.6859" lon="5.95916">
        <ele>625.96</ele>
        <time>2022-07-30T07:27:30Z</time>
      </trkpt>
      <trkpt lat="46.68569" lon="5.95946">
        <ele>627.88</ele>
        <time>2022-07-30T07:27:43Z</time>
      </trkpt>
      <trkpt lat="46.68546" lon="5.95983">
        <ele>629.32</ele>
        <time>2022-07-30T07:27:57Z</time>
      </trkpt>
      <trkpt lat="46.68518" lon="5.96004">
        <ele>631.72</ele>
        <time>2022-07-30T07:28:11Z</time>
      </trkpt>
      <trkpt lat="46.6849" lon="5.96051">
        <ele>633.17</ele>
        <time>2022-07-30T07:28:26Z</time>
      </trkpt>
      <trkpt lat="46.68468" lon="5.96092">
        <ele>634.61</ele>
        <time>2022-07-30T07:28:40Z</time>
      </trkpt>
      <trkpt lat="46.68432" lon="5.96117">
        <ele>635.57</ele>
        <time>2022-07-30T07:28:55Z</time>
      </trkpt>
      <trkpt lat="46.684" lon="5.9615">
        <ele>637.49</ele>
        <time>2022-07-30T07:29:10Z</time>
      </trkpt>
      <trkpt lat="46.68369" lon="5.9617">
        <ele>638.45</ele>
        <time>2022-07-30T07:29:25Z</time>
      </trkpt>
      <trkpt lat="46.68349" lon="5.96183">
        <ele>639.41</ele>
        <time>2022-07-30T07:29:37Z</time>
      </trkpt>
      <trkpt lat="46.68315" lon="5.96209">
        <ele>640.38</ele>
        <time>2022-07-30T07:29:51Z</time>
      </trkpt>
      <trkpt lat="46.68281" lon="5.96246">
        <ele>641.34</ele>
        <time>2022-07-30T07:30:05Z</time>
      </trkpt>
      <trkpt lat="46.68271" lon="5.96302">
        <ele>642.78</ele>
        <time>2022-07-30T07:30:17Z</time>
      </trkpt>
      <trkpt lat="46.68267" lon="5.96327">
        <ele>643.74</ele>
        <time>2022-07-30T07:30:22Z</time>
      </trkpt>
      <trkpt lat="46.68254" lon="5.96386">
        <ele>644.22</ele>
        <time>2022-07-30T07:30:36Z</time>
      </trkpt>
      <trkpt lat="46.68246" lon="5.96444">
        <ele>646.14</ele>
        <time>2022-07-30T07:30:51Z</time>
      </trkpt>
      <trkpt lat="46.68234" lon="5.9648">
        <ele>647.59</ele>
        <time>2022-07-30T07:31:01Z</time>
      </trkpt>
      <trkpt lat="46.6822" lon="5.96531">
        <ele>649.03</ele>
        <time>2022-07-30T07:31:16Z</time>
      </trkpt>
      <trkpt lat="46.68205" lon="5.96579">
        <ele>649.99</ele>
        <time>2022-07-30T07:31:28Z</time>
      </trkpt>
      <trkpt lat="46.68187" lon="5.96619">
        <ele>651.43</ele>
        <time>2022-07-30T07:31:42Z</time>
      </trkpt>
      <trkpt lat="46.68164" lon="5.96651">
        <ele>652.39</ele>
        <time>2022-07-30T07:31:54Z</time>
      </trkpt>
      <trkpt lat="46.68134" lon="5.96723">
        <ele>653.83</ele>
        <time>2022-07-30T07:32:09Z</time>
      </trkpt>
      <trkpt lat="46.68118" lon="5.9678">
        <ele>655.28</ele>
        <time>2022-07-30T07:32:23Z</time>
      </trkpt>
      <trkpt lat="46.68093" lon="5.9681">
        <ele>657.2</ele>
        <time>2022-07-30T07:32:35Z</time>
      </trkpt>
      <trkpt lat="46.68064" lon="5.96844">
        <ele>658.64</ele>
        <time>2022-07-30T07:32:48Z</time>
      </trkpt>
      <trkpt lat="46.6804" lon="5.9689">
        <ele>659.6</ele>
        <time>2022-07-30T07:33:00Z</time>
      </trkpt>
      <trkpt lat="46.68013" lon="5.96935">
        <ele>661.04</ele>
        <time>2022-07-30T07:33:15Z</time>
      </trkpt>
      <trkpt lat="46.67991" lon="5.96966">
        <ele>661.52</ele>
        <time>2022-07-30T07:33:27Z</time>
      </trkpt>
      <trkpt lat="46.67954" lon="5.97009">
        <ele>663.45</ele>
        <time>2022-07-30T07:33:42Z</time>
      </trkpt>
      <trkpt lat="46.67908" lon="5.97048">
        <ele>664.89</ele>
        <time>2022-07-30T07:33:58Z</time>
      </trkpt>
      <trkpt lat="46.67864" lon="5.97086">
        <ele>666.81</ele>
        <time>2022-07-30T07:34:15Z</time>
      </trkpt>
      <trkpt lat="46.67836" lon="5.97122">
        <ele>668.25</ele>
        <time>2022-07-30T07:34:28Z</time>
      </trkpt>
      <trkpt lat="46.67799" lon="5.97154">
        <ele>669.22</ele>
        <time>2022-07-30T07:34:42Z</time>
      </trkpt>
      <trkpt lat="46.67767" lon="5.97194">
        <ele>670.18</ele>
        <time>2022-07-30T07:34:56Z</time>
      </trkpt>
      <trkpt lat="46.67731" lon="5.97229">
        <ele>671.62</ele>
        <time>2022-07-30T07:35:12Z</time>
      </trkpt>
      <trkpt lat="46.67691" lon="5.97262">
        <ele>673.54</ele>
        <time>2022-07-30T07:35:27Z</time>
      </trkpt>
      <trkpt lat="46.67653" lon="5.97291">
        <ele>674.98</ele>
        <time>2022-07-30T07:35:42Z</time>
      </trkpt>
      <trkpt lat="46.67609" lon="5.97309">
        <ele>676.42</ele>
        <time>2022-07-30T07:35:55Z</time>
      </trkpt>
      <trkpt lat="46.67571" lon="5.97353">
        <ele>677.39</ele>
        <time>2022-07-30T07:36:10Z</time>
      </trkpt>
      <trkpt lat="46.6754" lon="5.97385">
        <ele>678.35</ele>
        <time>2022-07-30T07:36:23Z</time>
      </trkpt>
      <trkpt lat="46.67492" lon="5.97423">
        <ele>680.27</ele>
        <time>2022-07-30T07:36:41Z</time>
      </trkpt>
      <trkpt lat="46.6745" lon="5.97466">
        <ele>681.71</ele>
        <time>2022-07-30T07:36:58Z</time>
      </trkpt>
      <trkpt lat="46.67416" lon="5.9751">
        <ele>683.15</ele>
        <time>2022-07-30T07:37:13Z</time>
      </trkpt>
      <trkpt lat="46.6739" lon="5.97558">
        <ele>684.12</ele>
        <time>2022-07-30T07:37:26Z</time>
      </trkpt>
      <trkpt lat="46.67357" lon="5.97612">
        <ele>684.6</ele>
        <time>2022-07-30T07:37:41Z</time>
      </trkpt>
      <trkpt lat="46.67335" lon="5.97637">
        <ele>685.56</ele>
        <time>2022-07-30T07:37:49Z</time>
      </trkpt>
      <trkpt lat="46.67297" lon="5.97688">
        <ele>686.04</ele>
        <time>2022-07-30T07:38:02Z</time>
      </trkpt>
      <trkpt lat="46.67257" lon="5.97728">
        <ele>686.52</ele>
        <time>2022-07-30T07:38:16Z</time>
      </trkpt>
      <trkpt lat="46.67223" lon="5.9778">
        <ele>687.48</ele>
        <time>2022-07-30T07:38:28Z</time>
      </trkpt>
      <trkpt lat="46.67178" lon="5.97823">
        <ele>687.96</ele>
        <time>2022-07-30T07:38:42Z</time>
      </trkpt>
      <trkpt lat="46.67135" lon="5.97895">
        <ele>687.96</ele>
        <time>2022-07-30T07:38:56Z</time>
      </trkpt>
      <trkpt lat="46.67082" lon="5.97965">
        <ele>687.96</ele>
        <time>2022-07-30T07:39:11Z</time>
      </trkpt>
      <trkpt lat="46.6705" lon="5.98039">
        <ele>689.88</ele>
        <time>2022-07-30T07:39:26Z</time>
      </trkpt>
      <trkpt lat="46.67032" lon="5.98083">
        <ele>691.33</ele>
        <time>2022-07-30T07:39:38Z</time>
      </trkpt>
      <trkpt lat="46.67001" lon="5.98128">
        <ele>692.77</ele>
        <time>2022-07-30T07:39:55Z</time>
      </trkpt>
      <trkpt lat="46.66972" lon="5.98171">
        <ele>694.69</ele>
        <time>2022-07-30T07:40:11Z</time>
      </trkpt>
      <trkpt lat="46.66939" lon="5.98218">
        <ele>697.09</ele>
        <time>2022-07-30T07:40:29Z</time>
      </trkpt>
      <trkpt lat="46.6692" lon="5.98276">
        <ele>699.02</ele>
        <time>2022-07-30T07:40:46Z</time>
      </trkpt>
      <trkpt lat="46.66895" lon="5.98326">
        <ele>700.94</ele>
        <time>2022-07-30T07:41:04Z</time>
      </trkpt>
      <trkpt lat="46.66873" lon="5.9838">
        <ele>702.38</ele>
        <time>2022-07-30T07:41:20Z</time>
      </trkpt>
      <trkpt lat="46.66839" lon="5.98406">
        <ele>702.86</ele>
        <time>2022-07-30T07:41:31Z</time>
      </trkpt>
      <trkpt lat="46.66816" lon="5.98456">
        <ele>703.82</ele>
        <time>2022-07-30T07:41:44Z</time>
      </trkpt>
      <trkpt lat="46.66774" lon="5.98496">
        <ele>704.3</ele>
        <time>2022-07-30T07:41:58Z</time>
      </trkpt>
      <trkpt lat="46.66739" lon="5.98545">
        <ele>705.26</ele>
        <time>2022-07-30T07:42:12Z</time>
      </trkpt>
      <trkpt lat="46.66715" lon="5.98606">
        <ele>706.23</ele>
        <time>2022-07-30T07:42:25Z</time>
      </trkpt>
      <trkpt lat="46.66678" lon="5.98667">
        <ele>707.19</ele>
        <time>2022-07-30T07:42:41Z</time>
      </trkpt>
      <trkpt lat="46.66664" lon="5.98757">
        <ele>708.15</ele>
        <time>2022-07-30T07:42:57Z</time>
      </trkpt>
      <trkpt lat="46.66659" lon="5.98845">
        <ele>709.11</ele>
        <time>2022-07-30T07:43:12Z</time>
      </trkpt>
      <trkpt lat="46.66633" lon="5.98907">
        <ele>709.59</ele>
        <time>2022-07-30T07:43:26Z</time>
      </trkpt>
      <trkpt lat="46.66599" lon="5.98971">
        <ele>711.03</ele>
        <time>2022-07-30T07:43:41Z</time>
      </trkpt>
      <trkpt lat="46.6659" lon="5.99044">
        <ele>711.99</ele>
        <time>2022-07-30T07:43:54Z</time>
      </trkpt>
      <trkpt lat="46.6659" lon="5.9905">
        <ele>711.99</ele>
        <time>2022-07-30T07:43:55Z</time>
      </trkpt>
      <trkpt lat="46.66589" lon="5.99056">
        <ele>711.99</ele>
        <time>2022-07-30T07:43:56Z</time>
      </trkpt>
      <trkpt lat="46.66588" lon="5.99063">
        <ele>711.99</ele>
        <time>2022-07-30T07:43:57Z</time>
      </trkpt>
      <trkpt lat="46.66562" lon="5.99132">
        <ele>713.44</ele>
        <time>2022-07-30T07:44:12Z</time>
      </trkpt>
      <trkpt lat="46.66541" lon="5.9921">
        <ele>714.4</ele>
        <time>2022-07-30T07:44:28Z</time>
      </trkpt>
      <trkpt lat="46.66526" lon="5.9929">
        <ele>715.36</ele>
        <time>2022-07-30T07:44:44Z</time>
      </trkpt>
      <trkpt lat="46.66508" lon="5.994">
        <ele>716.8</ele>
        <time>2022-07-30T07:45:03Z</time>
      </trkpt>
      <trkpt lat="46.6647" lon="5.99483">
        <ele>715.84</ele>
        <time>2022-07-30T07:45:19Z</time>
      </trkpt>
      <trkpt lat="46.66461" lon="5.99592">
        <ele>716.32</ele>
        <time>2022-07-30T07:45:36Z</time>
      </trkpt>
      <trkpt lat="46.66459" lon="5.99704">
        <ele>716.8</ele>
        <time>2022-07-30T07:45:52Z</time>
      </trkpt>
      <trkpt lat="46.66442" lon="5.99811">
        <ele>717.28</ele>
        <time>2022-07-30T07:46:08Z</time>
      </trkpt>
      <trkpt lat="46.6644" lon="5.99836">
        <ele>717.28</ele>
        <time>2022-07-30T07:46:12Z</time>
      </trkpt>
      <trkpt lat="46.66439" lon="5.99842">
        <ele>716.8</ele>
        <time>2022-07-30T07:46:13Z</time>
      </trkpt>
      <trkpt lat="46.66437" lon="5.99848">
        <ele>716.32</ele>
        <time>2022-07-30T07:46:14Z</time>
      </trkpt>
      <trkpt lat="46.66435" lon="5.99853">
        <ele>716.8</ele>
        <time>2022-07-30T07:46:15Z</time>
      </trkpt>
      <trkpt lat="46.66433" lon="5.99859">
        <ele>716.8</ele>
        <time>2022-07-30T07:46:16Z</time>
      </trkpt>
      <trkpt lat="46.6643" lon="5.99864">
        <ele>716.32</ele>
        <time>2022-07-30T07:46:17Z</time>
      </trkpt>
      <trkpt lat="46.66427" lon="5.99869">
        <ele>716.32</ele>
        <time>2022-07-30T07:46:18Z</time>
      </trkpt>
      <trkpt lat="46.66411" lon="5.9989">
        <ele>716.32</ele>
        <time>2022-07-30T07:46:23Z</time>
      </trkpt>
      <trkpt lat="46.66397" lon="5.99902">
        <ele>717.28</ele>
        <time>2022-07-30T07:46:27Z</time>
      </trkpt>
      <trkpt lat="46.66393" lon="5.99904">
        <ele>717.28</ele>
        <time>2022-07-30T07:46:28Z</time>
      </trkpt>
      <trkpt lat="46.66373" lon="5.99908">
        <ele>716.8</ele>
        <time>2022-07-30T07:46:32Z</time>
      </trkpt>
      <trkpt lat="46.66354" lon="5.99915">
        <ele>717.28</ele>
        <time>2022-07-30T07:46:36Z</time>
      </trkpt>
      <trkpt lat="46.6635" lon="5.99918">
        <ele>717.28</ele>
        <time>2022-07-30T07:46:37Z</time>
      </trkpt>
      <trkpt lat="46.66346" lon="5.99922">
        <ele>716.8</ele>
        <time>2022-07-30T07:46:38Z</time>
      </trkpt>
      <trkpt lat="46.66343" lon="5.99928">
        <ele>716.8</ele>
        <time>2022-07-30T07:46:39Z</time>
      </trkpt>
      <trkpt lat="46.6634" lon="5.99934">
        <ele>716.8</ele>
        <time>2022-07-30T07:46:40Z</time>
      </trkpt>
      <trkpt lat="46.66337" lon="5.9994">
        <ele>716.8</ele>
        <time>2022-07-30T07:46:41Z</time>
      </trkpt>
      <trkpt lat="46.66287" lon="6.0003">
        <ele>715.84</ele>
        <time>2022-07-30T07:46:59Z</time>
      </trkpt>
      <trkpt lat="46.66277" lon="6.00052">
        <ele>715.36</ele>
        <time>2022-07-30T07:47:03Z</time>
      </trkpt>
      <trkpt lat="46.66274" lon="6.00057">
        <ele>715.36</ele>
        <time>2022-07-30T07:47:04Z</time>
      </trkpt>
      <trkpt lat="46.66262" lon="6.0007">
        <ele>715.84</ele>
        <time>2022-07-30T07:47:07Z</time>
      </trkpt>
      <trkpt lat="46.66193" lon="6.00124">
        <ele>713.92</ele>
        <time>2022-07-30T07:47:23Z</time>
      </trkpt>
      <trkpt lat="46.66164" lon="6.00166">
        <ele>713.44</ele>
        <time>2022-07-30T07:47:36Z</time>
      </trkpt>
      <trkpt lat="46.66163" lon="6.00172">
        <ele>713.92</ele>
        <time>2022-07-30T07:47:52Z</time>
      </trkpt>
      <trkpt lat="46.66164" lon="6.00162">
        <ele>713.92</ele>
        <time>2022-07-30T07:48:21Z</time>
      </trkpt>
      <trkpt lat="46.66165" lon="6.00163">
        <ele>714.4</ele>
        <time>2022-07-30T07:48:50Z</time>
      </trkpt>
      <trkpt lat="46.66165" lon="6.00165">
        <ele>713.92</ele>
        <time>2022-07-30T07:48:51Z</time>
      </trkpt>
      <trkpt lat="46.66164" lon="6.00166">
        <ele>714.4</ele>
        <time>2022-07-30T07:48:52Z</time>
      </trkpt>
      <trkpt lat="46.66163" lon="6.00168">
        <ele>714.4</ele>
        <time>2022-07-30T07:48:53Z</time>
      </trkpt>
      <trkpt lat="46.66162" lon="6.0017">
        <ele>713.92</ele>
        <time>2022-07-30T07:48:54Z</time>
      </trkpt>
      <trkpt lat="46.6616" lon="6.00173">
        <ele>713.92</ele>
        <time>2022-07-30T07:48:55Z</time>
      </trkpt>
      <trkpt lat="46.6613" lon="6.00231">
        <ele>713.92</ele>
        <time>2022-07-30T07:49:10Z</time>
      </trkpt>
      <trkpt lat="46.66125" lon="6.00239">
        <ele>712.95</ele>
        <time>2022-07-30T07:49:12Z</time>
      </trkpt>
      <trkpt lat="46.66106" lon="6.00264">
        <ele>713.44</ele>
        <time>2022-07-30T07:49:18Z</time>
      </trkpt>
      <trkpt lat="46.6605" lon="6.00305">
        <ele>712.95</ele>
        <time>2022-07-30T07:49:31Z</time>
      </trkpt>
      <trkpt lat="46.66033" lon="6.00328">
        <ele>712.95</ele>
        <time>2022-07-30T07:49:36Z</time>
      </trkpt>
      <trkpt lat="46.65989" lon="6.00394">
        <ele>712.95</ele>
        <time>2022-07-30T07:49:50Z</time>
      </trkpt>
      <trkpt lat="46.65967" lon="6.00429">
        <ele>712.95</ele>
        <time>2022-07-30T07:49:57Z</time>
      </trkpt>
      <trkpt lat="46.65919" lon="6.00499">
        <ele>712.47</ele>
        <time>2022-07-30T07:50:12Z</time>
      </trkpt>
      <trkpt lat="46.65867" lon="6.00587">
        <ele>712.95</ele>
        <time>2022-07-30T07:50:29Z</time>
      </trkpt>
      <trkpt lat="46.65839" lon="6.00652">
        <ele>713.92</ele>
        <time>2022-07-30T07:50:43Z</time>
      </trkpt>
      <trkpt lat="46.65846" lon="6.00684">
        <ele>714.4</ele>
        <time>2022-07-30T07:50:53Z</time>
      </trkpt>
      <trkpt lat="46.6584" lon="6.00753">
        <ele>715.84</ele>
        <time>2022-07-30T07:51:08Z</time>
      </trkpt>
      <trkpt lat="46.6583" lon="6.00788">
        <ele>717.28</ele>
        <time>2022-07-30T07:51:21Z</time>
      </trkpt>
      <trkpt lat="46.65829" lon="6.0079">
        <ele>718.24</ele>
        <time>2022-07-30T07:51:22Z</time>
      </trkpt>
      <trkpt lat="46.65828" lon="6.00791">
        <ele>717.28</ele>
        <time>2022-07-30T07:51:23Z</time>
      </trkpt>
      <trkpt lat="46.65808" lon="6.00809">
        <ele>719.68</ele>
        <time>2022-07-30T07:51:38Z</time>
      </trkpt>
      <trkpt lat="46.65776" lon="6.00804">
        <ele>720.16</ele>
        <time>2022-07-30T07:51:54Z</time>
      </trkpt>
      <trkpt lat="46.65745" lon="6.00784">
        <ele>722.09</ele>
        <time>2022-07-30T07:52:09Z</time>
      </trkpt>
      <trkpt lat="46.6572" lon="6.00778">
        <ele>724.01</ele>
        <time>2022-07-30T07:52:20Z</time>
      </trkpt>
      <trkpt lat="46.6569" lon="6.00788">
        <ele>724.97</ele>
        <time>2022-07-30T07:52:33Z</time>
      </trkpt>
      <trkpt lat="46.65653" lon="6.00819">
        <ele>727.37</ele>
        <time>2022-07-30T07:52:52Z</time>
      </trkpt>
      <trkpt lat="46.65613" lon="6.00855">
        <ele>729.78</ele>
        <time>2022-07-30T07:53:12Z</time>
      </trkpt>
      <trkpt lat="46.65578" lon="6.00885">
        <ele>731.7</ele>
        <time>2022-07-30T07:53:31Z</time>
      </trkpt>
      <trkpt lat="46.65545" lon="6.00902">
        <ele>733.14</ele>
        <time>2022-07-30T07:53:49Z</time>
      </trkpt>
      <trkpt lat="46.65515" lon="6.00899">
        <ele>733.62</ele>
        <time>2022-07-30T07:54:07Z</time>
      </trkpt>
      <trkpt lat="46.65515" lon="6.00897">
        <ele>734.1</ele>
        <time>2022-07-30T07:54:13Z</time>
      </trkpt>
      <trkpt lat="46.65514" lon="6.00896">
        <ele>733.62</ele>
        <time>2022-07-30T07:54:14Z</time>
      </trkpt>
      <trkpt lat="46.65513" lon="6.00894">
        <ele>734.1</ele>
        <time>2022-07-30T07:54:15Z</time>
      </trkpt>
      <trkpt lat="46.65512" lon="6.00891">
        <ele>734.1</ele>
        <time>2022-07-30T07:54:16Z</time>
      </trkpt>
      <trkpt lat="46.65511" lon="6.00888">
        <ele>734.1</ele>
        <time>2022-07-30T07:54:17Z</time>
      </trkpt>
      <trkpt lat="46.65511" lon="6.00884">
        <ele>733.62</ele>
        <time>2022-07-30T07:54:18Z</time>
      </trkpt>
      <trkpt lat="46.6551" lon="6.00879">
        <ele>733.62</ele>
        <time>2022-07-30T07:54:19Z</time>
      </trkpt>
      <trkpt lat="46.65509" lon="6.00874">
        <ele>733.62</ele>
        <time>2022-07-30T07:54:20Z</time>
      </trkpt>
      <trkpt lat="46.65489" lon="6.00799">
        <ele>731.7</ele>
        <time>2022-07-30T07:54:33Z</time>
      </trkpt>
      <trkpt lat="46.65489" lon="6.00792">
        <ele>731.22</ele>
        <time>2022-07-30T07:54:34Z</time>
      </trkpt>
      <trkpt lat="46.6549" lon="6.00784">
        <ele>731.22</ele>
        <time>2022-07-30T07:54:35Z</time>
      </trkpt>
      <trkpt lat="46.65492" lon="6.00777">
        <ele>730.26</ele>
        <time>2022-07-30T07:54:36Z</time>
      </trkpt>
      <trkpt lat="46.65495" lon="6.0077">
        <ele>729.78</ele>
        <time>2022-07-30T07:54:37Z</time>
      </trkpt>
      <trkpt lat="46.65499" lon="6.00766">
        <ele>729.3</ele>
        <time>2022-07-30T07:54:38Z</time>
      </trkpt>
      <trkpt lat="46.65503" lon="6.00762">
        <ele>728.82</ele>
        <time>2022-07-30T07:54:39Z</time>
      </trkpt>
      <trkpt lat="46.65507" lon="6.00759">
        <ele>728.82</ele>
        <time>2022-07-30T07:54:40Z</time>
      </trkpt>
      <trkpt lat="46.65513" lon="6.00759">
        <ele>728.82</ele>
        <time>2022-07-30T07:54:41Z</time>
      </trkpt>
      <trkpt lat="46.65518" lon="6.00759">
        <ele>729.3</ele>
        <time>2022-07-30T07:54:42Z</time>
      </trkpt>
      <trkpt lat="46.65549" lon="6.00756">
        <ele>726.41</ele>
        <time>2022-07-30T07:54:47Z</time>
      </trkpt>
      <trkpt lat="46.65555" lon="6.00754">
        <ele>726.41</ele>
        <time>2022-07-30T07:54:48Z</time>
      </trkpt>
      <trkpt lat="46.65561" lon="6.0075">
        <ele>725.93</ele>
        <time>2022-07-30T07:54:49Z</time>
      </trkpt>
      <trkpt lat="46.65567" lon="6.00746">
        <ele>725.45</ele>
        <time>2022-07-30T07:54:50Z</time>
      </trkpt>
      <trkpt lat="46.65572" lon="6.00742">
        <ele>724.49</ele>
        <time>2022-07-30T07:54:51Z</time>
      </trkpt>
      <trkpt lat="46.65577" lon="6.00736">
        <ele>724.49</ele>
        <time>2022-07-30T07:54:52Z</time>
      </trkpt>
      <trkpt lat="46.65582" lon="6.0073">
        <ele>723.53</ele>
        <time>2022-07-30T07:54:53Z</time>
      </trkpt>
      <trkpt lat="46.65586" lon="6.00724">
        <ele>723.53</ele>
        <time>2022-07-30T07:54:54Z</time>
      </trkpt>
      <trkpt lat="46.65621" lon="6.00673">
        <ele>720.16</ele>
        <time>2022-07-30T07:55:02Z</time>
      </trkpt>
      <trkpt lat="46.65625" lon="6.00667">
        <ele>720.16</ele>
        <time>2022-07-30T07:55:03Z</time>
      </trkpt>
      <trkpt lat="46.65641" lon="6.00642">
        <ele>718.24</ele>
        <time>2022-07-30T07:55:07Z</time>
      </trkpt>
      <trkpt lat="46.65644" lon="6.00635">
        <ele>717.76</ele>
        <time>2022-07-30T07:55:08Z</time>
      </trkpt>
      <trkpt lat="46.65645" lon="6.00627">
        <ele>717.28</ele>
        <time>2022-07-30T07:55:09Z</time>
      </trkpt>
      <trkpt lat="46.65645" lon="6.00618">
        <ele>717.28</ele>
        <time>2022-07-30T07:55:10Z</time>
      </trkpt>
      <trkpt lat="46.65644" lon="6.00609">
        <ele>716.8</ele>
        <time>2022-07-30T07:55:11Z</time>
      </trkpt>
      <trkpt lat="46.65642" lon="6.006">
        <ele>716.32</ele>
        <time>2022-07-30T07:55:12Z</time>
      </trkpt>
      <trkpt lat="46.6564" lon="6.00592">
        <ele>716.32</ele>
        <time>2022-07-30T07:55:13Z</time>
      </trkpt>
      <trkpt lat="46.65638" lon="6.00583">
        <ele>715.36</ele>
        <time>2022-07-30T07:55:14Z</time>
      </trkpt>
      <trkpt lat="46.65635" lon="6.00575">
        <ele>715.36</ele>
        <time>2022-07-30T07:55:15Z</time>
      </trkpt>
      <trkpt lat="46.65631" lon="6.00568">
        <ele>714.4</ele>
        <time>2022-07-30T07:55:16Z</time>
      </trkpt>
      <trkpt lat="46.65627" lon="6.00562">
        <ele>714.88</ele>
        <time>2022-07-30T07:55:17Z</time>
      </trkpt>
      <trkpt lat="46.65622" lon="6.00557">
        <ele>713.92</ele>
        <time>2022-07-30T07:55:18Z</time>
      </trkpt>
      <trkpt lat="46.65618" lon="6.00552">
        <ele>713.44</ele>
        <time>2022-07-30T07:55:19Z</time>
      </trkpt>
      <trkpt lat="46.65614" lon="6.00548">
        <ele>712.95</ele>
        <time>2022-07-30T07:55:20Z</time>
      </trkpt>
      <trkpt lat="46.6559" lon="6.00515">
        <ele>711.99</ele>
        <time>2022-07-30T07:55:31Z</time>
      </trkpt>
      <trkpt lat="46.65589" lon="6.00502">
        <ele>711.99</ele>
        <time>2022-07-30T07:55:43Z</time>
      </trkpt>
      <trkpt lat="46.65589" lon="6.00501">
        <ele>711.99</ele>
        <time>2022-07-30T07:56:09Z</time>
      </trkpt>
      <trkpt lat="46.6559" lon="6.00502">
        <ele>711.51</ele>
        <time>2022-07-30T07:56:42Z</time>
      </trkpt>
      <trkpt lat="46.65593" lon="6.00502">
        <ele>711.51</ele>
        <time>2022-07-30T07:57:22Z</time>
      </trkpt>
      <trkpt lat="46.65588" lon="6.00503">
        <ele>711.99</ele>
        <time>2022-07-30T07:57:56Z</time>
      </trkpt>
      <trkpt lat="46.65592" lon="6.00511">
        <ele>711.51</ele>
        <time>2022-07-30T07:58:12Z</time>
      </trkpt>
      <trkpt lat="46.6559" lon="6.00524">
        <ele>711.51</ele>
        <time>2022-07-30T07:58:30Z</time>
      </trkpt>
      <trkpt lat="46.65589" lon="6.00537">
        <ele>711.99</ele>
        <time>2022-07-30T07:58:45Z</time>
      </trkpt>
      <trkpt lat="46.65592" lon="6.00535">
        <ele>712.47</ele>
        <time>2022-07-30T07:59:17Z</time>
      </trkpt>
      <trkpt lat="46.65594" lon="6.00541">
        <ele>711.99</ele>
        <time>2022-07-30T07:59:30Z</time>
      </trkpt>
      <trkpt lat="46.65599" lon="6.00541">
        <ele>712.47</ele>
        <time>2022-07-30T07:59:34Z</time>
      </trkpt>
      <trkpt lat="46.65606" lon="6.00542">
        <ele>712.47</ele>
        <time>2022-07-30T07:59:37Z</time>
      </trkpt>
      <trkpt lat="46.65629" lon="6.00568">
        <ele>714.4</ele>
        <time>2022-07-30T07:59:50Z</time>
      </trkpt>
      <trkpt lat="46.65643" lon="6.00617">
        <ele>716.8</ele>
        <time>2022-07-30T08:00:06Z</time>
      </trkpt>
      <trkpt lat="46.65635" lon="6.00654">
        <ele>718.72</ele>
        <time>2022-07-30T08:00:20Z</time>
      </trkpt>
      <trkpt lat="46.65613" lon="6.00685">
        <ele>721.13</ele>
        <time>2022-07-30T08:00:36Z</time>
      </trkpt>
      <trkpt lat="46.65588" lon="6.00722">
        <ele>723.53</ele>
        <time>2022-07-30T08:00:56Z</time>
      </trkpt>
      <trkpt lat="46.65564" lon="6.00747">
        <ele>724.97</ele>
        <time>2022-07-30T08:01:12Z</time>
      </trkpt>
      <trkpt lat="46.65531" lon="6.0076">
        <ele>726.89</ele>
        <time>2022-07-30T08:01:31Z</time>
      </trkpt>
      <trkpt lat="46.65508" lon="6.00765">
        <ele>728.82</ele>
        <time>2022-07-30T08:01:45Z</time>
      </trkpt>
      <trkpt lat="46.65492" lon="6.008">
        <ele>730.74</ele>
        <time>2022-07-30T08:02:03Z</time>
      </trkpt>
      <trkpt lat="46.655" lon="6.00838">
        <ele>732.66</ele>
        <time>2022-07-30T08:02:20Z</time>
      </trkpt>
      <trkpt lat="46.6551" lon="6.00878">
        <ele>733.62</ele>
        <time>2022-07-30T08:02:36Z</time>
      </trkpt>
      <trkpt lat="46.65511" lon="6.00884">
        <ele>733.14</ele>
        <time>2022-07-30T08:02:38Z</time>
      </trkpt>
      <trkpt lat="46.6551" lon="6.00887">
        <ele>733.14</ele>
        <time>2022-07-30T08:02:39Z</time>
      </trkpt>
      <trkpt lat="46.65489" lon="6.00901">
        <ele>734.58</ele>
        <time>2022-07-30T08:02:52Z</time>
      </trkpt>
      <trkpt lat="46.6546" lon="6.00901">
        <ele>736.03</ele>
        <time>2022-07-30T08:03:08Z</time>
      </trkpt>
      <trkpt lat="46.65419" lon="6.00909">
        <ele>736.51</ele>
        <time>2022-07-30T08:03:24Z</time>
      </trkpt>
      <trkpt lat="46.65375" lon="6.0092">
        <ele>736.51</ele>
        <time>2022-07-30T08:03:39Z</time>
      </trkpt>
      <trkpt lat="46.65342" lon="6.00936">
        <ele>737.47</ele>
        <time>2022-07-30T08:03:51Z</time>
      </trkpt>
      <trkpt lat="46.65312" lon="6.00956">
        <ele>736.99</ele>
        <time>2022-07-30T08:04:05Z</time>
      </trkpt>
      <trkpt lat="46.65275" lon="6.00969">
        <ele>739.39</ele>
        <time>2022-07-30T08:04:18Z</time>
      </trkpt>
      <trkpt lat="46.65234" lon="6.00978">
        <ele>740.83</ele>
        <time>2022-07-30T08:04:34Z</time>
      </trkpt>
      <trkpt lat="46.65199" lon="6.01004">
        <ele>741.79</ele>
        <time>2022-07-30T08:04:48Z</time>
      </trkpt>
      <trkpt lat="46.65151" lon="6.01027">
        <ele>741.79</ele>
        <time>2022-07-30T08:05:04Z</time>
      </trkpt>
      <trkpt lat="46.65087" lon="6.01032">
        <ele>742.28</ele>
        <time>2022-07-30T08:05:21Z</time>
      </trkpt>
      <trkpt lat="46.65011" lon="6.01027">
        <ele>742.76</ele>
        <time>2022-07-30T08:05:37Z</time>
      </trkpt>
      <trkpt lat="46.64985" lon="6.01025">
        <ele>741.79</ele>
        <time>2022-07-30T08:05:42Z</time>
      </trkpt>
      <trkpt lat="46.64902" lon="6.01004">
        <ele>743.72</ele>
        <time>2022-07-30T08:05:59Z</time>
      </trkpt>
      <trkpt lat="46.64821" lon="6.00959">
        <ele>743.72</ele>
        <time>2022-07-30T08:06:18Z</time>
      </trkpt>
      <trkpt lat="46.64786" lon="6.00935">
        <ele>745.64</ele>
        <time>2022-07-30T08:06:32Z</time>
      </trkpt>
      <trkpt lat="46.64741" lon="6.00912">
        <ele>748.52</ele>
        <time>2022-07-30T08:06:50Z</time>
      </trkpt>
      <trkpt lat="46.64703" lon="6.00891">
        <ele>750.93</ele>
        <time>2022-07-30T08:07:08Z</time>
      </trkpt>
      <trkpt lat="46.6468" lon="6.00881">
        <ele>752.37</ele>
        <time>2022-07-30T08:07:18Z</time>
      </trkpt>
      <trkpt lat="46.64679" lon="6.00883">
        <ele>751.89</ele>
        <time>2022-07-30T08:07:19Z</time>
      </trkpt>
      <trkpt lat="46.64678" lon="6.00886">
        <ele>752.37</ele>
        <time>2022-07-30T08:07:20Z</time>
      </trkpt>
      <trkpt lat="46.64677" lon="6.0089">
        <ele>752.37</ele>
        <time>2022-07-30T08:07:21Z</time>
      </trkpt>
      <trkpt lat="46.64676" lon="6.00893">
        <ele>752.85</ele>
        <time>2022-07-30T08:07:22Z</time>
      </trkpt>
      <trkpt lat="46.64675" lon="6.00896">
        <ele>752.37</ele>
        <time>2022-07-30T08:07:23Z</time>
      </trkpt>
      <trkpt lat="46.64675" lon="6.00898">
        <ele>752.37</ele>
        <time>2022-07-30T08:07:24Z</time>
      </trkpt>
      <trkpt lat="46.64674" lon="6.00901">
        <ele>752.85</ele>
        <time>2022-07-30T08:07:25Z</time>
      </trkpt>
      <trkpt lat="46.64674" lon="6.00904">
        <ele>753.33</ele>
        <time>2022-07-30T08:07:26Z</time>
      </trkpt>
      <trkpt lat="46.6468" lon="6.00968">
        <ele>755.73</ele>
        <time>2022-07-30T08:07:46Z</time>
      </trkpt>
      <trkpt lat="46.64696" lon="6.01007">
        <ele>758.14</ele>
        <time>2022-07-30T08:08:02Z</time>
      </trkpt>
      <trkpt lat="46.64717" lon="6.01043">
        <ele>760.54</ele>
        <time>2022-07-30T08:08:21Z</time>
      </trkpt>
      <trkpt lat="46.64737" lon="6.01084">
        <ele>761.5</ele>
        <time>2022-07-30T08:08:36Z</time>
      </trkpt>
      <trkpt lat="46.64758" lon="6.01149">
        <ele>764.39</ele>
        <time>2022-07-30T08:08:56Z</time>
      </trkpt>
      <trkpt lat="46.64766" lon="6.01203">
        <ele>766.79</ele>
        <time>2022-07-30T08:09:13Z</time>
      </trkpt>
      <trkpt lat="46.64766" lon="6.0126">
        <ele>769.67</ele>
        <time>2022-07-30T08:09:30Z</time>
      </trkpt>
      <trkpt lat="46.6477" lon="6.01321">
        <ele>771.6</ele>
        <time>2022-07-30T08:09:47Z</time>
      </trkpt>
      <trkpt lat="46.64792" lon="6.01382">
        <ele>774.48</ele>
        <time>2022-07-30T08:10:05Z</time>
      </trkpt>
      <trkpt lat="46.64804" lon="6.01454">
        <ele>776.4</ele>
        <time>2022-07-30T08:10:26Z</time>
      </trkpt>
      <trkpt lat="46.64809" lon="6.01516">
        <ele>779.29</ele>
        <time>2022-07-30T08:10:45Z</time>
      </trkpt>
      <trkpt lat="46.64804" lon="6.01583">
        <ele>781.69</ele>
        <time>2022-07-30T08:11:05Z</time>
      </trkpt>
      <trkpt lat="46.64805" lon="6.01642">
        <ele>785.05</ele>
        <time>2022-07-30T08:11:23Z</time>
      </trkpt>
      <trkpt lat="46.64797" lon="6.01701">
        <ele>787.94</ele>
        <time>2022-07-30T08:11:41Z</time>
      </trkpt>
      <trkpt lat="46.64787" lon="6.01751">
        <ele>788.9</ele>
        <time>2022-07-30T08:11:58Z</time>
      </trkpt>
      <trkpt lat="46.64781" lon="6.01811">
        <ele>791.78</ele>
        <time>2022-07-30T08:12:15Z</time>
      </trkpt>
      <trkpt lat="46.64769" lon="6.01862">
        <ele>794.19</ele>
        <time>2022-07-30T08:12:31Z</time>
      </trkpt>
      <trkpt lat="46.64739" lon="6.01919">
        <ele>797.55</ele>
        <time>2022-07-30T08:12:49Z</time>
      </trkpt>
      <trkpt lat="46.64714" lon="6.01964">
        <ele>799.95</ele>
        <time>2022-07-30T08:13:07Z</time>
      </trkpt>
      <trkpt lat="46.647" lon="6.02008">
        <ele>802.36</ele>
        <time>2022-07-30T08:13:26Z</time>
      </trkpt>
      <trkpt lat="46.64696" lon="6.02051">
        <ele>803.8</ele>
        <time>2022-07-30T08:13:42Z</time>
      </trkpt>
      <trkpt lat="46.64696" lon="6.02097">
        <ele>806.2</ele>
        <time>2022-07-30T08:13:59Z</time>
      </trkpt>
      <trkpt lat="46.64687" lon="6.02132">
        <ele>807.64</ele>
        <time>2022-07-30T08:14:16Z</time>
      </trkpt>
      <trkpt lat="46.64681" lon="6.0215">
        <ele>808.13</ele>
        <time>2022-07-30T08:14:26Z</time>
      </trkpt>
      <trkpt lat="46.6468" lon="6.02151">
        <ele>808.13</ele>
        <time>2022-07-30T08:14:27Z</time>
      </trkpt>
      <trkpt lat="46.64679" lon="6.02153">
        <ele>809.09</ele>
        <time>2022-07-30T08:14:28Z</time>
      </trkpt>
      <trkpt lat="46.64677" lon="6.02155">
        <ele>808.61</ele>
        <time>2022-07-30T08:14:29Z</time>
      </trkpt>
      <trkpt lat="46.64677" lon="6.02156">
        <ele>809.57</ele>
        <time>2022-07-30T08:14:30Z</time>
      </trkpt>
      <trkpt lat="46.64678" lon="6.02169">
        <ele>809.57</ele>
        <time>2022-07-30T08:14:35Z</time>
      </trkpt>
      <trkpt lat="46.64683" lon="6.02197">
        <ele>809.09</ele>
        <time>2022-07-30T08:14:48Z</time>
      </trkpt>
      <trkpt lat="46.64686" lon="6.02201">
        <ele>809.09</ele>
        <time>2022-07-30T08:15:11Z</time>
      </trkpt>
      <trkpt lat="46.64685" lon="6.02205">
        <ele>810.05</ele>
        <time>2022-07-30T08:15:33Z</time>
      </trkpt>
      <trkpt lat="46.6468" lon="6.022">
        <ele>809.57</ele>
        <time>2022-07-30T08:15:51Z</time>
      </trkpt>
      <trkpt lat="46.64678" lon="6.02199">
        <ele>809.57</ele>
        <time>2022-07-30T08:15:58Z</time>
      </trkpt>
      <trkpt lat="46.64674" lon="6.02201">
        <ele>809.57</ele>
        <time>2022-07-30T08:16:02Z</time>
      </trkpt>
      <trkpt lat="46.64656" lon="6.02194">
        <ele>812.45</ele>
        <time>2022-07-30T08:16:17Z</time>
      </trkpt>
      <trkpt lat="46.64624" lon="6.02185">
        <ele>812.45</ele>
        <time>2022-07-30T08:16:31Z</time>
      </trkpt>
      <trkpt lat="46.64584" lon="6.02182">
        <ele>814.85</ele>
        <time>2022-07-30T08:16:49Z</time>
      </trkpt>
      <trkpt lat="46.64538" lon="6.02197">
        <ele>817.74</ele>
        <time>2022-07-30T08:17:08Z</time>
      </trkpt>
      <trkpt lat="46.64503" lon="6.02219">
        <ele>819.66</ele>
        <time>2022-07-30T08:17:23Z</time>
      </trkpt>
      <trkpt lat="46.64471" lon="6.02255">
        <ele>820.62</ele>
        <time>2022-07-30T08:17:38Z</time>
      </trkpt>
      <trkpt lat="46.64437" lon="6.02297">
        <ele>823.03</ele>
        <time>2022-07-30T08:17:55Z</time>
      </trkpt>
      <trkpt lat="46.64425" lon="6.02346">
        <ele>823.99</ele>
        <time>2022-07-30T08:18:10Z</time>
      </trkpt>
      <trkpt lat="46.64432" lon="6.02416">
        <ele>825.43</ele>
        <time>2022-07-30T08:18:29Z</time>
      </trkpt>
      <trkpt lat="46.64436" lon="6.02479">
        <ele>827.83</ele>
        <time>2022-07-30T08:18:45Z</time>
      </trkpt>
      <trkpt lat="46.64448" lon="6.02515">
        <ele>828.31</ele>
        <time>2022-07-30T08:18:58Z</time>
      </trkpt>
      <trkpt lat="46.64448" lon="6.02517">
        <ele>827.35</ele>
        <time>2022-07-30T08:19:24Z</time>
      </trkpt>
      <trkpt lat="46.64446" lon="6.02514">
        <ele>828.31</ele>
        <time>2022-07-30T08:20:03Z</time>
      </trkpt>
      <trkpt lat="46.64447" lon="6.0252">
        <ele>828.79</ele>
        <time>2022-07-30T08:20:17Z</time>
      </trkpt>
      <trkpt lat="46.64446" lon="6.02522">
        <ele>828.79</ele>
        <time>2022-07-30T08:20:18Z</time>
      </trkpt>
      <trkpt lat="46.64446" lon="6.02525">
        <ele>828.79</ele>
        <time>2022-07-30T08:20:19Z</time>
      </trkpt>
      <trkpt lat="46.64445" lon="6.02528">
        <ele>828.79</ele>
        <time>2022-07-30T08:20:20Z</time>
      </trkpt>
      <trkpt lat="46.64444" lon="6.02531">
        <ele>828.79</ele>
        <time>2022-07-30T08:20:21Z</time>
      </trkpt>
      <trkpt lat="46.64442" lon="6.02534">
        <ele>828.79</ele>
        <time>2022-07-30T08:20:22Z</time>
      </trkpt>
      <trkpt lat="46.6444" lon="6.02537">
        <ele>828.79</ele>
        <time>2022-07-30T08:20:23Z</time>
      </trkpt>
      <trkpt lat="46.64419" lon="6.02561">
        <ele>828.31</ele>
        <time>2022-07-30T08:20:31Z</time>
      </trkpt>
      <trkpt lat="46.64411" lon="6.02566">
        <ele>827.83</ele>
        <time>2022-07-30T08:20:33Z</time>
      </trkpt>
      <trkpt lat="46.64406" lon="6.02567">
        <ele>827.83</ele>
        <time>2022-07-30T08:20:34Z</time>
      </trkpt>
      <trkpt lat="46.64401" lon="6.02567">
        <ele>827.83</ele>
        <time>2022-07-30T08:20:35Z</time>
      </trkpt>
      <trkpt lat="46.64397" lon="6.02567">
        <ele>828.79</ele>
        <time>2022-07-30T08:20:36Z</time>
      </trkpt>
      <trkpt lat="46.64393" lon="6.02566">
        <ele>828.79</ele>
        <time>2022-07-30T08:20:37Z</time>
      </trkpt>
      <trkpt lat="46.64388" lon="6.02565">
        <ele>827.83</ele>
        <time>2022-07-30T08:20:38Z</time>
      </trkpt>
      <trkpt lat="46.64384" lon="6.02565">
        <ele>827.83</ele>
        <time>2022-07-30T08:20:39Z</time>
      </trkpt>
      <trkpt lat="46.64313" lon="6.02579">
        <ele>827.35</ele>
        <time>2022-07-30T08:20:56Z</time>
      </trkpt>
      <trkpt lat="46.64239" lon="6.02626">
        <ele>825.43</ele>
        <time>2022-07-30T08:21:13Z</time>
      </trkpt>
      <trkpt lat="46.64144" lon="6.02646">
        <ele>823.51</ele>
        <time>2022-07-30T08:21:29Z</time>
      </trkpt>
      <trkpt lat="46.64043" lon="6.0268">
        <ele>821.1</ele>
        <time>2022-07-30T08:21:45Z</time>
      </trkpt>
      <trkpt lat="46.63951" lon="6.02742">
        <ele>818.22</ele>
        <time>2022-07-30T08:21:59Z</time>
      </trkpt>
      <trkpt lat="46.63885" lon="6.0283">
        <ele>815.34</ele>
        <time>2022-07-30T08:22:10Z</time>
      </trkpt>
      <trkpt lat="46.63842" lon="6.02894">
        <ele>812.45</ele>
        <time>2022-07-30T08:22:18Z</time>
      </trkpt>
      <trkpt lat="46.63795" lon="6.03">
        <ele>810.05</ele>
        <time>2022-07-30T08:22:31Z</time>
      </trkpt>
      <trkpt lat="46.63788" lon="6.03015">
        <ele>809.57</ele>
        <time>2022-07-30T08:22:33Z</time>
      </trkpt>
      <trkpt lat="46.63784" lon="6.03022">
        <ele>809.57</ele>
        <time>2022-07-30T08:22:34Z</time>
      </trkpt>
      <trkpt lat="46.63779" lon="6.03026">
        <ele>809.57</ele>
        <time>2022-07-30T08:22:35Z</time>
      </trkpt>
      <trkpt lat="46.63773" lon="6.03028">
        <ele>808.61</ele>
        <time>2022-07-30T08:22:36Z</time>
      </trkpt>
      <trkpt lat="46.63766" lon="6.03029">
        <ele>808.61</ele>
        <time>2022-07-30T08:22:37Z</time>
      </trkpt>
      <trkpt lat="46.63759" lon="6.03029">
        <ele>808.61</ele>
        <time>2022-07-30T08:22:38Z</time>
      </trkpt>
      <trkpt lat="46.63731" lon="6.03029">
        <ele>806.68</ele>
        <time>2022-07-30T08:22:42Z</time>
      </trkpt>
      <trkpt lat="46.63688" lon="6.03034">
        <ele>806.2</ele>
        <time>2022-07-30T08:22:48Z</time>
      </trkpt>
      <trkpt lat="46.63681" lon="6.03037">
        <ele>806.2</ele>
        <time>2022-07-30T08:22:49Z</time>
      </trkpt>
      <trkpt lat="46.63674" lon="6.03041">
        <ele>805.72</ele>
        <time>2022-07-30T08:22:50Z</time>
      </trkpt>
      <trkpt lat="46.6367" lon="6.03046">
        <ele>806.2</ele>
        <time>2022-07-30T08:22:51Z</time>
      </trkpt>
      <trkpt lat="46.6367" lon="6.03056">
        <ele>806.68</ele>
        <time>2022-07-30T08:22:52Z</time>
      </trkpt>
      <trkpt lat="46.63672" lon="6.03065">
        <ele>805.72</ele>
        <time>2022-07-30T08:22:53Z</time>
      </trkpt>
      <trkpt lat="46.63673" lon="6.03072">
        <ele>806.2</ele>
        <time>2022-07-30T08:22:54Z</time>
      </trkpt>
      <trkpt lat="46.63676" lon="6.03077">
        <ele>805.72</ele>
        <time>2022-07-30T08:22:55Z</time>
      </trkpt>
      <trkpt lat="46.6368" lon="6.03082">
        <ele>806.68</ele>
        <time>2022-07-30T08:22:56Z</time>
      </trkpt>
      <trkpt lat="46.63684" lon="6.03087">
        <ele>806.68</ele>
        <time>2022-07-30T08:22:57Z</time>
      </trkpt>
      <trkpt lat="46.63688" lon="6.03093">
        <ele>807.16</ele>
        <time>2022-07-30T08:22:58Z</time>
      </trkpt>
      <trkpt lat="46.63718" lon="6.03162">
        <ele>807.64</ele>
        <time>2022-07-30T08:23:12Z</time>
      </trkpt>
      <trkpt lat="46.63724" lon="6.03189">
        <ele>807.64</ele>
        <time>2022-07-30T08:23:17Z</time>
      </trkpt>
      <trkpt lat="46.63724" lon="6.03195">
        <ele>807.64</ele>
        <time>2022-07-30T08:23:18Z</time>
      </trkpt>
      <trkpt lat="46.63722" lon="6.03245">
        <ele>806.2</ele>
        <time>2022-07-30T08:23:25Z</time>
      </trkpt>
      <trkpt lat="46.63739" lon="6.03351">
        <ele>803.8</ele>
        <time>2022-07-30T08:23:40Z</time>
      </trkpt>
      <trkpt lat="46.63753" lon="6.03387">
        <ele>803.8</ele>
        <time>2022-07-30T08:23:52Z</time>
      </trkpt>
      <trkpt lat="46.63753" lon="6.03387">
        <ele>803.8</ele>
        <time>2022-07-30T08:24:16Z</time>
      </trkpt>
      <trkpt lat="46.63752" lon="6.03389">
        <ele>804.28</ele>
        <time>2022-07-30T08:24:57Z</time>
      </trkpt>
      <trkpt lat="46.63756" lon="6.03392">
        <ele>803.32</ele>
        <time>2022-07-30T08:25:11Z</time>
      </trkpt>
      <trkpt lat="46.6376" lon="6.03398">
        <ele>803.8</ele>
        <time>2022-07-30T08:25:15Z</time>
      </trkpt>
      <trkpt lat="46.63761" lon="6.03401">
        <ele>803.32</ele>
        <time>2022-07-30T08:25:16Z</time>
      </trkpt>
      <trkpt lat="46.63763" lon="6.03403">
        <ele>804.28</ele>
        <time>2022-07-30T08:25:17Z</time>
      </trkpt>
      <trkpt lat="46.63765" lon="6.03406">
        <ele>803.8</ele>
        <time>2022-07-30T08:25:18Z</time>
      </trkpt>
      <trkpt lat="46.63766" lon="6.03408">
        <ele>804.28</ele>
        <time>2022-07-30T08:25:19Z</time>
      </trkpt>
      <trkpt lat="46.63768" lon="6.0341">
        <ele>803.8</ele>
        <time>2022-07-30T08:25:20Z</time>
      </trkpt>
      <trkpt lat="46.63794" lon="6.03453">
        <ele>804.76</ele>
        <time>2022-07-30T08:25:33Z</time>
      </trkpt>
      <trkpt lat="46.63824" lon="6.03497">
        <ele>806.68</ele>
        <time>2022-07-30T08:25:48Z</time>
      </trkpt>
      <trkpt lat="46.63851" lon="6.03515">
        <ele>808.13</ele>
        <time>2022-07-30T08:26:01Z</time>
      </trkpt>
      <trkpt lat="46.6388" lon="6.03523">
        <ele>811.01</ele>
        <time>2022-07-30T08:26:12Z</time>
      </trkpt>
      <trkpt lat="46.63908" lon="6.03525">
        <ele>811.49</ele>
        <time>2022-07-30T08:26:25Z</time>
      </trkpt>
      <trkpt lat="46.63943" lon="6.03531">
        <ele>813.41</ele>
        <time>2022-07-30T08:26:40Z</time>
      </trkpt>
      <trkpt lat="46.63979" lon="6.03566">
        <ele>813.89</ele>
        <time>2022-07-30T08:26:55Z</time>
      </trkpt>
      <trkpt lat="46.64013" lon="6.036">
        <ele>813.89</ele>
        <time>2022-07-30T08:27:07Z</time>
      </trkpt>
      <trkpt lat="46.64042" lon="6.0361">
        <ele>815.82</ele>
        <time>2022-07-30T08:27:19Z</time>
      </trkpt>
      <trkpt lat="46.64076" lon="6.03613">
        <ele>816.3</ele>
        <time>2022-07-30T08:27:33Z</time>
      </trkpt>
      <trkpt lat="46.6412" lon="6.03646">
        <ele>818.22</ele>
        <time>2022-07-30T08:27:49Z</time>
      </trkpt>
      <trkpt lat="46.64148" lon="6.0367">
        <ele>820.14</ele>
        <time>2022-07-30T08:28:03Z</time>
      </trkpt>
      <trkpt lat="46.64182" lon="6.037">
        <ele>823.03</ele>
        <time>2022-07-30T08:28:18Z</time>
      </trkpt>
      <trkpt lat="46.64214" lon="6.03703">
        <ele>823.51</ele>
        <time>2022-07-30T08:28:30Z</time>
      </trkpt>
      <trkpt lat="46.64253" lon="6.03705">
        <ele>824.95</ele>
        <time>2022-07-30T08:28:45Z</time>
      </trkpt>
      <trkpt lat="46.6429" lon="6.03717">
        <ele>826.87</ele>
        <time>2022-07-30T08:29:01Z</time>
      </trkpt>
      <trkpt lat="46.64318" lon="6.0374">
        <ele>829.76</ele>
        <time>2022-07-30T08:29:16Z</time>
      </trkpt>
      <trkpt lat="46.64342" lon="6.03768">
        <ele>831.2</ele>
        <time>2022-07-30T08:29:31Z</time>
      </trkpt>
      <trkpt lat="46.64371" lon="6.03817">
        <ele>833.6</ele>
        <time>2022-07-30T08:29:48Z</time>
      </trkpt>
      <trkpt lat="46.64388" lon="6.03854">
        <ele>835.04</ele>
        <time>2022-07-30T08:30:02Z</time>
      </trkpt>
      <trkpt lat="46.6441" lon="6.03901">
        <ele>837.45</ele>
        <time>2022-07-30T08:30:17Z</time>
      </trkpt>
      <trkpt lat="46.64426" lon="6.03954">
        <ele>839.37</ele>
        <time>2022-07-30T08:30:33Z</time>
      </trkpt>
      <trkpt lat="46.64446" lon="6.04004">
        <ele>840.33</ele>
        <time>2022-07-30T08:30:48Z</time>
      </trkpt>
      <trkpt lat="46.64463" lon="6.04054">
        <ele>841.77</ele>
        <time>2022-07-30T08:31:03Z</time>
      </trkpt>
      <trkpt lat="46.6448" lon="6.04111">
        <ele>843.69</ele>
        <time>2022-07-30T08:31:20Z</time>
      </trkpt>
      <trkpt lat="46.6449" lon="6.04171">
        <ele>845.62</ele>
        <time>2022-07-30T08:31:36Z</time>
      </trkpt>
      <trkpt lat="46.64496" lon="6.04235">
        <ele>847.06</ele>
        <time>2022-07-30T08:31:52Z</time>
      </trkpt>
      <trkpt lat="46.64511" lon="6.04298">
        <ele>848.98</ele>
        <time>2022-07-30T08:32:08Z</time>
      </trkpt>
      <trkpt lat="46.64527" lon="6.04355">
        <ele>850.42</ele>
        <time>2022-07-30T08:32:23Z</time>
      </trkpt>
      <trkpt lat="46.64539" lon="6.04429">
        <ele>852.35</ele>
        <time>2022-07-30T08:32:40Z</time>
      </trkpt>
      <trkpt lat="46.64548" lon="6.04505">
        <ele>854.75</ele>
        <time>2022-07-30T08:32:57Z</time>
      </trkpt>
      <trkpt lat="46.64549" lon="6.04567">
        <ele>855.71</ele>
        <time>2022-07-30T08:33:10Z</time>
      </trkpt>
      <trkpt lat="46.6454" lon="6.04665">
        <ele>855.23</ele>
        <time>2022-07-30T08:33:25Z</time>
      </trkpt>
      <trkpt lat="46.6454" lon="6.04723">
        <ele>855.23</ele>
        <time>2022-07-30T08:33:33Z</time>
      </trkpt>
      <trkpt lat="46.6454" lon="6.0473">
        <ele>855.23</ele>
        <time>2022-07-30T08:33:34Z</time>
      </trkpt>
      <trkpt lat="46.64542" lon="6.04819">
        <ele>855.23</ele>
        <time>2022-07-30T08:33:46Z</time>
      </trkpt>
      <trkpt lat="46.64568" lon="6.04942">
        <ele>855.71</ele>
        <time>2022-07-30T08:34:03Z</time>
      </trkpt>
      <trkpt lat="46.64592" lon="6.05018">
        <ele>854.75</ele>
        <time>2022-07-30T08:34:15Z</time>
      </trkpt>
      <trkpt lat="46.64594" lon="6.05024">
        <ele>854.75</ele>
        <time>2022-07-30T08:34:16Z</time>
      </trkpt>
      <trkpt lat="46.64604" lon="6.05048">
        <ele>854.75</ele>
        <time>2022-07-30T08:34:20Z</time>
      </trkpt>
      <trkpt lat="46.64617" lon="6.05115">
        <ele>854.75</ele>
        <time>2022-07-30T08:34:30Z</time>
      </trkpt>
      <trkpt lat="46.64619" lon="6.05121">
        <ele>854.27</ele>
        <time>2022-07-30T08:34:31Z</time>
      </trkpt>
      <trkpt lat="46.64629" lon="6.05143">
        <ele>855.23</ele>
        <time>2022-07-30T08:34:35Z</time>
      </trkpt>
      <trkpt lat="46.64679" lon="6.05231">
        <ele>854.27</ele>
        <time>2022-07-30T08:34:50Z</time>
      </trkpt>
      <trkpt lat="46.6471" lon="6.05326">
        <ele>854.27</ele>
        <time>2022-07-30T08:35:04Z</time>
      </trkpt>
      <trkpt lat="46.64763" lon="6.0539">
        <ele>854.75</ele>
        <time>2022-07-30T08:35:20Z</time>
      </trkpt>
      <trkpt lat="46.64795" lon="6.05459">
        <ele>855.71</ele>
        <time>2022-07-30T08:35:35Z</time>
      </trkpt>
      <trkpt lat="46.64819" lon="6.05515">
        <ele>856.67</ele>
        <time>2022-07-30T08:35:50Z</time>
      </trkpt>
      <trkpt lat="46.64861" lon="6.05583">
        <ele>858.11</ele>
        <time>2022-07-30T08:36:08Z</time>
      </trkpt>
      <trkpt lat="46.649" lon="6.05642">
        <ele>858.11</ele>
        <time>2022-07-30T08:36:23Z</time>
      </trkpt>
      <trkpt lat="46.64944" lon="6.05726">
        <ele>859.56</ele>
        <time>2022-07-30T08:36:42Z</time>
      </trkpt>
      <trkpt lat="46.64967" lon="6.05791">
        <ele>860.04</ele>
        <time>2022-07-30T08:36:57Z</time>
      </trkpt>
      <trkpt lat="46.64981" lon="6.05828">
        <ele>860.04</ele>
        <time>2022-07-30T08:37:12Z</time>
      </trkpt>
      <trkpt lat="46.64996" lon="6.05873">
        <ele>860.52</ele>
        <time>2022-07-30T08:37:25Z</time>
      </trkpt>
      <trkpt lat="46.65024" lon="6.05945">
        <ele>861.48</ele>
        <time>2022-07-30T08:37:42Z</time>
      </trkpt>
      <trkpt lat="46.65059" lon="6.05995">
        <ele>861.96</ele>
        <time>2022-07-30T08:37:56Z</time>
      </trkpt>
      <trkpt lat="46.65115" lon="6.06024">
        <ele>861.96</ele>
        <time>2022-07-30T08:38:10Z</time>
      </trkpt>
      <trkpt lat="46.65133" lon="6.06043">
        <ele>863.4</ele>
        <time>2022-07-30T08:38:15Z</time>
      </trkpt>
      <trkpt lat="46.65171" lon="6.06093">
        <ele>863.88</ele>
        <time>2022-07-30T08:38:29Z</time>
      </trkpt>
      <trkpt lat="46.65206" lon="6.06145">
        <ele>866.29</ele>
        <time>2022-07-30T08:38:46Z</time>
      </trkpt>
      <trkpt lat="46.65241" lon="6.06181">
        <ele>867.25</ele>
        <time>2022-07-30T08:39:01Z</time>
      </trkpt>
      <trkpt lat="46.65282" lon="6.06205">
        <ele>869.17</ele>
        <time>2022-07-30T08:39:18Z</time>
      </trkpt>
      <trkpt lat="46.65316" lon="6.06223">
        <ele>872.53</ele>
        <time>2022-07-30T08:39:33Z</time>
      </trkpt>
      <trkpt lat="46.65318" lon="6.06225">
        <ele>872.53</ele>
        <time>2022-07-30T08:39:34Z</time>
      </trkpt>
      <trkpt lat="46.65332" lon="6.06237">
        <ele>871.57</ele>
        <time>2022-07-30T08:39:40Z</time>
      </trkpt>
      <trkpt lat="46.6536" lon="6.06266">
        <ele>873.5</ele>
        <time>2022-07-30T08:39:54Z</time>
      </trkpt>
      <trkpt lat="46.65381" lon="6.06287">
        <ele>876.38</ele>
        <time>2022-07-30T08:40:05Z</time>
      </trkpt>
      <trkpt lat="46.65398" lon="6.06302">
        <ele>874.94</ele>
        <time>2022-07-30T08:40:14Z</time>
      </trkpt>
      <trkpt lat="46.65434" lon="6.06339">
        <ele>876.38</ele>
        <time>2022-07-30T08:40:33Z</time>
      </trkpt>
      <trkpt lat="46.65468" lon="6.06373">
        <ele>877.34</ele>
        <time>2022-07-30T08:40:50Z</time>
      </trkpt>
      <trkpt lat="46.65499" lon="6.06408">
        <ele>877.82</ele>
        <time>2022-07-30T08:41:03Z</time>
      </trkpt>
      <trkpt lat="46.65544" lon="6.06458">
        <ele>878.3</ele>
        <time>2022-07-30T08:41:19Z</time>
      </trkpt>
      <trkpt lat="46.65574" lon="6.06497">
        <ele>877.82</ele>
        <time>2022-07-30T08:41:32Z</time>
      </trkpt>
      <trkpt lat="46.65595" lon="6.06539">
        <ele>876.86</ele>
        <time>2022-07-30T08:41:47Z</time>
      </trkpt>
      <trkpt lat="46.65608" lon="6.06566">
        <ele>876.86</ele>
        <time>2022-07-30T08:41:53Z</time>
      </trkpt>
      <trkpt lat="46.6564" lon="6.06643">
        <ele>876.86</ele>
        <time>2022-07-30T08:42:07Z</time>
      </trkpt>
      <trkpt lat="46.65671" lon="6.06733">
        <ele>877.82</ele>
        <time>2022-07-30T08:42:24Z</time>
      </trkpt>
      <trkpt lat="46.65698" lon="6.06802">
        <ele>878.78</ele>
        <time>2022-07-30T08:42:41Z</time>
      </trkpt>
      <trkpt lat="46.65723" lon="6.06869">
        <ele>878.3</ele>
        <time>2022-07-30T08:42:55Z</time>
      </trkpt>
      <trkpt lat="46.6574" lon="6.06938">
        <ele>879.26</ele>
        <time>2022-07-30T08:43:10Z</time>
      </trkpt>
      <trkpt lat="46.65764" lon="6.07014">
        <ele>877.82</ele>
        <time>2022-07-30T08:43:26Z</time>
      </trkpt>
      <trkpt lat="46.65808" lon="6.071">
        <ele>876.86</ele>
        <time>2022-07-30T08:43:44Z</time>
      </trkpt>
      <trkpt lat="46.65823" lon="6.07132">
        <ele>875.9</ele>
        <time>2022-07-30T08:43:55Z</time>
      </trkpt>
      <trkpt lat="46.65824" lon="6.07128">
        <ele>875.42</ele>
        <time>2022-07-30T08:44:11Z</time>
      </trkpt>
      <trkpt lat="46.65823" lon="6.07128">
        <ele>874.94</ele>
        <time>2022-07-30T08:44:14Z</time>
      </trkpt>
      <trkpt lat="46.65824" lon="6.07132">
        <ele>874.94</ele>
        <time>2022-07-30T08:44:26Z</time>
      </trkpt>
      <trkpt lat="46.65825" lon="6.07134">
        <ele>874.94</ele>
        <time>2022-07-30T08:44:27Z</time>
      </trkpt>
      <trkpt lat="46.65826" lon="6.07136">
        <ele>874.94</ele>
        <time>2022-07-30T08:44:28Z</time>
      </trkpt>
      <trkpt lat="46.65827" lon="6.07138">
        <ele>874.94</ele>
        <time>2022-07-30T08:44:29Z</time>
      </trkpt>
      <trkpt lat="46.65828" lon="6.0714">
        <ele>874.94</ele>
        <time>2022-07-30T08:44:30Z</time>
      </trkpt>
      <trkpt lat="46.65829" lon="6.07143">
        <ele>874.94</ele>
        <time>2022-07-30T08:44:31Z</time>
      </trkpt>
      <trkpt lat="46.65857" lon="6.07193">
        <ele>874.46</ele>
        <time>2022-07-30T08:44:44Z</time>
      </trkpt>
      <trkpt lat="46.65889" lon="6.07255">
        <ele>874.46</ele>
        <time>2022-07-30T08:44:57Z</time>
      </trkpt>
      <trkpt lat="46.65892" lon="6.0726">
        <ele>874.46</ele>
        <time>2022-07-30T08:44:58Z</time>
      </trkpt>
      <trkpt lat="46.65918" lon="6.0731">
        <ele>875.42</ele>
        <time>2022-07-30T08:45:10Z</time>
      </trkpt>
      <trkpt lat="46.65925" lon="6.07322">
        <ele>873.98</ele>
        <time>2022-07-30T08:45:13Z</time>
      </trkpt>
      <trkpt lat="46.65961" lon="6.07395">
        <ele>874.94</ele>
        <time>2022-07-30T08:45:27Z</time>
      </trkpt>
      <trkpt lat="46.65974" lon="6.07425">
        <ele>874.94</ele>
        <time>2022-07-30T08:45:32Z</time>
      </trkpt>
      <trkpt lat="46.65983" lon="6.0749">
        <ele>874.94</ele>
        <time>2022-07-30T08:45:45Z</time>
      </trkpt>
      <trkpt lat="46.65985" lon="6.07537">
        <ele>874.46</ele>
        <time>2022-07-30T08:45:56Z</time>
      </trkpt>
      <trkpt lat="46.66005" lon="6.07565">
        <ele>874.46</ele>
        <time>2022-07-30T08:46:06Z</time>
      </trkpt>
      <trkpt lat="46.66043" lon="6.07598">
        <ele>876.38</ele>
        <time>2022-07-30T08:46:19Z</time>
      </trkpt>
      <trkpt lat="46.66076" lon="6.07626">
        <ele>877.82</ele>
        <time>2022-07-30T08:46:34Z</time>
      </trkpt>
      <trkpt lat="46.66107" lon="6.07655">
        <ele>879.26</ele>
        <time>2022-07-30T08:46:49Z</time>
      </trkpt>
      <trkpt lat="46.66111" lon="6.0766">
        <ele>880.22</ele>
        <time>2022-07-30T08:46:51Z</time>
      </trkpt>
      <trkpt lat="46.66139" lon="6.07697">
        <ele>883.59</ele>
        <time>2022-07-30T08:47:07Z</time>
      </trkpt>
      <trkpt lat="46.6615" lon="6.07716">
        <ele>884.55</ele>
        <time>2022-07-30T08:47:15Z</time>
      </trkpt>
      <trkpt lat="46.66156" lon="6.07725">
        <ele>885.51</ele>
        <time>2022-07-30T08:47:19Z</time>
      </trkpt>
      <trkpt lat="46.66172" lon="6.07762">
        <ele>886.95</ele>
        <time>2022-07-30T08:47:34Z</time>
      </trkpt>
      <trkpt lat="46.66192" lon="6.07823">
        <ele>888.88</ele>
        <time>2022-07-30T08:47:54Z</time>
      </trkpt>
      <trkpt lat="46.66214" lon="6.0788">
        <ele>889.84</ele>
        <time>2022-07-30T08:48:11Z</time>
      </trkpt>
      <trkpt lat="46.66227" lon="6.07938">
        <ele>890.32</ele>
        <time>2022-07-30T08:48:26Z</time>
      </trkpt>
      <trkpt lat="46.66241" lon="6.08002">
        <ele>890.8</ele>
        <time>2022-07-30T08:48:43Z</time>
      </trkpt>
      <trkpt lat="46.66245" lon="6.08012">
        <ele>890.8</ele>
        <time>2022-07-30T08:48:48Z</time>
      </trkpt>
      <trkpt lat="46.66246" lon="6.08015">
        <ele>890.32</ele>
        <time>2022-07-30T08:48:49Z</time>
      </trkpt>
      <trkpt lat="46.66247" lon="6.08018">
        <ele>890.32</ele>
        <time>2022-07-30T08:48:50Z</time>
      </trkpt>
      <trkpt lat="46.66248" lon="6.08022">
        <ele>890.32</ele>
        <time>2022-07-30T08:48:51Z</time>
      </trkpt>
      <trkpt lat="46.66249" lon="6.08025">
        <ele>889.84</ele>
        <time>2022-07-30T08:48:52Z</time>
      </trkpt>
      <trkpt lat="46.66251" lon="6.08041">
        <ele>891.76</ele>
        <time>2022-07-30T08:48:56Z</time>
      </trkpt>
      <trkpt lat="46.66263" lon="6.08105">
        <ele>896.09</ele>
        <time>2022-07-30T08:49:11Z</time>
      </trkpt>
      <trkpt lat="46.66264" lon="6.08109">
        <ele>895.61</ele>
        <time>2022-07-30T08:49:12Z</time>
      </trkpt>
      <trkpt lat="46.66265" lon="6.08117">
        <ele>894.16</ele>
        <time>2022-07-30T08:49:14Z</time>
      </trkpt>
      <trkpt lat="46.66279" lon="6.08195">
        <ele>894.16</ele>
        <time>2022-07-30T08:49:35Z</time>
      </trkpt>
      <trkpt lat="46.66293" lon="6.08264">
        <ele>895.61</ele>
        <time>2022-07-30T08:49:55Z</time>
      </trkpt>
      <trkpt lat="46.66307" lon="6.08329">
        <ele>896.57</ele>
        <time>2022-07-30T08:50:13Z</time>
      </trkpt>
      <trkpt lat="46.66334" lon="6.08391">
        <ele>898.49</ele>
        <time>2022-07-30T08:50:30Z</time>
      </trkpt>
      <trkpt lat="46.66375" lon="6.08426">
        <ele>899.93</ele>
        <time>2022-07-30T08:50:47Z</time>
      </trkpt>
      <trkpt lat="46.66414" lon="6.08443">
        <ele>901.37</ele>
        <time>2022-07-30T08:51:02Z</time>
      </trkpt>
      <trkpt lat="46.66449" lon="6.08479">
        <ele>901.85</ele>
        <time>2022-07-30T08:51:16Z</time>
      </trkpt>
      <trkpt lat="46.66485" lon="6.08519">
        <ele>902.82</ele>
        <time>2022-07-30T08:51:30Z</time>
      </trkpt>
      <trkpt lat="46.66518" lon="6.08563">
        <ele>904.26</ele>
        <time>2022-07-30T08:51:44Z</time>
      </trkpt>
      <trkpt lat="46.66544" lon="6.08619">
        <ele>905.7</ele>
        <time>2022-07-30T08:52:01Z</time>
      </trkpt>
      <trkpt lat="46.66566" lon="6.08685">
        <ele>907.14</ele>
        <time>2022-07-30T08:52:19Z</time>
      </trkpt>
      <trkpt lat="46.66595" lon="6.08738">
        <ele>909.06</ele>
        <time>2022-07-30T08:52:36Z</time>
      </trkpt>
      <trkpt lat="46.66623" lon="6.08796">
        <ele>911.47</ele>
        <time>2022-07-30T08:52:52Z</time>
      </trkpt>
      <trkpt lat="46.66646" lon="6.08844">
        <ele>912.43</ele>
        <time>2022-07-30T08:53:07Z</time>
      </trkpt>
      <trkpt lat="46.66669" lon="6.08885">
        <ele>914.35</ele>
        <time>2022-07-30T08:53:22Z</time>
      </trkpt>
      <trkpt lat="46.66695" lon="6.08928">
        <ele>915.79</ele>
        <time>2022-07-30T08:53:39Z</time>
      </trkpt>
      <trkpt lat="46.66707" lon="6.0895">
        <ele>916.75</ele>
        <time>2022-07-30T08:53:52Z</time>
      </trkpt>
      <trkpt lat="46.66703" lon="6.0895">
        <ele>916.27</ele>
        <time>2022-07-30T08:54:09Z</time>
      </trkpt>
      <trkpt lat="46.66705" lon="6.08957">
        <ele>916.75</ele>
        <time>2022-07-30T08:54:53Z</time>
      </trkpt>
      <trkpt lat="46.66706" lon="6.08956">
        <ele>916.27</ele>
        <time>2022-07-30T08:55:32Z</time>
      </trkpt>
      <trkpt lat="46.66708" lon="6.08955">
        <ele>916.27</ele>
        <time>2022-07-30T08:56:11Z</time>
      </trkpt>
      <trkpt lat="46.66709" lon="6.08957">
        <ele>916.75</ele>
        <time>2022-07-30T08:56:48Z</time>
      </trkpt>
      <trkpt lat="46.6671" lon="6.08961">
        <ele>917.24</ele>
        <time>2022-07-30T08:57:10Z</time>
      </trkpt>
      <trkpt lat="46.66709" lon="6.08962">
        <ele>916.75</ele>
        <time>2022-07-30T08:57:37Z</time>
      </trkpt>
      <trkpt lat="46.66711" lon="6.0896">
        <ele>917.24</ele>
        <time>2022-07-30T08:58:05Z</time>
      </trkpt>
      <trkpt lat="46.66708" lon="6.0896">
        <ele>917.24</ele>
        <time>2022-07-30T08:58:32Z</time>
      </trkpt>
      <trkpt lat="46.66709" lon="6.0896">
        <ele>917.72</ele>
        <time>2022-07-30T08:59:03Z</time>
      </trkpt>
      <trkpt lat="46.66711" lon="6.08964">
        <ele>917.72</ele>
        <time>2022-07-30T08:59:16Z</time>
      </trkpt>
      <trkpt lat="46.66711" lon="6.08965">
        <ele>918.68</ele>
        <time>2022-07-30T08:59:17Z</time>
      </trkpt>
      <trkpt lat="46.66713" lon="6.08965">
        <ele>919.64</ele>
        <time>2022-07-30T08:59:18Z</time>
      </trkpt>
      <trkpt lat="46.66714" lon="6.08966">
        <ele>918.2</ele>
        <time>2022-07-30T08:59:19Z</time>
      </trkpt>
      <trkpt lat="46.66716" lon="6.08965">
        <ele>918.68</ele>
        <time>2022-07-30T08:59:20Z</time>
      </trkpt>
      <trkpt lat="46.66717" lon="6.08966">
        <ele>918.68</ele>
        <time>2022-07-30T08:59:21Z</time>
      </trkpt>
      <trkpt lat="46.66719" lon="6.08967">
        <ele>919.16</ele>
        <time>2022-07-30T08:59:22Z</time>
      </trkpt>
      <trkpt lat="46.6672" lon="6.08968">
        <ele>918.2</ele>
        <time>2022-07-30T08:59:23Z</time>
      </trkpt>
      <trkpt lat="46.66721" lon="6.0897">
        <ele>919.16</ele>
        <time>2022-07-30T08:59:24Z</time>
      </trkpt>
      <trkpt lat="46.66722" lon="6.08972">
        <ele>919.64</ele>
        <time>2022-07-30T08:59:25Z</time>
      </trkpt>
      <trkpt lat="46.66732" lon="6.0899">
        <ele>923.48</ele>
        <time>2022-07-30T08:59:33Z</time>
      </trkpt>
      <trkpt lat="46.66737" lon="6.09">
        <ele>919.64</ele>
        <time>2022-07-30T08:59:37Z</time>
      </trkpt>
      <trkpt lat="46.66759" lon="6.09049">
        <ele>922.04</ele>
        <time>2022-07-30T08:59:56Z</time>
      </trkpt>
      <trkpt lat="46.66777" lon="6.09096">
        <ele>923</ele>
        <time>2022-07-30T09:00:13Z</time>
      </trkpt>
      <trkpt lat="46.66791" lon="6.09138">
        <ele>925.41</ele>
        <time>2022-07-30T09:00:30Z</time>
      </trkpt>
      <trkpt lat="46.66797" lon="6.09154">
        <ele>925.89</ele>
        <time>2022-07-30T09:00:43Z</time>
      </trkpt>
      <trkpt lat="46.66803" lon="6.09177">
        <ele>926.37</ele>
        <time>2022-07-30T09:00:56Z</time>
      </trkpt>
      <trkpt lat="46.66804" lon="6.09178">
        <ele>927.33</ele>
        <time>2022-07-30T09:00:57Z</time>
      </trkpt>
      <trkpt lat="46.66805" lon="6.09179">
        <ele>926.85</ele>
        <time>2022-07-30T09:00:58Z</time>
      </trkpt>
      <trkpt lat="46.66809" lon="6.09185">
        <ele>927.33</ele>
        <time>2022-07-30T09:01:07Z</time>
      </trkpt>
      <trkpt lat="46.66812" lon="6.09197">
        <ele>927.81</ele>
        <time>2022-07-30T09:01:12Z</time>
      </trkpt>
      <trkpt lat="46.66814" lon="6.092">
        <ele>927.81</ele>
        <time>2022-07-30T09:01:13Z</time>
      </trkpt>
      <trkpt lat="46.66832" lon="6.09244">
        <ele>929.73</ele>
        <time>2022-07-30T09:01:29Z</time>
      </trkpt>
      <trkpt lat="46.66851" lon="6.09292">
        <ele>931.65</ele>
        <time>2022-07-30T09:01:47Z</time>
      </trkpt>
      <trkpt lat="46.66875" lon="6.0934">
        <ele>933.58</ele>
        <time>2022-07-30T09:02:05Z</time>
      </trkpt>
      <trkpt lat="46.66907" lon="6.09376">
        <ele>934.54</ele>
        <time>2022-07-30T09:02:23Z</time>
      </trkpt>
      <trkpt lat="46.66943" lon="6.09406">
        <ele>936.94</ele>
        <time>2022-07-30T09:02:40Z</time>
      </trkpt>
      <trkpt lat="46.6695" lon="6.09448">
        <ele>938.86</ele>
        <time>2022-07-30T09:02:53Z</time>
      </trkpt>
      <trkpt lat="46.66939" lon="6.09506">
        <ele>941.27</ele>
        <time>2022-07-30T09:03:11Z</time>
      </trkpt>
      <trkpt lat="46.66936" lon="6.09569">
        <ele>943.19</ele>
        <time>2022-07-30T09:03:29Z</time>
      </trkpt>
      <trkpt lat="46.66947" lon="6.09627">
        <ele>945.59</ele>
        <time>2022-07-30T09:03:47Z</time>
      </trkpt>
      <trkpt lat="46.66961" lon="6.09684">
        <ele>946.56</ele>
        <time>2022-07-30T09:04:05Z</time>
      </trkpt>
      <trkpt lat="46.66949" lon="6.0973">
        <ele>949.44</ele>
        <time>2022-07-30T09:04:21Z</time>
      </trkpt>
      <trkpt lat="46.66925" lon="6.0975">
        <ele>950.88</ele>
        <time>2022-07-30T09:04:34Z</time>
      </trkpt>
      <trkpt lat="46.6692" lon="6.09753">
        <ele>951.36</ele>
        <time>2022-07-30T09:04:37Z</time>
      </trkpt>
      <trkpt lat="46.6692" lon="6.09751">
        <ele>951.84</ele>
        <time>2022-07-30T09:04:52Z</time>
      </trkpt>
      <trkpt lat="46.66923" lon="6.09751">
        <ele>950.88</ele>
        <time>2022-07-30T09:05:28Z</time>
      </trkpt>
      <trkpt lat="46.66921" lon="6.09754">
        <ele>951.36</ele>
        <time>2022-07-30T09:05:44Z</time>
      </trkpt>
      <trkpt lat="46.66919" lon="6.09755">
        <ele>951.36</ele>
        <time>2022-07-30T09:05:45Z</time>
      </trkpt>
      <trkpt lat="46.66917" lon="6.09757">
        <ele>951.84</ele>
        <time>2022-07-30T09:05:46Z</time>
      </trkpt>
      <trkpt lat="46.66895" lon="6.09797">
        <ele>953.77</ele>
        <time>2022-07-30T09:06:00Z</time>
      </trkpt>
      <trkpt lat="46.66896" lon="6.09846">
        <ele>955.21</ele>
        <time>2022-07-30T09:06:15Z</time>
      </trkpt>
      <trkpt lat="46.66914" lon="6.09901">
        <ele>957.61</ele>
        <time>2022-07-30T09:06:32Z</time>
      </trkpt>
      <trkpt lat="46.66931" lon="6.09951">
        <ele>959.53</ele>
        <time>2022-07-30T09:06:46Z</time>
      </trkpt>
      <trkpt lat="46.66946" lon="6.10013">
        <ele>962.42</ele>
        <time>2022-07-30T09:07:04Z</time>
      </trkpt>
      <trkpt lat="46.66966" lon="6.10063">
        <ele>963.86</ele>
        <time>2022-07-30T09:07:20Z</time>
      </trkpt>
      <trkpt lat="46.66989" lon="6.10118">
        <ele>965.78</ele>
        <time>2022-07-30T09:07:37Z</time>
      </trkpt>
      <trkpt lat="46.67011" lon="6.10178">
        <ele>967.7</ele>
        <time>2022-07-30T09:07:55Z</time>
      </trkpt>
      <trkpt lat="46.67028" lon="6.10213">
        <ele>969.63</ele>
        <time>2022-07-30T09:08:08Z</time>
      </trkpt>
      <trkpt lat="46.67043" lon="6.10245">
        <ele>970.59</ele>
        <time>2022-07-30T09:08:22Z</time>
      </trkpt>
      <trkpt lat="46.67046" lon="6.10293">
        <ele>972.51</ele>
        <time>2022-07-30T09:08:37Z</time>
      </trkpt>
      <trkpt lat="46.67062" lon="6.10343">
        <ele>974.91</ele>
        <time>2022-07-30T09:08:54Z</time>
      </trkpt>
      <trkpt lat="46.67091" lon="6.10367">
        <ele>976.36</ele>
        <time>2022-07-30T09:09:09Z</time>
      </trkpt>
      <trkpt lat="46.67125" lon="6.10399">
        <ele>977.8</ele>
        <time>2022-07-30T09:09:27Z</time>
      </trkpt>
      <trkpt lat="46.67137" lon="6.1044">
        <ele>979.24</ele>
        <time>2022-07-30T09:09:41Z</time>
      </trkpt>
      <trkpt lat="46.67145" lon="6.1048">
        <ele>981.64</ele>
        <time>2022-07-30T09:09:54Z</time>
      </trkpt>
      <trkpt lat="46.67165" lon="6.10525">
        <ele>983.09</ele>
        <time>2022-07-30T09:10:12Z</time>
      </trkpt>
      <trkpt lat="46.67185" lon="6.10575">
        <ele>985.49</ele>
        <time>2022-07-30T09:10:29Z</time>
      </trkpt>
      <trkpt lat="46.67198" lon="6.1063">
        <ele>987.41</ele>
        <time>2022-07-30T09:10:50Z</time>
      </trkpt>
      <trkpt lat="46.6721" lon="6.10675">
        <ele>988.85</ele>
        <time>2022-07-30T09:11:08Z</time>
      </trkpt>
      <trkpt lat="46.67206" lon="6.10728">
        <ele>991.26</ele>
        <time>2022-07-30T09:11:27Z</time>
      </trkpt>
      <trkpt lat="46.67182" lon="6.10765">
        <ele>993.18</ele>
        <time>2022-07-30T09:11:44Z</time>
      </trkpt>
      <trkpt lat="46.67169" lon="6.10795">
        <ele>995.1</ele>
        <time>2022-07-30T09:11:55Z</time>
      </trkpt>
      <trkpt lat="46.67164" lon="6.10821">
        <ele>995.58</ele>
        <time>2022-07-30T09:12:08Z</time>
      </trkpt>
      <trkpt lat="46.67163" lon="6.10817">
        <ele>995.58</ele>
        <time>2022-07-30T09:12:35Z</time>
      </trkpt>
      <trkpt lat="46.67165" lon="6.10839">
        <ele>995.58</ele>
        <time>2022-07-30T09:12:52Z</time>
      </trkpt>
      <trkpt lat="46.67172" lon="6.10891">
        <ele>997.51</ele>
        <time>2022-07-30T09:13:10Z</time>
      </trkpt>
      <trkpt lat="46.67179" lon="6.10948">
        <ele>999.91</ele>
        <time>2022-07-30T09:13:29Z</time>
      </trkpt>
      <trkpt lat="46.67191" lon="6.11018">
        <ele>1002.31</ele>
        <time>2022-07-30T09:13:49Z</time>
      </trkpt>
      <trkpt lat="46.67201" lon="6.11085">
        <ele>1004.72</ele>
        <time>2022-07-30T09:14:07Z</time>
      </trkpt>
      <trkpt lat="46.67214" lon="6.1116">
        <ele>1007.12</ele>
        <time>2022-07-30T09:14:28Z</time>
      </trkpt>
      <trkpt lat="46.67216" lon="6.11214">
        <ele>1010</ele>
        <time>2022-07-30T09:14:44Z</time>
      </trkpt>
      <trkpt lat="46.67211" lon="6.11275">
        <ele>1012.89</ele>
        <time>2022-07-30T09:15:01Z</time>
      </trkpt>
      <trkpt lat="46.67206" lon="6.11343">
        <ele>1015.29</ele>
        <time>2022-07-30T09:15:20Z</time>
      </trkpt>
      <trkpt lat="46.67219" lon="6.11408">
        <ele>1018.17</ele>
        <time>2022-07-30T09:15:38Z</time>
      </trkpt>
      <trkpt lat="46.6723" lon="6.11464">
        <ele>1021.54</ele>
        <time>2022-07-30T09:15:54Z</time>
      </trkpt>
      <trkpt lat="46.67254" lon="6.11518">
        <ele>1023.46</ele>
        <time>2022-07-30T09:16:12Z</time>
      </trkpt>
      <trkpt lat="46.67285" lon="6.11558">
        <ele>1025.38</ele>
        <time>2022-07-30T09:16:30Z</time>
      </trkpt>
      <trkpt lat="46.67288" lon="6.11559">
        <ele>1024.9</ele>
        <time>2022-07-30T09:16:45Z</time>
      </trkpt>
      <trkpt lat="46.673" lon="6.11573">
        <ele>1025.86</ele>
        <time>2022-07-30T09:17:04Z</time>
      </trkpt>
      <trkpt lat="46.67321" lon="6.11609">
        <ele>1025.38</ele>
        <time>2022-07-30T09:17:17Z</time>
      </trkpt>
      <trkpt lat="46.67333" lon="6.11695">
        <ele>1023.94</ele>
        <time>2022-07-30T09:17:31Z</time>
      </trkpt>
      <trkpt lat="46.6734" lon="6.11776">
        <ele>1020.1</ele>
        <time>2022-07-30T09:17:39Z</time>
      </trkpt>
      <trkpt lat="46.67343" lon="6.11822">
        <ele>1018.65</ele>
        <time>2022-07-30T09:17:43Z</time>
      </trkpt>
      <trkpt lat="46.67349" lon="6.11857">
        <ele>1017.69</ele>
        <time>2022-07-30T09:17:46Z</time>
      </trkpt>
      <trkpt lat="46.67353" lon="6.11868">
        <ele>1017.21</ele>
        <time>2022-07-30T09:17:47Z</time>
      </trkpt>
      <trkpt lat="46.67366" lon="6.11901">
        <ele>1015.29</ele>
        <time>2022-07-30T09:17:50Z</time>
      </trkpt>
      <trkpt lat="46.67384" lon="6.11945">
        <ele>1011.93</ele>
        <time>2022-07-30T09:17:54Z</time>
      </trkpt>
      <trkpt lat="46.67407" lon="6.12001">
        <ele>1008.56</ele>
        <time>2022-07-30T09:17:59Z</time>
      </trkpt>
      <trkpt lat="46.67417" lon="6.12024">
        <ele>1009.04</ele>
        <time>2022-07-30T09:18:01Z</time>
      </trkpt>
      <trkpt lat="46.67423" lon="6.12033">
        <ele>1008.08</ele>
        <time>2022-07-30T09:18:02Z</time>
      </trkpt>
      <trkpt lat="46.67431" lon="6.12042">
        <ele>1008.08</ele>
        <time>2022-07-30T09:18:03Z</time>
      </trkpt>
      <trkpt lat="46.67438" lon="6.12049">
        <ele>1006.64</ele>
        <time>2022-07-30T09:18:04Z</time>
      </trkpt>
      <trkpt lat="46.67447" lon="6.12056">
        <ele>1006.16</ele>
        <time>2022-07-30T09:18:05Z</time>
      </trkpt>
      <trkpt lat="46.67456" lon="6.1206">
        <ele>1005.68</ele>
        <time>2022-07-30T09:18:06Z</time>
      </trkpt>
      <trkpt lat="46.67465" lon="6.12061">
        <ele>1005.68</ele>
        <time>2022-07-30T09:18:07Z</time>
      </trkpt>
      <trkpt lat="46.67475" lon="6.12061">
        <ele>1005.2</ele>
        <time>2022-07-30T09:18:08Z</time>
      </trkpt>
      <trkpt lat="46.67485" lon="6.1206">
        <ele>1005.68</ele>
        <time>2022-07-30T09:18:09Z</time>
      </trkpt>
      <trkpt lat="46.67514" lon="6.12056">
        <ele>1003.75</ele>
        <time>2022-07-30T09:18:12Z</time>
      </trkpt>
      <trkpt lat="46.67534" lon="6.12055">
        <ele>1002.31</ele>
        <time>2022-07-30T09:18:14Z</time>
      </trkpt>
      <trkpt lat="46.67543" lon="6.12056">
        <ele>1001.83</ele>
        <time>2022-07-30T09:18:15Z</time>
      </trkpt>
      <trkpt lat="46.67553" lon="6.12058">
        <ele>1001.35</ele>
        <time>2022-07-30T09:18:16Z</time>
      </trkpt>
      <trkpt lat="46.67563" lon="6.12063">
        <ele>1001.35</ele>
        <time>2022-07-30T09:18:17Z</time>
      </trkpt>
      <trkpt lat="46.67572" lon="6.12068">
        <ele>1000.87</ele>
        <time>2022-07-30T09:18:18Z</time>
      </trkpt>
      <trkpt lat="46.67581" lon="6.12074">
        <ele>1000.39</ele>
        <time>2022-07-30T09:18:19Z</time>
      </trkpt>
      <trkpt lat="46.67657" lon="6.12132">
        <ele>1001.83</ele>
        <time>2022-07-30T09:18:30Z</time>
      </trkpt>
      <trkpt lat="46.67685" lon="6.12173">
        <ele>1004.23</ele>
        <time>2022-07-30T09:18:41Z</time>
      </trkpt>
      <trkpt lat="46.67725" lon="6.1226">
        <ele>1006.16</ele>
        <time>2022-07-30T09:19:05Z</time>
      </trkpt>
      <trkpt lat="46.67761" lon="6.12342">
        <ele>1007.12</ele>
        <time>2022-07-30T09:19:27Z</time>
      </trkpt>
      <trkpt lat="46.67802" lon="6.12422">
        <ele>1007.12</ele>
        <time>2022-07-30T09:19:50Z</time>
      </trkpt>
      <trkpt lat="46.67829" lon="6.12471">
        <ele>1006.64</ele>
        <time>2022-07-30T09:20:07Z</time>
      </trkpt>
      <trkpt lat="46.67868" lon="6.12546">
        <ele>1007.6</ele>
        <time>2022-07-30T09:20:27Z</time>
      </trkpt>
      <trkpt lat="46.67914" lon="6.12639">
        <ele>1007.6</ele>
        <time>2022-07-30T09:20:47Z</time>
      </trkpt>
      <trkpt lat="46.67955" lon="6.12743">
        <ele>1005.68</ele>
        <time>2022-07-30T09:21:06Z</time>
      </trkpt>
      <trkpt lat="46.67981" lon="6.12882">
        <ele>1004.23</ele>
        <time>2022-07-30T09:21:26Z</time>
      </trkpt>
      <trkpt lat="46.67982" lon="6.12933">
        <ele>1004.72</ele>
        <time>2022-07-30T09:21:33Z</time>
      </trkpt>
      <trkpt lat="46.67967" lon="6.13052">
        <ele>1001.35</ele>
        <time>2022-07-30T09:21:51Z</time>
      </trkpt>
      <trkpt lat="46.67948" lon="6.13144">
        <ele>1000.87</ele>
        <time>2022-07-30T09:22:04Z</time>
      </trkpt>
      <trkpt lat="46.67947" lon="6.13152">
        <ele>1000.39</ele>
        <time>2022-07-30T09:22:05Z</time>
      </trkpt>
      <trkpt lat="46.6795" lon="6.13266">
        <ele>998.47</ele>
        <time>2022-07-30T09:22:21Z</time>
      </trkpt>
      <trkpt lat="46.67959" lon="6.13297">
        <ele>998.95</ele>
        <time>2022-07-30T09:22:26Z</time>
      </trkpt>
      <trkpt lat="46.67966" lon="6.13314">
        <ele>998.95</ele>
        <time>2022-07-30T09:22:29Z</time>
      </trkpt>
      <trkpt lat="46.67993" lon="6.13357">
        <ele>999.91</ele>
        <time>2022-07-30T09:22:41Z</time>
      </trkpt>
      <trkpt lat="46.68022" lon="6.13392">
        <ele>1001.83</ele>
        <time>2022-07-30T09:22:54Z</time>
      </trkpt>
      <trkpt lat="46.68058" lon="6.1342">
        <ele>1001.35</ele>
        <time>2022-07-30T09:23:05Z</time>
      </trkpt>
      <trkpt lat="46.68083" lon="6.13436">
        <ele>1001.35</ele>
        <time>2022-07-30T09:23:10Z</time>
      </trkpt>
      <trkpt lat="46.68088" lon="6.13438">
        <ele>1000.39</ele>
        <time>2022-07-30T09:23:11Z</time>
      </trkpt>
      <trkpt lat="46.68093" lon="6.13439">
        <ele>999.91</ele>
        <time>2022-07-30T09:23:12Z</time>
      </trkpt>
      <trkpt lat="46.68157" lon="6.13455">
        <ele>999.91</ele>
        <time>2022-07-30T09:23:25Z</time>
      </trkpt>
      <trkpt lat="46.68166" lon="6.13455">
        <ele>1000.39</ele>
        <time>2022-07-30T09:23:27Z</time>
      </trkpt>
      <trkpt lat="46.68171" lon="6.13455">
        <ele>999.91</ele>
        <time>2022-07-30T09:23:28Z</time>
      </trkpt>
      <trkpt lat="46.68189" lon="6.13446">
        <ele>999.91</ele>
        <time>2022-07-30T09:23:32Z</time>
      </trkpt>
      <trkpt lat="46.68247" lon="6.13451">
        <ele>1000.39</ele>
        <time>2022-07-30T09:23:45Z</time>
      </trkpt>
      <trkpt lat="46.68317" lon="6.13491">
        <ele>999.43</ele>
        <time>2022-07-30T09:24:02Z</time>
      </trkpt>
      <trkpt lat="46.68389" lon="6.13556">
        <ele>1000.87</ele>
        <time>2022-07-30T09:24:22Z</time>
      </trkpt>
      <trkpt lat="46.68435" lon="6.1362">
        <ele>1003.27</ele>
        <time>2022-07-30T09:24:40Z</time>
      </trkpt>
      <trkpt lat="46.68474" lon="6.13702">
        <ele>1005.68</ele>
        <time>2022-07-30T09:25:02Z</time>
      </trkpt>
      <trkpt lat="46.68476" lon="6.13703">
        <ele>1006.64</ele>
        <time>2022-07-30T09:25:03Z</time>
      </trkpt>
      <trkpt lat="46.68479" lon="6.13705">
        <ele>1006.16</ele>
        <time>2022-07-30T09:25:04Z</time>
      </trkpt>
      <trkpt lat="46.68482" lon="6.13705">
        <ele>1006.16</ele>
        <time>2022-07-30T09:25:05Z</time>
      </trkpt>
      <trkpt lat="46.68484" lon="6.13705">
        <ele>1006.64</ele>
        <time>2022-07-30T09:25:06Z</time>
      </trkpt>
      <trkpt lat="46.68486" lon="6.13704">
        <ele>1007.12</ele>
        <time>2022-07-30T09:25:07Z</time>
      </trkpt>
      <trkpt lat="46.68488" lon="6.13704">
        <ele>1007.12</ele>
        <time>2022-07-30T09:25:08Z</time>
      </trkpt>
      <trkpt lat="46.6852" lon="6.13694">
        <ele>1009.52</ele>
        <time>2022-07-30T09:25:26Z</time>
      </trkpt>
      <trkpt lat="46.6855" lon="6.13717">
        <ele>1012.41</ele>
        <time>2022-07-30T09:25:46Z</time>
      </trkpt>
      <trkpt lat="46.68569" lon="6.13759">
        <ele>1014.33</ele>
        <time>2022-07-30T09:26:05Z</time>
      </trkpt>
      <trkpt lat="46.68585" lon="6.13789">
        <ele>1016.73</ele>
        <time>2022-07-30T09:26:23Z</time>
      </trkpt>
      <trkpt lat="46.686" lon="6.13824">
        <ele>1017.21</ele>
        <time>2022-07-30T09:26:41Z</time>
      </trkpt>
      <trkpt lat="46.68609" lon="6.13846">
        <ele>1019.13</ele>
        <time>2022-07-30T09:26:49Z</time>
      </trkpt>
      <trkpt lat="46.68632" lon="6.13895">
        <ele>1019.62</ele>
        <time>2022-07-30T09:27:08Z</time>
      </trkpt>
      <trkpt lat="46.68655" lon="6.13937">
        <ele>1021.06</ele>
        <time>2022-07-30T09:27:25Z</time>
      </trkpt>
      <trkpt lat="46.68687" lon="6.13997">
        <ele>1022.98</ele>
        <time>2022-07-30T09:27:49Z</time>
      </trkpt>
      <trkpt lat="46.68708" lon="6.1404">
        <ele>1025.38</ele>
        <time>2022-07-30T09:28:06Z</time>
      </trkpt>
      <trkpt lat="46.68734" lon="6.14085">
        <ele>1027.31</ele>
        <time>2022-07-30T09:28:26Z</time>
      </trkpt>
      <trkpt lat="46.68767" lon="6.14083">
        <ele>1029.23</ele>
        <time>2022-07-30T09:28:42Z</time>
      </trkpt>
      <trkpt lat="46.68782" lon="6.14041">
        <ele>1030.67</ele>
        <time>2022-07-30T09:28:55Z</time>
      </trkpt>
      <trkpt lat="46.68808" lon="6.14003">
        <ele>1034.04</ele>
        <time>2022-07-30T09:29:11Z</time>
      </trkpt>
      <trkpt lat="46.6881" lon="6.14002">
        <ele>1034.04</ele>
        <time>2022-07-30T09:29:12Z</time>
      </trkpt>
      <trkpt lat="46.68844" lon="6.13992">
        <ele>1034.52</ele>
        <time>2022-07-30T09:29:27Z</time>
      </trkpt>
      <trkpt lat="46.68898" lon="6.13995">
        <ele>1034.04</ele>
        <time>2022-07-30T09:29:42Z</time>
      </trkpt>
      <trkpt lat="46.68966" lon="6.13964">
        <ele>1033.55</ele>
        <time>2022-07-30T09:30:00Z</time>
      </trkpt>
      <trkpt lat="46.69047" lon="6.13907">
        <ele>1033.55</ele>
        <time>2022-07-30T09:30:20Z</time>
      </trkpt>
      <trkpt lat="46.6913" lon="6.13844">
        <ele>1034.04</ele>
        <time>2022-07-30T09:30:40Z</time>
      </trkpt>
      <trkpt lat="46.69147" lon="6.1383">
        <ele>1031.63</ele>
        <time>2022-07-30T09:30:44Z</time>
      </trkpt>
      <trkpt lat="46.69169" lon="6.13811">
        <ele>1033.55</ele>
        <time>2022-07-30T09:30:49Z</time>
      </trkpt>
      <trkpt lat="46.69257" lon="6.13743">
        <ele>1031.15</ele>
        <time>2022-07-30T09:31:09Z</time>
      </trkpt>
      <trkpt lat="46.69312" lon="6.13703">
        <ele>1032.11</ele>
        <time>2022-07-30T09:31:24Z</time>
      </trkpt>
      <trkpt lat="46.69346" lon="6.13693">
        <ele>1033.55</ele>
        <time>2022-07-30T09:31:38Z</time>
      </trkpt>
      <trkpt lat="46.69393" lon="6.13689">
        <ele>1034.04</ele>
        <time>2022-07-30T09:31:53Z</time>
      </trkpt>
      <trkpt lat="46.69454" lon="6.13696">
        <ele>1034.52</ele>
        <time>2022-07-30T09:32:08Z</time>
      </trkpt>
      <trkpt lat="46.69509" lon="6.13704">
        <ele>1035</ele>
        <time>2022-07-30T09:32:21Z</time>
      </trkpt>
      <trkpt lat="46.69551" lon="6.13706">
        <ele>1035</ele>
        <time>2022-07-30T09:32:30Z</time>
      </trkpt>
      <trkpt lat="46.69611" lon="6.13712">
        <ele>1037.88</ele>
        <time>2022-07-30T09:32:46Z</time>
      </trkpt>
      <trkpt lat="46.69645" lon="6.13709">
        <ele>1038.84</ele>
        <time>2022-07-30T09:32:59Z</time>
      </trkpt>
      <trkpt lat="46.69678" lon="6.13689">
        <ele>1040.76</ele>
        <time>2022-07-30T09:33:13Z</time>
      </trkpt>
      <trkpt lat="46.6971" lon="6.13663">
        <ele>1042.21</ele>
        <time>2022-07-30T09:33:28Z</time>
      </trkpt>
      <trkpt lat="46.69744" lon="6.13627">
        <ele>1044.61</ele>
        <time>2022-07-30T09:33:44Z</time>
      </trkpt>
      <trkpt lat="46.69778" lon="6.13591">
        <ele>1045.57</ele>
        <time>2022-07-30T09:33:58Z</time>
      </trkpt>
      <trkpt lat="46.69799" lon="6.13567">
        <ele>1047.49</ele>
        <time>2022-07-30T09:34:10Z</time>
      </trkpt>
      <trkpt lat="46.69812" lon="6.13528">
        <ele>1049.9</ele>
        <time>2022-07-30T09:34:23Z</time>
      </trkpt>
      <trkpt lat="46.69826" lon="6.13486">
        <ele>1052.3</ele>
        <time>2022-07-30T09:34:40Z</time>
      </trkpt>
      <trkpt lat="46.6984" lon="6.13444">
        <ele>1054.22</ele>
        <time>2022-07-30T09:34:57Z</time>
      </trkpt>
      <trkpt lat="46.69846" lon="6.13426">
        <ele>1055.18</ele>
        <time>2022-07-30T09:35:04Z</time>
      </trkpt>
      <trkpt lat="46.69847" lon="6.13424">
        <ele>1054.7</ele>
        <time>2022-07-30T09:35:05Z</time>
      </trkpt>
      <trkpt lat="46.69848" lon="6.13421">
        <ele>1055.67</ele>
        <time>2022-07-30T09:35:06Z</time>
      </trkpt>
      <trkpt lat="46.69849" lon="6.13419">
        <ele>1055.67</ele>
        <time>2022-07-30T09:35:07Z</time>
      </trkpt>
      <trkpt lat="46.6985" lon="6.13417">
        <ele>1055.18</ele>
        <time>2022-07-30T09:35:08Z</time>
      </trkpt>
      <trkpt lat="46.6985" lon="6.13415">
        <ele>1055.67</ele>
        <time>2022-07-30T09:35:09Z</time>
      </trkpt>
      <trkpt lat="46.69851" lon="6.13413">
        <ele>1055.67</ele>
        <time>2022-07-30T09:35:10Z</time>
      </trkpt>
      <trkpt lat="46.69868" lon="6.13367">
        <ele>1057.59</ele>
        <time>2022-07-30T09:35:27Z</time>
      </trkpt>
      <trkpt lat="46.69894" lon="6.13333">
        <ele>1058.07</ele>
        <time>2022-07-30T09:35:41Z</time>
      </trkpt>
      <trkpt lat="46.6993" lon="6.13295">
        <ele>1059.51</ele>
        <time>2022-07-30T09:35:57Z</time>
      </trkpt>
      <trkpt lat="46.6997" lon="6.13259">
        <ele>1060.47</ele>
        <time>2022-07-30T09:36:12Z</time>
      </trkpt>
      <trkpt lat="46.69994" lon="6.13242">
        <ele>1060.47</ele>
        <time>2022-07-30T09:36:20Z</time>
      </trkpt>
      <trkpt lat="46.70055" lon="6.13233">
        <ele>1062.39</ele>
        <time>2022-07-30T09:36:34Z</time>
      </trkpt>
      <trkpt lat="46.70072" lon="6.13238">
        <ele>1060.95</ele>
        <time>2022-07-30T09:36:37Z</time>
      </trkpt>
      <trkpt lat="46.70084" lon="6.13243">
        <ele>1059.51</ele>
        <time>2022-07-30T09:36:39Z</time>
      </trkpt>
      <trkpt lat="46.7009" lon="6.13246">
        <ele>1059.51</ele>
        <time>2022-07-30T09:36:40Z</time>
      </trkpt>
      <trkpt lat="46.70097" lon="6.13251">
        <ele>1058.55</ele>
        <time>2022-07-30T09:36:41Z</time>
      </trkpt>
      <trkpt lat="46.70103" lon="6.13256">
        <ele>1057.59</ele>
        <time>2022-07-30T09:36:42Z</time>
      </trkpt>
      <trkpt lat="46.70109" lon="6.13262">
        <ele>1057.59</ele>
        <time>2022-07-30T09:36:43Z</time>
      </trkpt>
      <trkpt lat="46.70141" lon="6.13304">
        <ele>1054.7</ele>
        <time>2022-07-30T09:36:48Z</time>
      </trkpt>
      <trkpt lat="46.70176" lon="6.1336">
        <ele>1051.34</ele>
        <time>2022-07-30T09:36:54Z</time>
      </trkpt>
      <trkpt lat="46.7019" lon="6.13373">
        <ele>1049.9</ele>
        <time>2022-07-30T09:36:56Z</time>
      </trkpt>
      <trkpt lat="46.70199" lon="6.13377">
        <ele>1050.38</ele>
        <time>2022-07-30T09:36:57Z</time>
      </trkpt>
      <trkpt lat="46.70208" lon="6.13378">
        <ele>1055.67</ele>
        <time>2022-07-30T09:36:58Z</time>
      </trkpt>
      <trkpt lat="46.70217" lon="6.13377">
        <ele>1052.78</ele>
        <time>2022-07-30T09:36:59Z</time>
      </trkpt>
      <trkpt lat="46.70246" lon="6.13375">
        <ele>1059.03</ele>
        <time>2022-07-30T09:37:02Z</time>
      </trkpt>
      <trkpt lat="46.70256" lon="6.13374">
        <ele>1058.55</ele>
        <time>2022-07-30T09:37:03Z</time>
      </trkpt>
      <trkpt lat="46.70266" lon="6.13373">
        <ele>1051.82</ele>
        <time>2022-07-30T09:37:04Z</time>
      </trkpt>
      <trkpt lat="46.70286" lon="6.13373">
        <ele>1052.78</ele>
        <time>2022-07-30T09:37:06Z</time>
      </trkpt>
      <trkpt lat="46.70296" lon="6.13376">
        <ele>1052.3</ele>
        <time>2022-07-30T09:37:07Z</time>
      </trkpt>
      <trkpt lat="46.70306" lon="6.13382">
        <ele>1046.05</ele>
        <time>2022-07-30T09:37:08Z</time>
      </trkpt>
      <trkpt lat="46.70315" lon="6.13391">
        <ele>1040.28</ele>
        <time>2022-07-30T09:37:09Z</time>
      </trkpt>
      <trkpt lat="46.70323" lon="6.13403">
        <ele>1039.32</ele>
        <time>2022-07-30T09:37:10Z</time>
      </trkpt>
      <trkpt lat="46.7033" lon="6.13416">
        <ele>1038.36</ele>
        <time>2022-07-30T09:37:11Z</time>
      </trkpt>
      <trkpt lat="46.70334" lon="6.1343">
        <ele>1037.88</ele>
        <time>2022-07-30T09:37:12Z</time>
      </trkpt>
      <trkpt lat="46.70336" lon="6.13445">
        <ele>1037.88</ele>
        <time>2022-07-30T09:37:13Z</time>
      </trkpt>
      <trkpt lat="46.70337" lon="6.13459">
        <ele>1038.36</ele>
        <time>2022-07-30T09:37:14Z</time>
      </trkpt>
      <trkpt lat="46.7034" lon="6.13593">
        <ele>1037.4</ele>
        <time>2022-07-30T09:37:26Z</time>
      </trkpt>
      <trkpt lat="46.70372" lon="6.13679">
        <ele>1037.4</ele>
        <time>2022-07-30T09:37:38Z</time>
      </trkpt>
      <trkpt lat="46.70403" lon="6.13754">
        <ele>1036.92</ele>
        <time>2022-07-30T09:37:51Z</time>
      </trkpt>
      <trkpt lat="46.70405" lon="6.1376">
        <ele>1036.44</ele>
        <time>2022-07-30T09:37:52Z</time>
      </trkpt>
      <trkpt lat="46.70411" lon="6.13794">
        <ele>1036.44</ele>
        <time>2022-07-30T09:37:58Z</time>
      </trkpt>
      <trkpt lat="46.70411" lon="6.13801">
        <ele>1035.96</ele>
        <time>2022-07-30T09:37:59Z</time>
      </trkpt>
      <trkpt lat="46.70402" lon="6.13908">
        <ele>1033.55</ele>
        <time>2022-07-30T09:38:14Z</time>
      </trkpt>
      <trkpt lat="46.70404" lon="6.14005">
        <ele>1034.04</ele>
        <time>2022-07-30T09:38:31Z</time>
      </trkpt>
      <trkpt lat="46.70434" lon="6.14071">
        <ele>1034.52</ele>
        <time>2022-07-30T09:38:47Z</time>
      </trkpt>
      <trkpt lat="46.70467" lon="6.14157">
        <ele>1033.55</ele>
        <time>2022-07-30T09:39:04Z</time>
      </trkpt>
      <trkpt lat="46.70472" lon="6.14251">
        <ele>1033.55</ele>
        <time>2022-07-30T09:39:19Z</time>
      </trkpt>
      <trkpt lat="46.70493" lon="6.14325">
        <ele>1034.04</ele>
        <time>2022-07-30T09:39:35Z</time>
      </trkpt>
      <trkpt lat="46.70519" lon="6.1436">
        <ele>1037.4</ele>
        <time>2022-07-30T09:39:52Z</time>
      </trkpt>
      <trkpt lat="46.70555" lon="6.14389">
        <ele>1037.88</ele>
        <time>2022-07-30T09:40:07Z</time>
      </trkpt>
      <trkpt lat="46.70587" lon="6.14417">
        <ele>1041.25</ele>
        <time>2022-07-30T09:40:20Z</time>
      </trkpt>
      <trkpt lat="46.70628" lon="6.14463">
        <ele>1040.76</ele>
        <time>2022-07-30T09:40:39Z</time>
      </trkpt>
      <trkpt lat="46.70647" lon="6.14493">
        <ele>1044.13</ele>
        <time>2022-07-30T09:40:50Z</time>
      </trkpt>
      <trkpt lat="46.70655" lon="6.14499">
        <ele>1042.69</ele>
        <time>2022-07-30T09:40:54Z</time>
      </trkpt>
      <trkpt lat="46.70655" lon="6.14496">
        <ele>1041.73</ele>
        <time>2022-07-30T09:40:56Z</time>
      </trkpt>
      <trkpt lat="46.70652" lon="6.14493">
        <ele>1041.25</ele>
        <time>2022-07-30T09:40:58Z</time>
      </trkpt>
      <trkpt lat="46.7065" lon="6.14491">
        <ele>1041.25</ele>
        <time>2022-07-30T09:40:59Z</time>
      </trkpt>
      <trkpt lat="46.70649" lon="6.14488">
        <ele>1041.25</ele>
        <time>2022-07-30T09:41:00Z</time>
      </trkpt>
      <trkpt lat="46.70647" lon="6.14486">
        <ele>1041.73</ele>
        <time>2022-07-30T09:41:01Z</time>
      </trkpt>
      <trkpt lat="46.70645" lon="6.14486">
        <ele>1042.21</ele>
        <time>2022-07-30T09:41:02Z</time>
      </trkpt>
      <trkpt lat="46.70644" lon="6.14493">
        <ele>1042.21</ele>
        <time>2022-07-30T09:41:09Z</time>
      </trkpt>
      <trkpt lat="46.70646" lon="6.14494">
        <ele>1041.73</ele>
        <time>2022-07-30T09:41:14Z</time>
      </trkpt>
      <trkpt lat="46.70652" lon="6.14499">
        <ele>1044.13</ele>
        <time>2022-07-30T09:41:19Z</time>
      </trkpt>
      <trkpt lat="46.70653" lon="6.14501">
        <ele>1044.13</ele>
        <time>2022-07-30T09:41:20Z</time>
      </trkpt>
      <trkpt lat="46.70655" lon="6.14504">
        <ele>1044.61</ele>
        <time>2022-07-30T09:41:21Z</time>
      </trkpt>
      <trkpt lat="46.70675" lon="6.14532">
        <ele>1041.25</ele>
        <time>2022-07-30T09:41:30Z</time>
      </trkpt>
      <trkpt lat="46.7068" lon="6.14539">
        <ele>1040.76</ele>
        <time>2022-07-30T09:41:32Z</time>
      </trkpt>
      <trkpt lat="46.70718" lon="6.14593">
        <ele>1039.8</ele>
        <time>2022-07-30T09:41:46Z</time>
      </trkpt>
      <trkpt lat="46.70756" lon="6.1465">
        <ele>1038.36</ele>
        <time>2022-07-30T09:41:59Z</time>
      </trkpt>
      <trkpt lat="46.70759" lon="6.14654">
        <ele>1038.84</ele>
        <time>2022-07-30T09:42:00Z</time>
      </trkpt>
      <trkpt lat="46.7081" lon="6.14727">
        <ele>1036.92</ele>
        <time>2022-07-30T09:42:20Z</time>
      </trkpt>
      <trkpt lat="46.70838" lon="6.14773">
        <ele>1035.96</ele>
        <time>2022-07-30T09:42:35Z</time>
      </trkpt>
      <trkpt lat="46.70838" lon="6.14772">
        <ele>1034.52</ele>
        <time>2022-07-30T09:42:38Z</time>
      </trkpt>
      <trkpt lat="46.70839" lon="6.14773">
        <ele>1035.48</ele>
        <time>2022-07-30T09:42:44Z</time>
      </trkpt>
      <trkpt lat="46.7084" lon="6.14774">
        <ele>1035</ele>
        <time>2022-07-30T09:42:45Z</time>
      </trkpt>
      <trkpt lat="46.70841" lon="6.14776">
        <ele>1035</ele>
        <time>2022-07-30T09:42:46Z</time>
      </trkpt>
      <trkpt lat="46.70842" lon="6.14778">
        <ele>1035</ele>
        <time>2022-07-30T09:42:47Z</time>
      </trkpt>
      <trkpt lat="46.70843" lon="6.1478">
        <ele>1034.52</ele>
        <time>2022-07-30T09:42:48Z</time>
      </trkpt>
      <trkpt lat="46.70845" lon="6.14783">
        <ele>1034.52</ele>
        <time>2022-07-30T09:42:49Z</time>
      </trkpt>
      <trkpt lat="46.70846" lon="6.14786">
        <ele>1035</ele>
        <time>2022-07-30T09:42:50Z</time>
      </trkpt>
      <trkpt lat="46.70848" lon="6.14789">
        <ele>1035</ele>
        <time>2022-07-30T09:42:51Z</time>
      </trkpt>
      <trkpt lat="46.7085" lon="6.14794">
        <ele>1034.52</ele>
        <time>2022-07-30T09:42:52Z</time>
      </trkpt>
      <trkpt lat="46.70852" lon="6.14798">
        <ele>1034.04</ele>
        <time>2022-07-30T09:42:53Z</time>
      </trkpt>
      <trkpt lat="46.70859" lon="6.14822">
        <ele>1032.59</ele>
        <time>2022-07-30T09:42:57Z</time>
      </trkpt>
      <trkpt lat="46.7086" lon="6.14829">
        <ele>1032.59</ele>
        <time>2022-07-30T09:42:58Z</time>
      </trkpt>
      <trkpt lat="46.7086" lon="6.14837">
        <ele>1032.11</ele>
        <time>2022-07-30T09:42:59Z</time>
      </trkpt>
      <trkpt lat="46.7086" lon="6.14845">
        <ele>1032.11</ele>
        <time>2022-07-30T09:43:00Z</time>
      </trkpt>
      <trkpt lat="46.7086" lon="6.14854">
        <ele>1031.63</ele>
        <time>2022-07-30T09:43:01Z</time>
      </trkpt>
      <trkpt lat="46.7086" lon="6.14864">
        <ele>1031.63</ele>
        <time>2022-07-30T09:43:02Z</time>
      </trkpt>
      <trkpt lat="46.70859" lon="6.14873">
        <ele>1031.15</ele>
        <time>2022-07-30T09:43:03Z</time>
      </trkpt>
      <trkpt lat="46.7085" lon="6.14948">
        <ele>1028.27</ele>
        <time>2022-07-30T09:43:10Z</time>
      </trkpt>
      <trkpt lat="46.70847" lon="6.14971">
        <ele>1026.83</ele>
        <time>2022-07-30T09:43:12Z</time>
      </trkpt>
      <trkpt lat="46.70839" lon="6.15033">
        <ele>1025.38</ele>
        <time>2022-07-30T09:43:17Z</time>
      </trkpt>
      <trkpt lat="46.70812" lon="6.15132">
        <ele>1023.94</ele>
        <time>2022-07-30T09:43:26Z</time>
      </trkpt>
      <trkpt lat="46.7081" lon="6.15158">
        <ele>1023.94</ele>
        <time>2022-07-30T09:43:29Z</time>
      </trkpt>
      <trkpt lat="46.70811" lon="6.15165">
        <ele>1024.42</ele>
        <time>2022-07-30T09:43:30Z</time>
      </trkpt>
      <trkpt lat="46.70813" lon="6.15172">
        <ele>1024.42</ele>
        <time>2022-07-30T09:43:31Z</time>
      </trkpt>
      <trkpt lat="46.70816" lon="6.15178">
        <ele>1024.9</ele>
        <time>2022-07-30T09:43:32Z</time>
      </trkpt>
      <trkpt lat="46.70819" lon="6.15182">
        <ele>1025.38</ele>
        <time>2022-07-30T09:43:33Z</time>
      </trkpt>
      <trkpt lat="46.70823" lon="6.15184">
        <ele>1025.38</ele>
        <time>2022-07-30T09:43:34Z</time>
      </trkpt>
      <trkpt lat="46.70827" lon="6.15186">
        <ele>1025.38</ele>
        <time>2022-07-30T09:43:35Z</time>
      </trkpt>
      <trkpt lat="46.70868" lon="6.15219">
        <ele>1027.79</ele>
        <time>2022-07-30T09:43:49Z</time>
      </trkpt>
      <trkpt lat="46.70895" lon="6.15251">
        <ele>1029.23</ele>
        <time>2022-07-30T09:44:03Z</time>
      </trkpt>
      <trkpt lat="46.70939" lon="6.15303">
        <ele>1030.67</ele>
        <time>2022-07-30T09:44:25Z</time>
      </trkpt>
      <trkpt lat="46.70971" lon="6.15342">
        <ele>1031.63</ele>
        <time>2022-07-30T09:44:46Z</time>
      </trkpt>
      <trkpt lat="46.71001" lon="6.15381">
        <ele>1033.55</ele>
        <time>2022-07-30T09:45:03Z</time>
      </trkpt>
      <trkpt lat="46.71048" lon="6.15438">
        <ele>1033.55</ele>
        <time>2022-07-30T09:45:24Z</time>
      </trkpt>
      <trkpt lat="46.71107" lon="6.15506">
        <ele>1033.07</ele>
        <time>2022-07-30T09:45:47Z</time>
      </trkpt>
      <trkpt lat="46.71164" lon="6.15565">
        <ele>1031.63</ele>
        <time>2022-07-30T09:46:08Z</time>
      </trkpt>
      <trkpt lat="46.7121" lon="6.1564">
        <ele>1032.59</ele>
        <time>2022-07-30T09:46:29Z</time>
      </trkpt>
      <trkpt lat="46.71246" lon="6.15713">
        <ele>1034.04</ele>
        <time>2022-07-30T09:46:48Z</time>
      </trkpt>
      <trkpt lat="46.71278" lon="6.15776">
        <ele>1034.52</ele>
        <time>2022-07-30T09:47:03Z</time>
      </trkpt>
      <trkpt lat="46.7133" lon="6.15881">
        <ele>1034.52</ele>
        <time>2022-07-30T09:47:28Z</time>
      </trkpt>
      <trkpt lat="46.71364" lon="6.15986">
        <ele>1033.55</ele>
        <time>2022-07-30T09:47:45Z</time>
      </trkpt>
      <trkpt lat="46.71394" lon="6.16038">
        <ele>1031.63</ele>
        <time>2022-07-30T09:47:55Z</time>
      </trkpt>
      <trkpt lat="46.71398" lon="6.16041">
        <ele>1031.15</ele>
        <time>2022-07-30T09:47:56Z</time>
      </trkpt>
      <trkpt lat="46.71415" lon="6.16057">
        <ele>1030.19</ele>
        <time>2022-07-30T09:48:00Z</time>
      </trkpt>
      <trkpt lat="46.71441" lon="6.16079">
        <ele>1029.23</ele>
        <time>2022-07-30T09:48:06Z</time>
      </trkpt>
      <trkpt lat="46.71474" lon="6.16105">
        <ele>1031.63</ele>
        <time>2022-07-30T09:48:16Z</time>
      </trkpt>
      <trkpt lat="46.71526" lon="6.16145">
        <ele>1035</ele>
        <time>2022-07-30T09:48:35Z</time>
      </trkpt>
      <trkpt lat="46.71534" lon="6.16152">
        <ele>1033.07</ele>
        <time>2022-07-30T09:48:38Z</time>
      </trkpt>
      <trkpt lat="46.71567" lon="6.16217">
        <ele>1035</ele>
        <time>2022-07-30T09:48:56Z</time>
      </trkpt>
      <trkpt lat="46.71585" lon="6.16296">
        <ele>1033.55</ele>
        <time>2022-07-30T09:49:13Z</time>
      </trkpt>
      <trkpt lat="46.71604" lon="6.16408">
        <ele>1031.63</ele>
        <time>2022-07-30T09:49:32Z</time>
      </trkpt>
      <trkpt lat="46.71628" lon="6.16483">
        <ele>1031.15</ele>
        <time>2022-07-30T09:49:47Z</time>
      </trkpt>
      <trkpt lat="46.7165" lon="6.16492">
        <ele>1032.11</ele>
        <time>2022-07-30T09:49:57Z</time>
      </trkpt>
      <trkpt lat="46.71673" lon="6.1645">
        <ele>1033.07</ele>
        <time>2022-07-30T09:50:13Z</time>
      </trkpt>
      <trkpt lat="46.71696" lon="6.16406">
        <ele>1034.52</ele>
        <time>2022-07-30T09:50:29Z</time>
      </trkpt>
      <trkpt lat="46.71737" lon="6.16409">
        <ele>1037.4</ele>
        <time>2022-07-30T09:50:45Z</time>
      </trkpt>
      <trkpt lat="46.71788" lon="6.16422">
        <ele>1039.32</ele>
        <time>2022-07-30T09:51:06Z</time>
      </trkpt>
      <trkpt lat="46.71824" lon="6.16416">
        <ele>1040.76</ele>
        <time>2022-07-30T09:51:22Z</time>
      </trkpt>
      <trkpt lat="46.71863" lon="6.16386">
        <ele>1042.21</ele>
        <time>2022-07-30T09:51:42Z</time>
      </trkpt>
      <trkpt lat="46.7187" lon="6.16374">
        <ele>1043.65</ele>
        <time>2022-07-30T09:51:47Z</time>
      </trkpt>
      <trkpt lat="46.71892" lon="6.16342">
        <ele>1044.61</ele>
        <time>2022-07-30T09:52:02Z</time>
      </trkpt>
      <trkpt lat="46.71923" lon="6.16287">
        <ele>1047.97</ele>
        <time>2022-07-30T09:52:22Z</time>
      </trkpt>
      <trkpt lat="46.71932" lon="6.16217">
        <ele>1049.42</ele>
        <time>2022-07-30T09:52:42Z</time>
      </trkpt>
      <trkpt lat="46.71942" lon="6.16154">
        <ele>1051.34</ele>
        <time>2022-07-30T09:53:01Z</time>
      </trkpt>
      <trkpt lat="46.71951" lon="6.16085">
        <ele>1052.78</ele>
        <time>2022-07-30T09:53:21Z</time>
      </trkpt>
      <trkpt lat="46.71957" lon="6.16043">
        <ele>1053.26</ele>
        <time>2022-07-30T09:53:34Z</time>
      </trkpt>
      <trkpt lat="46.71964" lon="6.15989">
        <ele>1054.7</ele>
        <time>2022-07-30T09:53:50Z</time>
      </trkpt>
      <trkpt lat="46.71967" lon="6.15935">
        <ele>1055.67</ele>
        <time>2022-07-30T09:54:05Z</time>
      </trkpt>
      <trkpt lat="46.71953" lon="6.15886">
        <ele>1058.07</ele>
        <time>2022-07-30T09:54:19Z</time>
      </trkpt>
      <trkpt lat="46.7193" lon="6.15855">
        <ele>1059.99</ele>
        <time>2022-07-30T09:54:32Z</time>
      </trkpt>
      <trkpt lat="46.71929" lon="6.15855">
        <ele>1059.99</ele>
        <time>2022-07-30T09:54:50Z</time>
      </trkpt>
      <trkpt lat="46.71927" lon="6.15854">
        <ele>1059.99</ele>
        <time>2022-07-30T09:55:22Z</time>
      </trkpt>
      <trkpt lat="46.71927" lon="6.15851">
        <ele>1059.51</ele>
        <time>2022-07-30T09:55:37Z</time>
      </trkpt>
      <trkpt lat="46.71927" lon="6.15849">
        <ele>1059.99</ele>
        <time>2022-07-30T09:55:38Z</time>
      </trkpt>
      <trkpt lat="46.71928" lon="6.15848">
        <ele>1059.51</ele>
        <time>2022-07-30T09:55:39Z</time>
      </trkpt>
      <trkpt lat="46.71928" lon="6.15845">
        <ele>1059.99</ele>
        <time>2022-07-30T09:55:40Z</time>
      </trkpt>
      <trkpt lat="46.71927" lon="6.15842">
        <ele>1059.99</ele>
        <time>2022-07-30T09:55:41Z</time>
      </trkpt>
      <trkpt lat="46.71926" lon="6.15839">
        <ele>1060.47</ele>
        <time>2022-07-30T09:55:42Z</time>
      </trkpt>
      <trkpt lat="46.71924" lon="6.15837">
        <ele>1060.95</ele>
        <time>2022-07-30T09:55:43Z</time>
      </trkpt>
      <trkpt lat="46.71923" lon="6.15835">
        <ele>1060.95</ele>
        <time>2022-07-30T09:55:44Z</time>
      </trkpt>
      <trkpt lat="46.71921" lon="6.15832">
        <ele>1060.95</ele>
        <time>2022-07-30T09:55:45Z</time>
      </trkpt>
      <trkpt lat="46.71899" lon="6.15792">
        <ele>1062.87</ele>
        <time>2022-07-30T09:56:00Z</time>
      </trkpt>
      <trkpt lat="46.7187" lon="6.15741">
        <ele>1065.76</ele>
        <time>2022-07-30T09:56:18Z</time>
      </trkpt>
      <trkpt lat="46.71845" lon="6.15694">
        <ele>1067.2</ele>
        <time>2022-07-30T09:56:34Z</time>
      </trkpt>
      <trkpt lat="46.71828" lon="6.15655">
        <ele>1069.12</ele>
        <time>2022-07-30T09:56:48Z</time>
      </trkpt>
      <trkpt lat="46.71815" lon="6.15604">
        <ele>1070.57</ele>
        <time>2022-07-30T09:57:02Z</time>
      </trkpt>
      <trkpt lat="46.71806" lon="6.15552">
        <ele>1072.49</ele>
        <time>2022-07-30T09:57:18Z</time>
      </trkpt>
      <trkpt lat="46.71804" lon="6.15509">
        <ele>1073.93</ele>
        <time>2022-07-30T09:57:32Z</time>
      </trkpt>
      <trkpt lat="46.7181" lon="6.15473">
        <ele>1075.37</ele>
        <time>2022-07-30T09:57:43Z</time>
      </trkpt>
      <trkpt lat="46.71837" lon="6.15441">
        <ele>1077.78</ele>
        <time>2022-07-30T09:57:59Z</time>
      </trkpt>
      <trkpt lat="46.71869" lon="6.15424">
        <ele>1079.7</ele>
        <time>2022-07-30T09:58:14Z</time>
      </trkpt>
      <trkpt lat="46.7191" lon="6.15419">
        <ele>1079.7</ele>
        <time>2022-07-30T09:58:29Z</time>
      </trkpt>
      <trkpt lat="46.7195" lon="6.1545">
        <ele>1080.66</ele>
        <time>2022-07-30T09:58:43Z</time>
      </trkpt>
      <trkpt lat="46.71995" lon="6.15469">
        <ele>1081.14</ele>
        <time>2022-07-30T09:58:57Z</time>
      </trkpt>
      <trkpt lat="46.72042" lon="6.15476">
        <ele>1083.06</ele>
        <time>2022-07-30T09:59:10Z</time>
      </trkpt>
      <trkpt lat="46.72077" lon="6.155">
        <ele>1084.5</ele>
        <time>2022-07-30T09:59:24Z</time>
      </trkpt>
      <trkpt lat="46.72112" lon="6.15517">
        <ele>1086.43</ele>
        <time>2022-07-30T09:59:38Z</time>
      </trkpt>
      <trkpt lat="46.72148" lon="6.1552">
        <ele>1088.35</ele>
        <time>2022-07-30T09:59:51Z</time>
      </trkpt>
      <trkpt lat="46.72185" lon="6.15493">
        <ele>1091.23</ele>
        <time>2022-07-30T10:00:06Z</time>
      </trkpt>
      <trkpt lat="46.72208" lon="6.15463">
        <ele>1091.71</ele>
        <time>2022-07-30T10:00:20Z</time>
      </trkpt>
      <trkpt lat="46.72225" lon="6.15429">
        <ele>1094.12</ele>
        <time>2022-07-30T10:00:33Z</time>
      </trkpt>
      <trkpt lat="46.72248" lon="6.15399">
        <ele>1095.08</ele>
        <time>2022-07-30T10:00:47Z</time>
      </trkpt>
      <trkpt lat="46.7228" lon="6.1537">
        <ele>1097</ele>
        <time>2022-07-30T10:01:02Z</time>
      </trkpt>
      <trkpt lat="46.72309" lon="6.15346">
        <ele>1097</ele>
        <time>2022-07-30T10:01:15Z</time>
      </trkpt>
      <trkpt lat="46.72348" lon="6.15323">
        <ele>1098.92</ele>
        <time>2022-07-30T10:01:31Z</time>
      </trkpt>
      <trkpt lat="46.72373" lon="6.15302">
        <ele>1101.33</ele>
        <time>2022-07-30T10:01:43Z</time>
      </trkpt>
      <trkpt lat="46.72406" lon="6.15273">
        <ele>1103.73</ele>
        <time>2022-07-30T10:01:59Z</time>
      </trkpt>
      <trkpt lat="46.72437" lon="6.15258">
        <ele>1104.69</ele>
        <time>2022-07-30T10:02:11Z</time>
      </trkpt>
      <trkpt lat="46.7246" lon="6.15251">
        <ele>1105.65</ele>
        <time>2022-07-30T10:02:19Z</time>
      </trkpt>
      <trkpt lat="46.72462" lon="6.15249">
        <ele>1105.65</ele>
        <time>2022-07-30T10:02:20Z</time>
      </trkpt>
      <trkpt lat="46.72464" lon="6.15247">
        <ele>1106.13</ele>
        <time>2022-07-30T10:02:21Z</time>
      </trkpt>
      <trkpt lat="46.72466" lon="6.15246">
        <ele>1105.65</ele>
        <time>2022-07-30T10:02:22Z</time>
      </trkpt>
      <trkpt lat="46.72468" lon="6.15245">
        <ele>1106.61</ele>
        <time>2022-07-30T10:02:23Z</time>
      </trkpt>
      <trkpt lat="46.7247" lon="6.15244">
        <ele>1107.1</ele>
        <time>2022-07-30T10:02:24Z</time>
      </trkpt>
      <trkpt lat="46.72477" lon="6.15241">
        <ele>1106.61</ele>
        <time>2022-07-30T10:02:27Z</time>
      </trkpt>
      <trkpt lat="46.72505" lon="6.15234">
        <ele>1107.58</ele>
        <time>2022-07-30T10:02:41Z</time>
      </trkpt>
      <trkpt lat="46.72541" lon="6.15231">
        <ele>1109.02</ele>
        <time>2022-07-30T10:02:52Z</time>
      </trkpt>
      <trkpt lat="46.72563" lon="6.15199">
        <ele>1109.98</ele>
        <time>2022-07-30T10:03:02Z</time>
      </trkpt>
      <trkpt lat="46.72563" lon="6.15194">
        <ele>1109.5</ele>
        <time>2022-07-30T10:03:03Z</time>
      </trkpt>
      <trkpt lat="46.72562" lon="6.15191">
        <ele>1109.5</ele>
        <time>2022-07-30T10:03:04Z</time>
      </trkpt>
      <trkpt lat="46.7256" lon="6.15188">
        <ele>1109.98</ele>
        <time>2022-07-30T10:03:05Z</time>
      </trkpt>
      <trkpt lat="46.72558" lon="6.15186">
        <ele>1110.46</ele>
        <time>2022-07-30T10:03:06Z</time>
      </trkpt>
      <trkpt lat="46.72556" lon="6.15185">
        <ele>1110.94</ele>
        <time>2022-07-30T10:03:07Z</time>
      </trkpt>
      <trkpt lat="46.72555" lon="6.15184">
        <ele>1110.94</ele>
        <time>2022-07-30T10:03:08Z</time>
      </trkpt>
      <trkpt lat="46.72554" lon="6.15184">
        <ele>1110.94</ele>
        <time>2022-07-30T10:03:09Z</time>
      </trkpt>
      <trkpt lat="46.72554" lon="6.15185">
        <ele>1110.94</ele>
        <time>2022-07-30T10:03:10Z</time>
      </trkpt>
      <trkpt lat="46.72535" lon="6.15195">
        <ele>1112.86</ele>
        <time>2022-07-30T10:03:25Z</time>
      </trkpt>
      <trkpt lat="46.72509" lon="6.15201">
        <ele>1114.79</ele>
        <time>2022-07-30T10:03:39Z</time>
      </trkpt>
      <trkpt lat="46.7248" lon="6.15214">
        <ele>1116.23</ele>
        <time>2022-07-30T10:03:54Z</time>
      </trkpt>
      <trkpt lat="46.7245" lon="6.1522">
        <ele>1118.15</ele>
        <time>2022-07-30T10:04:08Z</time>
      </trkpt>
      <trkpt lat="46.72418" lon="6.15227">
        <ele>1120.07</ele>
        <time>2022-07-30T10:04:20Z</time>
      </trkpt>
      <trkpt lat="46.72393" lon="6.15232">
        <ele>1119.11</ele>
        <time>2022-07-30T10:04:27Z</time>
      </trkpt>
      <trkpt lat="46.72389" lon="6.1523">
        <ele>1120.07</ele>
        <time>2022-07-30T10:04:28Z</time>
      </trkpt>
      <trkpt lat="46.72385" lon="6.15227">
        <ele>1120.07</ele>
        <time>2022-07-30T10:04:29Z</time>
      </trkpt>
      <trkpt lat="46.72381" lon="6.15224">
        <ele>1119.11</ele>
        <time>2022-07-30T10:04:30Z</time>
      </trkpt>
      <trkpt lat="46.72376" lon="6.15221">
        <ele>1119.59</ele>
        <time>2022-07-30T10:04:31Z</time>
      </trkpt>
      <trkpt lat="46.72372" lon="6.15215">
        <ele>1119.11</ele>
        <time>2022-07-30T10:04:32Z</time>
      </trkpt>
      <trkpt lat="46.72371" lon="6.15208">
        <ele>1118.63</ele>
        <time>2022-07-30T10:04:33Z</time>
      </trkpt>
      <trkpt lat="46.72371" lon="6.15201">
        <ele>1119.11</ele>
        <time>2022-07-30T10:04:34Z</time>
      </trkpt>
      <trkpt lat="46.72374" lon="6.15188">
        <ele>1119.11</ele>
        <time>2022-07-30T10:04:36Z</time>
      </trkpt>
      <trkpt lat="46.72377" lon="6.15183">
        <ele>1117.67</ele>
        <time>2022-07-30T10:04:37Z</time>
      </trkpt>
      <trkpt lat="46.7238" lon="6.15178">
        <ele>1117.67</ele>
        <time>2022-07-30T10:04:38Z</time>
      </trkpt>
      <trkpt lat="46.72392" lon="6.15161">
        <ele>1118.15</ele>
        <time>2022-07-30T10:04:41Z</time>
      </trkpt>
      <trkpt lat="46.72395" lon="6.15154">
        <ele>1118.63</ele>
        <time>2022-07-30T10:04:42Z</time>
      </trkpt>
      <trkpt lat="46.72397" lon="6.15148">
        <ele>1118.15</ele>
        <time>2022-07-30T10:04:43Z</time>
      </trkpt>
      <trkpt lat="46.72397" lon="6.15141">
        <ele>1118.15</ele>
        <time>2022-07-30T10:04:44Z</time>
      </trkpt>
      <trkpt lat="46.72395" lon="6.15135">
        <ele>1117.67</ele>
        <time>2022-07-30T10:04:45Z</time>
      </trkpt>
      <trkpt lat="46.72393" lon="6.15129">
        <ele>1117.67</ele>
        <time>2022-07-30T10:04:46Z</time>
      </trkpt>
      <trkpt lat="46.7239" lon="6.15123">
        <ele>1118.15</ele>
        <time>2022-07-30T10:04:47Z</time>
      </trkpt>
      <trkpt lat="46.72387" lon="6.15119">
        <ele>1117.67</ele>
        <time>2022-07-30T10:04:48Z</time>
      </trkpt>
      <trkpt lat="46.72384" lon="6.15116">
        <ele>1118.15</ele>
        <time>2022-07-30T10:04:49Z</time>
      </trkpt>
      <trkpt lat="46.7238" lon="6.15114">
        <ele>1118.63</ele>
        <time>2022-07-30T10:04:50Z</time>
      </trkpt>
      <trkpt lat="46.72377" lon="6.15113">
        <ele>1118.15</ele>
        <time>2022-07-30T10:04:51Z</time>
      </trkpt>
      <trkpt lat="46.72374" lon="6.15112">
        <ele>1118.63</ele>
        <time>2022-07-30T10:04:52Z</time>
      </trkpt>
      <trkpt lat="46.72349" lon="6.15117">
        <ele>1120.55</ele>
        <time>2022-07-30T10:05:02Z</time>
      </trkpt>
      <trkpt lat="46.72311" lon="6.15123">
        <ele>1122.96</ele>
        <time>2022-07-30T10:05:17Z</time>
      </trkpt>
      <trkpt lat="46.72289" lon="6.15109">
        <ele>1123.44</ele>
        <time>2022-07-30T10:05:27Z</time>
      </trkpt>
      <trkpt lat="46.72287" lon="6.15091">
        <ele>1123.92</ele>
        <time>2022-07-30T10:05:32Z</time>
      </trkpt>
      <trkpt lat="46.72288" lon="6.15088">
        <ele>1123.44</ele>
        <time>2022-07-30T10:05:33Z</time>
      </trkpt>
      <trkpt lat="46.72289" lon="6.15085">
        <ele>1123.92</ele>
        <time>2022-07-30T10:05:34Z</time>
      </trkpt>
      <trkpt lat="46.72313" lon="6.15067">
        <ele>1126.32</ele>
        <time>2022-07-30T10:05:48Z</time>
      </trkpt>
      <trkpt lat="46.72337" lon="6.15052">
        <ele>1126.8</ele>
        <time>2022-07-30T10:06:00Z</time>
      </trkpt>
      <trkpt lat="46.72366" lon="6.15028">
        <ele>1129.21</ele>
        <time>2022-07-30T10:06:14Z</time>
      </trkpt>
      <trkpt lat="46.72393" lon="6.14986">
        <ele>1131.61</ele>
        <time>2022-07-30T10:06:28Z</time>
      </trkpt>
      <trkpt lat="46.72413" lon="6.14939">
        <ele>1134.01</ele>
        <time>2022-07-30T10:06:44Z</time>
      </trkpt>
      <trkpt lat="46.72436" lon="6.14906">
        <ele>1136.9</ele>
        <time>2022-07-30T10:07:00Z</time>
      </trkpt>
      <trkpt lat="46.72458" lon="6.14889">
        <ele>1138.34</ele>
        <time>2022-07-30T10:07:13Z</time>
      </trkpt>
      <trkpt lat="46.72488" lon="6.14873">
        <ele>1140.26</ele>
        <time>2022-07-30T10:07:28Z</time>
      </trkpt>
      <trkpt lat="46.72528" lon="6.14847">
        <ele>1141.7</ele>
        <time>2022-07-30T10:07:42Z</time>
      </trkpt>
      <trkpt lat="46.72544" lon="6.14821">
        <ele>1143.63</ele>
        <time>2022-07-30T10:07:52Z</time>
      </trkpt>
      <trkpt lat="46.72553" lon="6.14829">
        <ele>1143.63</ele>
        <time>2022-07-30T10:08:06Z</time>
      </trkpt>
      <trkpt lat="46.72558" lon="6.14827">
        <ele>1144.59</ele>
        <time>2022-07-30T10:08:34Z</time>
      </trkpt>
      <trkpt lat="46.72558" lon="6.14823">
        <ele>1144.11</ele>
        <time>2022-07-30T10:09:07Z</time>
      </trkpt>
      <trkpt lat="46.7256" lon="6.14823">
        <ele>1144.59</ele>
        <time>2022-07-30T10:09:30Z</time>
      </trkpt>
      <trkpt lat="46.72558" lon="6.14822">
        <ele>1145.55</ele>
        <time>2022-07-30T10:10:01Z</time>
      </trkpt>
      <trkpt lat="46.7256" lon="6.14818">
        <ele>1145.07</ele>
        <time>2022-07-30T10:10:12Z</time>
      </trkpt>
      <trkpt lat="46.72561" lon="6.14817">
        <ele>1145.55</ele>
        <time>2022-07-30T10:10:13Z</time>
      </trkpt>
      <trkpt lat="46.72562" lon="6.14816">
        <ele>1145.55</ele>
        <time>2022-07-30T10:10:14Z</time>
      </trkpt>
      <trkpt lat="46.72563" lon="6.14814">
        <ele>1145.55</ele>
        <time>2022-07-30T10:10:15Z</time>
      </trkpt>
      <trkpt lat="46.72578" lon="6.1478">
        <ele>1146.51</ele>
        <time>2022-07-30T10:10:28Z</time>
      </trkpt>
      <trkpt lat="46.72621" lon="6.14733">
        <ele>1144.59</ele>
        <time>2022-07-30T10:10:39Z</time>
      </trkpt>
      <trkpt lat="46.72657" lon="6.14695">
        <ele>1141.22</ele>
        <time>2022-07-30T10:10:45Z</time>
      </trkpt>
      <trkpt lat="46.72713" lon="6.14651">
        <ele>1137.38</ele>
        <time>2022-07-30T10:10:52Z</time>
      </trkpt>
      <trkpt lat="46.7273" lon="6.14639">
        <ele>1136.9</ele>
        <time>2022-07-30T10:10:54Z</time>
      </trkpt>
      <trkpt lat="46.72776" lon="6.14591">
        <ele>1133.53</ele>
        <time>2022-07-30T10:11:00Z</time>
      </trkpt>
      <trkpt lat="46.72785" lon="6.14584">
        <ele>1133.53</ele>
        <time>2022-07-30T10:11:01Z</time>
      </trkpt>
      <trkpt lat="46.72808" lon="6.14567">
        <ele>1132.09</ele>
        <time>2022-07-30T10:11:04Z</time>
      </trkpt>
      <trkpt lat="46.72816" lon="6.14565">
        <ele>1131.61</ele>
        <time>2022-07-30T10:11:05Z</time>
      </trkpt>
      <trkpt lat="46.72828" lon="6.14565">
        <ele>1131.13</ele>
        <time>2022-07-30T10:11:06Z</time>
      </trkpt>
      <trkpt lat="46.7284" lon="6.14567">
        <ele>1130.65</ele>
        <time>2022-07-30T10:11:07Z</time>
      </trkpt>
      <trkpt lat="46.72852" lon="6.14569">
        <ele>1129.69</ele>
        <time>2022-07-30T10:11:08Z</time>
      </trkpt>
      <trkpt lat="46.72926" lon="6.14577">
        <ele>1126.8</ele>
        <time>2022-07-30T10:11:15Z</time>
      </trkpt>
      <trkpt lat="46.72937" lon="6.14573">
        <ele>1126.32</ele>
        <time>2022-07-30T10:11:16Z</time>
      </trkpt>
      <trkpt lat="46.72947" lon="6.14569">
        <ele>1125.36</ele>
        <time>2022-07-30T10:11:17Z</time>
      </trkpt>
      <trkpt lat="46.72989" lon="6.14538">
        <ele>1122</ele>
        <time>2022-07-30T10:11:22Z</time>
      </trkpt>
      <trkpt lat="46.72996" lon="6.14529">
        <ele>1121.03</ele>
        <time>2022-07-30T10:11:23Z</time>
      </trkpt>
      <trkpt lat="46.73032" lon="6.14457">
        <ele>1119.11</ele>
        <time>2022-07-30T10:11:29Z</time>
      </trkpt>
      <trkpt lat="46.73035" lon="6.14443">
        <ele>1118.63</ele>
        <time>2022-07-30T10:11:30Z</time>
      </trkpt>
      <trkpt lat="46.73041" lon="6.14413">
        <ele>1117.67</ele>
        <time>2022-07-30T10:11:32Z</time>
      </trkpt>
      <trkpt lat="46.73053" lon="6.14372">
        <ele>1115.75</ele>
        <time>2022-07-30T10:11:35Z</time>
      </trkpt>
      <trkpt lat="46.73068" lon="6.14316">
        <ele>1113.34</ele>
        <time>2022-07-30T10:11:39Z</time>
      </trkpt>
      <trkpt lat="46.73089" lon="6.14264">
        <ele>1112.38</ele>
        <time>2022-07-30T10:11:43Z</time>
      </trkpt>
      <trkpt lat="46.73097" lon="6.14254">
        <ele>1112.38</ele>
        <time>2022-07-30T10:11:44Z</time>
      </trkpt>
      <trkpt lat="46.73106" lon="6.14246">
        <ele>1111.42</ele>
        <time>2022-07-30T10:11:45Z</time>
      </trkpt>
      <trkpt lat="46.73115" lon="6.14239">
        <ele>1110.46</ele>
        <time>2022-07-30T10:11:46Z</time>
      </trkpt>
      <trkpt lat="46.73125" lon="6.14236">
        <ele>1109.5</ele>
        <time>2022-07-30T10:11:47Z</time>
      </trkpt>
      <trkpt lat="46.73136" lon="6.14233">
        <ele>1109.02</ele>
        <time>2022-07-30T10:11:48Z</time>
      </trkpt>
      <trkpt lat="46.73148" lon="6.14229">
        <ele>1108.54</ele>
        <time>2022-07-30T10:11:49Z</time>
      </trkpt>
      <trkpt lat="46.73159" lon="6.14224">
        <ele>1107.58</ele>
        <time>2022-07-30T10:11:50Z</time>
      </trkpt>
      <trkpt lat="46.73169" lon="6.14217">
        <ele>1107.58</ele>
        <time>2022-07-30T10:11:51Z</time>
      </trkpt>
      <trkpt lat="46.73177" lon="6.14208">
        <ele>1106.61</ele>
        <time>2022-07-30T10:11:52Z</time>
      </trkpt>
      <trkpt lat="46.73184" lon="6.14199">
        <ele>1106.61</ele>
        <time>2022-07-30T10:11:53Z</time>
      </trkpt>
      <trkpt lat="46.73192" lon="6.14189">
        <ele>1106.13</ele>
        <time>2022-07-30T10:11:54Z</time>
      </trkpt>
      <trkpt lat="46.73212" lon="6.14156">
        <ele>1104.21</ele>
        <time>2022-07-30T10:11:57Z</time>
      </trkpt>
      <trkpt lat="46.73231" lon="6.14121">
        <ele>1102.77</ele>
        <time>2022-07-30T10:12:00Z</time>
      </trkpt>
      <trkpt lat="46.73235" lon="6.14107">
        <ele>1101.81</ele>
        <time>2022-07-30T10:12:01Z</time>
      </trkpt>
      <trkpt lat="46.73244" lon="6.14063">
        <ele>1099.89</ele>
        <time>2022-07-30T10:12:04Z</time>
      </trkpt>
      <trkpt lat="46.73245" lon="6.14047">
        <ele>1098.92</ele>
        <time>2022-07-30T10:12:05Z</time>
      </trkpt>
      <trkpt lat="46.73245" lon="6.14031">
        <ele>1098.44</ele>
        <time>2022-07-30T10:12:06Z</time>
      </trkpt>
      <trkpt lat="46.73243" lon="6.14015">
        <ele>1097.48</ele>
        <time>2022-07-30T10:12:07Z</time>
      </trkpt>
      <trkpt lat="46.7324" lon="6.14001">
        <ele>1097</ele>
        <time>2022-07-30T10:12:08Z</time>
      </trkpt>
      <trkpt lat="46.73237" lon="6.13987">
        <ele>1096.04</ele>
        <time>2022-07-30T10:12:09Z</time>
      </trkpt>
      <trkpt lat="46.73231" lon="6.13975">
        <ele>1096.52</ele>
        <time>2022-07-30T10:12:10Z</time>
      </trkpt>
      <trkpt lat="46.73204" lon="6.13913">
        <ele>1093.16</ele>
        <time>2022-07-30T10:12:15Z</time>
      </trkpt>
      <trkpt lat="46.73189" lon="6.13875">
        <ele>1091.71</ele>
        <time>2022-07-30T10:12:18Z</time>
      </trkpt>
      <trkpt lat="46.73182" lon="6.13834">
        <ele>1089.79</ele>
        <time>2022-07-30T10:12:21Z</time>
      </trkpt>
      <trkpt lat="46.73177" lon="6.13807">
        <ele>1088.35</ele>
        <time>2022-07-30T10:12:23Z</time>
      </trkpt>
      <trkpt lat="46.73176" lon="6.13792">
        <ele>1087.87</ele>
        <time>2022-07-30T10:12:24Z</time>
      </trkpt>
      <trkpt lat="46.73174" lon="6.13751">
        <ele>1086.43</ele>
        <time>2022-07-30T10:12:27Z</time>
      </trkpt>
      <trkpt lat="46.73172" lon="6.13738">
        <ele>1085.47</ele>
        <time>2022-07-30T10:12:28Z</time>
      </trkpt>
      <trkpt lat="46.73141" lon="6.13607">
        <ele>1082.1</ele>
        <time>2022-07-30T10:12:38Z</time>
      </trkpt>
      <trkpt lat="46.73101" lon="6.13457">
        <ele>1079.7</ele>
        <time>2022-07-30T10:12:52Z</time>
      </trkpt>
      <trkpt lat="46.73093" lon="6.13401">
        <ele>1077.29</ele>
        <time>2022-07-30T10:12:57Z</time>
      </trkpt>
      <trkpt lat="46.7309" lon="6.1339">
        <ele>1077.78</ele>
        <time>2022-07-30T10:12:58Z</time>
      </trkpt>
      <trkpt lat="46.73084" lon="6.13369">
        <ele>1076.33</ele>
        <time>2022-07-30T10:13:00Z</time>
      </trkpt>
      <trkpt lat="46.7308" lon="6.13359">
        <ele>1075.85</ele>
        <time>2022-07-30T10:13:01Z</time>
      </trkpt>
      <trkpt lat="46.73059" lon="6.13306">
        <ele>1072.49</ele>
        <time>2022-07-30T10:13:06Z</time>
      </trkpt>
      <trkpt lat="46.73033" lon="6.13239">
        <ele>1070.08</ele>
        <time>2022-07-30T10:13:12Z</time>
      </trkpt>
      <trkpt lat="46.73007" lon="6.13166">
        <ele>1067.2</ele>
        <time>2022-07-30T10:13:18Z</time>
      </trkpt>
      <trkpt lat="46.72993" lon="6.1313">
        <ele>1065.76</ele>
        <time>2022-07-30T10:13:21Z</time>
      </trkpt>
      <trkpt lat="46.72978" lon="6.13092">
        <ele>1063.84</ele>
        <time>2022-07-30T10:13:24Z</time>
      </trkpt>
      <trkpt lat="46.72951" lon="6.13027">
        <ele>1059.99</ele>
        <time>2022-07-30T10:13:29Z</time>
      </trkpt>
      <trkpt lat="46.72947" lon="6.13013">
        <ele>1059.99</ele>
        <time>2022-07-30T10:13:30Z</time>
      </trkpt>
      <trkpt lat="46.7291" lon="6.12909">
        <ele>1057.11</ele>
        <time>2022-07-30T10:13:38Z</time>
      </trkpt>
      <trkpt lat="46.72873" lon="6.12782">
        <ele>1054.7</ele>
        <time>2022-07-30T10:13:51Z</time>
      </trkpt>
      <trkpt lat="46.72837" lon="6.12647">
        <ele>1051.34</ele>
        <time>2022-07-30T10:14:05Z</time>
      </trkpt>
      <trkpt lat="46.72815" lon="6.12542">
        <ele>1047.97</ele>
        <time>2022-07-30T10:14:14Z</time>
      </trkpt>
      <trkpt lat="46.72809" lon="6.12518">
        <ele>1047.49</ele>
        <time>2022-07-30T10:14:16Z</time>
      </trkpt>
      <trkpt lat="46.72795" lon="6.12457">
        <ele>1044.61</ele>
        <time>2022-07-30T10:14:21Z</time>
      </trkpt>
      <trkpt lat="46.72785" lon="6.12394">
        <ele>1041.73</ele>
        <time>2022-07-30T10:14:26Z</time>
      </trkpt>
      <trkpt lat="46.72761" lon="6.12315">
        <ele>1039.8</ele>
        <time>2022-07-30T10:14:32Z</time>
      </trkpt>
      <trkpt lat="46.72754" lon="6.12288">
        <ele>1038.84</ele>
        <time>2022-07-30T10:14:34Z</time>
      </trkpt>
      <trkpt lat="46.72742" lon="6.12232">
        <ele>1036.44</ele>
        <time>2022-07-30T10:14:38Z</time>
      </trkpt>
      <trkpt lat="46.72732" lon="6.1219">
        <ele>1034.52</ele>
        <time>2022-07-30T10:14:41Z</time>
      </trkpt>
      <trkpt lat="46.72717" lon="6.12103">
        <ele>1032.11</ele>
        <time>2022-07-30T10:14:47Z</time>
      </trkpt>
      <trkpt lat="46.72714" lon="6.12074">
        <ele>1030.19</ele>
        <time>2022-07-30T10:14:49Z</time>
      </trkpt>
      <trkpt lat="46.72714" lon="6.12059">
        <ele>1029.71</ele>
        <time>2022-07-30T10:14:50Z</time>
      </trkpt>
      <trkpt lat="46.72716" lon="6.12044">
        <ele>1029.71</ele>
        <time>2022-07-30T10:14:51Z</time>
      </trkpt>
      <trkpt lat="46.72719" lon="6.12029">
        <ele>1029.23</ele>
        <time>2022-07-30T10:14:52Z</time>
      </trkpt>
      <trkpt lat="46.72723" lon="6.12015">
        <ele>1028.27</ele>
        <time>2022-07-30T10:14:53Z</time>
      </trkpt>
      <trkpt lat="46.72729" lon="6.12002">
        <ele>1028.75</ele>
        <time>2022-07-30T10:14:54Z</time>
      </trkpt>
      <trkpt lat="46.72735" lon="6.1199">
        <ele>1028.75</ele>
        <time>2022-07-30T10:14:55Z</time>
      </trkpt>
      <trkpt lat="46.72742" lon="6.1198">
        <ele>1027.79</ele>
        <time>2022-07-30T10:14:56Z</time>
      </trkpt>
      <trkpt lat="46.72751" lon="6.11973">
        <ele>1027.79</ele>
        <time>2022-07-30T10:14:57Z</time>
      </trkpt>
      <trkpt lat="46.72759" lon="6.11967">
        <ele>1027.31</ele>
        <time>2022-07-30T10:14:58Z</time>
      </trkpt>
      <trkpt lat="46.72768" lon="6.11963">
        <ele>1026.83</ele>
        <time>2022-07-30T10:14:59Z</time>
      </trkpt>
      <trkpt lat="46.72777" lon="6.1196">
        <ele>1027.31</ele>
        <time>2022-07-30T10:15:00Z</time>
      </trkpt>
      <trkpt lat="46.72786" lon="6.11959">
        <ele>1026.34</ele>
        <time>2022-07-30T10:15:01Z</time>
      </trkpt>
      <trkpt lat="46.72795" lon="6.11958">
        <ele>1025.86</ele>
        <time>2022-07-30T10:15:02Z</time>
      </trkpt>
      <trkpt lat="46.72803" lon="6.11958">
        <ele>1025.86</ele>
        <time>2022-07-30T10:15:03Z</time>
      </trkpt>
      <trkpt lat="46.72811" lon="6.11959">
        <ele>1025.38</ele>
        <time>2022-07-30T10:15:04Z</time>
      </trkpt>
      <trkpt lat="46.72876" lon="6.11954">
        <ele>1024.9</ele>
        <time>2022-07-30T10:15:14Z</time>
      </trkpt>
      <trkpt lat="46.72881" lon="6.11951">
        <ele>1024.42</ele>
        <time>2022-07-30T10:15:15Z</time>
      </trkpt>
      <trkpt lat="46.72887" lon="6.11948">
        <ele>1024.42</ele>
        <time>2022-07-30T10:15:16Z</time>
      </trkpt>
      <trkpt lat="46.7291" lon="6.11929">
        <ele>1024.42</ele>
        <time>2022-07-30T10:15:24Z</time>
      </trkpt>
      <trkpt lat="46.72909" lon="6.1193">
        <ele>1023.94</ele>
        <time>2022-07-30T10:15:34Z</time>
      </trkpt>
      <trkpt lat="46.72905" lon="6.11928">
        <ele>1023.94</ele>
        <time>2022-07-30T10:16:01Z</time>
      </trkpt>
      <trkpt lat="46.72904" lon="6.11926">
        <ele>1023.46</ele>
        <time>2022-07-30T10:16:18Z</time>
      </trkpt>
      <trkpt lat="46.72912" lon="6.11911">
        <ele>1023.46</ele>
        <time>2022-07-30T10:16:29Z</time>
      </trkpt>
      <trkpt lat="46.72927" lon="6.11869">
        <ele>1022.98</ele>
        <time>2022-07-30T10:16:39Z</time>
      </trkpt>
      <trkpt lat="46.72937" lon="6.11797">
        <ele>1021.54</ele>
        <time>2022-07-30T10:16:51Z</time>
      </trkpt>
      <trkpt lat="46.72961" lon="6.11699">
        <ele>1017.69</ele>
        <time>2022-07-30T10:17:03Z</time>
      </trkpt>
      <trkpt lat="46.72963" lon="6.1169">
        <ele>1017.21</ele>
        <time>2022-07-30T10:17:04Z</time>
      </trkpt>
      <trkpt lat="46.72971" lon="6.11665">
        <ele>1017.21</ele>
        <time>2022-07-30T10:17:07Z</time>
      </trkpt>
      <trkpt lat="46.73002" lon="6.11588">
        <ele>1015.29</ele>
        <time>2022-07-30T10:17:16Z</time>
      </trkpt>
      <trkpt lat="46.73005" lon="6.11578">
        <ele>1015.77</ele>
        <time>2022-07-30T10:17:17Z</time>
      </trkpt>
      <trkpt lat="46.73011" lon="6.11423">
        <ele>1015.77</ele>
        <time>2022-07-30T10:17:31Z</time>
      </trkpt>
      <trkpt lat="46.73012" lon="6.11306">
        <ele>1016.25</ele>
        <time>2022-07-30T10:17:47Z</time>
      </trkpt>
      <trkpt lat="46.73004" lon="6.1125">
        <ele>1017.69</ele>
        <time>2022-07-30T10:17:56Z</time>
      </trkpt>
      <trkpt lat="46.72994" lon="6.11179">
        <ele>1018.65</ele>
        <time>2022-07-30T10:18:07Z</time>
      </trkpt>
      <trkpt lat="46.72995" lon="6.11157">
        <ele>1017.21</ele>
        <time>2022-07-30T10:18:10Z</time>
      </trkpt>
      <trkpt lat="46.72995" lon="6.1115">
        <ele>1017.69</ele>
        <time>2022-07-30T10:18:11Z</time>
      </trkpt>
      <trkpt lat="46.73022" lon="6.11053">
        <ele>1014.81</ele>
        <time>2022-07-30T10:18:22Z</time>
      </trkpt>
      <trkpt lat="46.73052" lon="6.10972">
        <ele>1011.44</ele>
        <time>2022-07-30T10:18:30Z</time>
      </trkpt>
      <trkpt lat="46.73097" lon="6.10889">
        <ele>1008.56</ele>
        <time>2022-07-30T10:18:39Z</time>
      </trkpt>
      <trkpt lat="46.73158" lon="6.10803">
        <ele>1005.2</ele>
        <time>2022-07-30T10:18:50Z</time>
      </trkpt>
      <trkpt lat="46.73188" lon="6.1076">
        <ele>1004.23</ele>
        <time>2022-07-30T10:18:56Z</time>
      </trkpt>
      <trkpt lat="46.73261" lon="6.10656">
        <ele>1003.27</ele>
        <time>2022-07-30T10:19:10Z</time>
      </trkpt>
      <trkpt lat="46.73313" lon="6.10586">
        <ele>1001.83</ele>
        <time>2022-07-30T10:19:21Z</time>
      </trkpt>
      <trkpt lat="46.73316" lon="6.10579">
        <ele>1001.35</ele>
        <time>2022-07-30T10:19:22Z</time>
      </trkpt>
      <trkpt lat="46.73318" lon="6.1057">
        <ele>1001.35</ele>
        <time>2022-07-30T10:19:23Z</time>
      </trkpt>
      <trkpt lat="46.73319" lon="6.10561">
        <ele>1000.87</ele>
        <time>2022-07-30T10:19:24Z</time>
      </trkpt>
      <trkpt lat="46.73317" lon="6.10552">
        <ele>1000.87</ele>
        <time>2022-07-30T10:19:25Z</time>
      </trkpt>
      <trkpt lat="46.73314" lon="6.10544">
        <ele>1000.39</ele>
        <time>2022-07-30T10:19:26Z</time>
      </trkpt>
      <trkpt lat="46.73311" lon="6.10535">
        <ele>999.91</ele>
        <time>2022-07-30T10:19:27Z</time>
      </trkpt>
      <trkpt lat="46.73306" lon="6.10528">
        <ele>999.91</ele>
        <time>2022-07-30T10:19:28Z</time>
      </trkpt>
      <trkpt lat="46.73301" lon="6.1052">
        <ele>999.91</ele>
        <time>2022-07-30T10:19:29Z</time>
      </trkpt>
      <trkpt lat="46.73273" lon="6.10443">
        <ele>997.02</ele>
        <time>2022-07-30T10:19:37Z</time>
      </trkpt>
      <trkpt lat="46.7327" lon="6.10433">
        <ele>997.02</ele>
        <time>2022-07-30T10:19:38Z</time>
      </trkpt>
      <trkpt lat="46.73268" lon="6.10423">
        <ele>996.54</ele>
        <time>2022-07-30T10:19:39Z</time>
      </trkpt>
      <trkpt lat="46.73266" lon="6.10413">
        <ele>997.02</ele>
        <time>2022-07-30T10:19:40Z</time>
      </trkpt>
      <trkpt lat="46.73265" lon="6.10403">
        <ele>996.54</ele>
        <time>2022-07-30T10:19:41Z</time>
      </trkpt>
      <trkpt lat="46.73265" lon="6.10393">
        <ele>996.54</ele>
        <time>2022-07-30T10:19:42Z</time>
      </trkpt>
      <trkpt lat="46.73261" lon="6.10327">
        <ele>994.14</ele>
        <time>2022-07-30T10:19:48Z</time>
      </trkpt>
      <trkpt lat="46.7326" lon="6.10303">
        <ele>992.7</ele>
        <time>2022-07-30T10:19:50Z</time>
      </trkpt>
      <trkpt lat="46.73269" lon="6.10152">
        <ele>991.26</ele>
        <time>2022-07-30T10:20:02Z</time>
      </trkpt>
      <trkpt lat="46.73271" lon="6.1013">
        <ele>989.33</ele>
        <time>2022-07-30T10:20:04Z</time>
      </trkpt>
      <trkpt lat="46.73272" lon="6.1011">
        <ele>989.33</ele>
        <time>2022-07-30T10:20:06Z</time>
      </trkpt>
      <trkpt lat="46.73271" lon="6.10075">
        <ele>989.81</ele>
        <time>2022-07-30T10:20:10Z</time>
      </trkpt>
      <trkpt lat="46.73266" lon="6.10038">
        <ele>990.3</ele>
        <time>2022-07-30T10:20:15Z</time>
      </trkpt>
      <trkpt lat="46.73234" lon="6.09924">
        <ele>990.78</ele>
        <time>2022-07-30T10:20:33Z</time>
      </trkpt>
      <trkpt lat="46.73226" lon="6.098">
        <ele>990.78</ele>
        <time>2022-07-30T10:20:49Z</time>
      </trkpt>
      <trkpt lat="46.73223" lon="6.09655">
        <ele>990.78</ele>
        <time>2022-07-30T10:21:05Z</time>
      </trkpt>
      <trkpt lat="46.73227" lon="6.09572">
        <ele>990.3</ele>
        <time>2022-07-30T10:21:15Z</time>
      </trkpt>
      <trkpt lat="46.7323" lon="6.09554">
        <ele>989.81</ele>
        <time>2022-07-30T10:21:18Z</time>
      </trkpt>
      <trkpt lat="46.73261" lon="6.09464">
        <ele>987.41</ele>
        <time>2022-07-30T10:21:32Z</time>
      </trkpt>
      <trkpt lat="46.7327" lon="6.09444">
        <ele>986.45</ele>
        <time>2022-07-30T10:21:34Z</time>
      </trkpt>
      <trkpt lat="46.73296" lon="6.09377">
        <ele>982.6</ele>
        <time>2022-07-30T10:21:40Z</time>
      </trkpt>
      <trkpt lat="46.733" lon="6.09365">
        <ele>982.12</ele>
        <time>2022-07-30T10:21:41Z</time>
      </trkpt>
      <trkpt lat="46.73324" lon="6.09293">
        <ele>980.2</ele>
        <time>2022-07-30T10:21:47Z</time>
      </trkpt>
      <trkpt lat="46.73328" lon="6.09282">
        <ele>980.2</ele>
        <time>2022-07-30T10:21:48Z</time>
      </trkpt>
      <trkpt lat="46.73334" lon="6.09272">
        <ele>979.24</ele>
        <time>2022-07-30T10:21:49Z</time>
      </trkpt>
      <trkpt lat="46.7334" lon="6.09262">
        <ele>978.28</ele>
        <time>2022-07-30T10:21:50Z</time>
      </trkpt>
      <trkpt lat="46.73346" lon="6.09252">
        <ele>979.24</ele>
        <time>2022-07-30T10:21:51Z</time>
      </trkpt>
      <trkpt lat="46.73353" lon="6.09245">
        <ele>979.24</ele>
        <time>2022-07-30T10:21:52Z</time>
      </trkpt>
      <trkpt lat="46.73362" lon="6.0924">
        <ele>978.76</ele>
        <time>2022-07-30T10:21:53Z</time>
      </trkpt>
      <trkpt lat="46.73371" lon="6.09238">
        <ele>978.28</ele>
        <time>2022-07-30T10:21:54Z</time>
      </trkpt>
      <trkpt lat="46.7338" lon="6.09236">
        <ele>977.32</ele>
        <time>2022-07-30T10:21:55Z</time>
      </trkpt>
      <trkpt lat="46.73388" lon="6.09236">
        <ele>976.84</ele>
        <time>2022-07-30T10:21:56Z</time>
      </trkpt>
      <trkpt lat="46.73396" lon="6.09235">
        <ele>977.8</ele>
        <time>2022-07-30T10:21:57Z</time>
      </trkpt>
      <trkpt lat="46.73402" lon="6.09233">
        <ele>976.36</ele>
        <time>2022-07-30T10:21:58Z</time>
      </trkpt>
      <trkpt lat="46.73408" lon="6.09229">
        <ele>975.39</ele>
        <time>2022-07-30T10:21:59Z</time>
      </trkpt>
      <trkpt lat="46.73413" lon="6.09222">
        <ele>975.39</ele>
        <time>2022-07-30T10:22:00Z</time>
      </trkpt>
      <trkpt lat="46.73417" lon="6.09214">
        <ele>974.91</ele>
        <time>2022-07-30T10:22:01Z</time>
      </trkpt>
      <trkpt lat="46.7342" lon="6.09205">
        <ele>975.39</ele>
        <time>2022-07-30T10:22:02Z</time>
      </trkpt>
      <trkpt lat="46.73423" lon="6.09196">
        <ele>974.43</ele>
        <time>2022-07-30T10:22:03Z</time>
      </trkpt>
      <trkpt lat="46.73451" lon="6.09109">
        <ele>971.55</ele>
        <time>2022-07-30T10:22:12Z</time>
      </trkpt>
      <trkpt lat="46.73491" lon="6.08968">
        <ele>968.67</ele>
        <time>2022-07-30T10:22:26Z</time>
      </trkpt>
      <trkpt lat="46.73507" lon="6.0892">
        <ele>968.18</ele>
        <time>2022-07-30T10:22:32Z</time>
      </trkpt>
      <trkpt lat="46.73509" lon="6.08913">
        <ele>968.67</ele>
        <time>2022-07-30T10:22:33Z</time>
      </trkpt>
      <trkpt lat="46.73512" lon="6.08909">
        <ele>969.15</ele>
        <time>2022-07-30T10:22:34Z</time>
      </trkpt>
      <trkpt lat="46.73516" lon="6.08907">
        <ele>968.18</ele>
        <time>2022-07-30T10:22:35Z</time>
      </trkpt>
      <trkpt lat="46.7352" lon="6.08905">
        <ele>968.18</ele>
        <time>2022-07-30T10:22:36Z</time>
      </trkpt>
      <trkpt lat="46.73525" lon="6.08904">
        <ele>968.67</ele>
        <time>2022-07-30T10:22:37Z</time>
      </trkpt>
      <trkpt lat="46.73529" lon="6.08903">
        <ele>968.18</ele>
        <time>2022-07-30T10:22:38Z</time>
      </trkpt>
      <trkpt lat="46.73538" lon="6.089">
        <ele>967.7</ele>
        <time>2022-07-30T10:22:40Z</time>
      </trkpt>
      <trkpt lat="46.73542" lon="6.08897">
        <ele>967.7</ele>
        <time>2022-07-30T10:22:41Z</time>
      </trkpt>
      <trkpt lat="46.73545" lon="6.08892">
        <ele>967.7</ele>
        <time>2022-07-30T10:22:42Z</time>
      </trkpt>
      <trkpt lat="46.73548" lon="6.08886">
        <ele>967.22</ele>
        <time>2022-07-30T10:22:43Z</time>
      </trkpt>
      <trkpt lat="46.7355" lon="6.0888">
        <ele>968.67</ele>
        <time>2022-07-30T10:22:44Z</time>
      </trkpt>
      <trkpt lat="46.73552" lon="6.08874">
        <ele>967.7</ele>
        <time>2022-07-30T10:22:45Z</time>
      </trkpt>
      <trkpt lat="46.73554" lon="6.08868">
        <ele>967.22</ele>
        <time>2022-07-30T10:22:46Z</time>
      </trkpt>
      <trkpt lat="46.73556" lon="6.08862">
        <ele>968.18</ele>
        <time>2022-07-30T10:22:47Z</time>
      </trkpt>
      <trkpt lat="46.73558" lon="6.08857">
        <ele>970.11</ele>
        <time>2022-07-30T10:22:48Z</time>
      </trkpt>
      <trkpt lat="46.73561" lon="6.08851">
        <ele>969.15</ele>
        <time>2022-07-30T10:22:49Z</time>
      </trkpt>
      <trkpt lat="46.7357" lon="6.08828">
        <ele>966.26</ele>
        <time>2022-07-30T10:22:53Z</time>
      </trkpt>
      <trkpt lat="46.73586" lon="6.08791">
        <ele>965.78</ele>
        <time>2022-07-30T10:22:59Z</time>
      </trkpt>
      <trkpt lat="46.73594" lon="6.08781">
        <ele>965.78</ele>
        <time>2022-07-30T10:23:01Z</time>
      </trkpt>
      <trkpt lat="46.73669" lon="6.08703">
        <ele>963.86</ele>
        <time>2022-07-30T10:23:16Z</time>
      </trkpt>
      <trkpt lat="46.73709" lon="6.08593">
        <ele>961.46</ele>
        <time>2022-07-30T10:23:29Z</time>
      </trkpt>
      <trkpt lat="46.73755" lon="6.08492">
        <ele>958.09</ele>
        <time>2022-07-30T10:23:42Z</time>
      </trkpt>
      <trkpt lat="46.73782" lon="6.08434">
        <ele>955.69</ele>
        <time>2022-07-30T10:23:49Z</time>
      </trkpt>
      <trkpt lat="46.73785" lon="6.08424">
        <ele>955.69</ele>
        <time>2022-07-30T10:23:50Z</time>
      </trkpt>
      <trkpt lat="46.73787" lon="6.08415">
        <ele>955.69</ele>
        <time>2022-07-30T10:23:51Z</time>
      </trkpt>
      <trkpt lat="46.73796" lon="6.08277">
        <ele>955.21</ele>
        <time>2022-07-30T10:24:06Z</time>
      </trkpt>
      <trkpt lat="46.73797" lon="6.08134">
        <ele>953.77</ele>
        <time>2022-07-30T10:24:23Z</time>
      </trkpt>
      <trkpt lat="46.73788" lon="6.0799">
        <ele>952.32</ele>
        <time>2022-07-30T10:24:39Z</time>
      </trkpt>
      <trkpt lat="46.7378" lon="6.07861">
        <ele>949.44</ele>
        <time>2022-07-30T10:24:52Z</time>
      </trkpt>
      <trkpt lat="46.73782" lon="6.07829">
        <ele>948</ele>
        <time>2022-07-30T10:24:55Z</time>
      </trkpt>
      <trkpt lat="46.73784" lon="6.07818">
        <ele>947.52</ele>
        <time>2022-07-30T10:24:56Z</time>
      </trkpt>
      <trkpt lat="46.73788" lon="6.07807">
        <ele>947.04</ele>
        <time>2022-07-30T10:24:57Z</time>
      </trkpt>
      <trkpt lat="46.73795" lon="6.07786">
        <ele>947.04</ele>
        <time>2022-07-30T10:24:59Z</time>
      </trkpt>
      <trkpt lat="46.738" lon="6.07777">
        <ele>946.56</ele>
        <time>2022-07-30T10:25:00Z</time>
      </trkpt>
      <trkpt lat="46.73844" lon="6.07689">
        <ele>943.67</ele>
        <time>2022-07-30T10:25:09Z</time>
      </trkpt>
      <trkpt lat="46.7388" lon="6.07629">
        <ele>940.79</ele>
        <time>2022-07-30T10:25:15Z</time>
      </trkpt>
      <trkpt lat="46.73949" lon="6.07529">
        <ele>937.9</ele>
        <time>2022-07-30T10:25:26Z</time>
      </trkpt>
      <trkpt lat="46.74002" lon="6.07445">
        <ele>935.02</ele>
        <time>2022-07-30T10:25:36Z</time>
      </trkpt>
      <trkpt lat="46.74056" lon="6.07319">
        <ele>931.65</ele>
        <time>2022-07-30T10:25:48Z</time>
      </trkpt>
      <trkpt lat="46.74091" lon="6.07239">
        <ele>928.77</ele>
        <time>2022-07-30T10:25:56Z</time>
      </trkpt>
      <trkpt lat="46.74122" lon="6.07164">
        <ele>925.41</ele>
        <time>2022-07-30T10:26:03Z</time>
      </trkpt>
      <trkpt lat="46.74134" lon="6.07144">
        <ele>924.45</ele>
        <time>2022-07-30T10:26:05Z</time>
      </trkpt>
      <trkpt lat="46.74141" lon="6.07135">
        <ele>924.45</ele>
        <time>2022-07-30T10:26:06Z</time>
      </trkpt>
      <trkpt lat="46.74149" lon="6.07126">
        <ele>922.52</ele>
        <time>2022-07-30T10:26:07Z</time>
      </trkpt>
      <trkpt lat="46.74158" lon="6.07118">
        <ele>922.52</ele>
        <time>2022-07-30T10:26:08Z</time>
      </trkpt>
      <trkpt lat="46.74198" lon="6.07089">
        <ele>919.16</ele>
        <time>2022-07-30T10:26:12Z</time>
      </trkpt>
      <trkpt lat="46.7421" lon="6.07082">
        <ele>917.24</ele>
        <time>2022-07-30T10:26:13Z</time>
      </trkpt>
      <trkpt lat="46.7422" lon="6.07073">
        <ele>916.27</ele>
        <time>2022-07-30T10:26:14Z</time>
      </trkpt>
      <trkpt lat="46.7423" lon="6.07064">
        <ele>915.79</ele>
        <time>2022-07-30T10:26:15Z</time>
      </trkpt>
      <trkpt lat="46.74262" lon="6.07015">
        <ele>914.83</ele>
        <time>2022-07-30T10:26:19Z</time>
      </trkpt>
      <trkpt lat="46.74293" lon="6.06932">
        <ele>910.99</ele>
        <time>2022-07-30T10:26:25Z</time>
      </trkpt>
      <trkpt lat="46.74306" lon="6.0682">
        <ele>907.62</ele>
        <time>2022-07-30T10:26:33Z</time>
      </trkpt>
      <trkpt lat="46.74322" lon="6.06719">
        <ele>904.26</ele>
        <time>2022-07-30T10:26:41Z</time>
      </trkpt>
      <trkpt lat="46.74351" lon="6.06561">
        <ele>903.3</ele>
        <time>2022-07-30T10:26:56Z</time>
      </trkpt>
      <trkpt lat="46.74356" lon="6.06526">
        <ele>902.82</ele>
        <time>2022-07-30T10:27:00Z</time>
      </trkpt>
      <trkpt lat="46.74358" lon="6.06518">
        <ele>903.3</ele>
        <time>2022-07-30T10:27:01Z</time>
      </trkpt>
      <trkpt lat="46.74362" lon="6.06512">
        <ele>902.82</ele>
        <time>2022-07-30T10:27:02Z</time>
      </trkpt>
      <trkpt lat="46.74429" lon="6.06394">
        <ele>901.85</ele>
        <time>2022-07-30T10:27:22Z</time>
      </trkpt>
      <trkpt lat="46.74436" lon="6.06385">
        <ele>901.37</ele>
        <time>2022-07-30T10:27:24Z</time>
      </trkpt>
      <trkpt lat="46.745" lon="6.06311">
        <ele>899.45</ele>
        <time>2022-07-30T10:27:39Z</time>
      </trkpt>
      <trkpt lat="46.74545" lon="6.06255">
        <ele>896.09</ele>
        <time>2022-07-30T10:27:48Z</time>
      </trkpt>
      <trkpt lat="46.74568" lon="6.06217">
        <ele>895.61</ele>
        <time>2022-07-30T10:27:53Z</time>
      </trkpt>
      <trkpt lat="46.74574" lon="6.0621">
        <ele>895.61</ele>
        <time>2022-07-30T10:27:54Z</time>
      </trkpt>
      <trkpt lat="46.7458" lon="6.06205">
        <ele>895.12</ele>
        <time>2022-07-30T10:27:55Z</time>
      </trkpt>
      <trkpt lat="46.74587" lon="6.06201">
        <ele>894.64</ele>
        <time>2022-07-30T10:27:56Z</time>
      </trkpt>
      <trkpt lat="46.74594" lon="6.06198">
        <ele>894.64</ele>
        <time>2022-07-30T10:27:57Z</time>
      </trkpt>
      <trkpt lat="46.74601" lon="6.06195">
        <ele>894.64</ele>
        <time>2022-07-30T10:27:58Z</time>
      </trkpt>
      <trkpt lat="46.74622" lon="6.06183">
        <ele>893.2</ele>
        <time>2022-07-30T10:28:01Z</time>
      </trkpt>
      <trkpt lat="46.74629" lon="6.06178">
        <ele>893.2</ele>
        <time>2022-07-30T10:28:02Z</time>
      </trkpt>
      <trkpt lat="46.74635" lon="6.06171">
        <ele>893.2</ele>
        <time>2022-07-30T10:28:03Z</time>
      </trkpt>
      <trkpt lat="46.7464" lon="6.06165">
        <ele>892.72</ele>
        <time>2022-07-30T10:28:04Z</time>
      </trkpt>
      <trkpt lat="46.74644" lon="6.06157">
        <ele>893.68</ele>
        <time>2022-07-30T10:28:05Z</time>
      </trkpt>
      <trkpt lat="46.74702" lon="6.06036">
        <ele>891.76</ele>
        <time>2022-07-30T10:28:22Z</time>
      </trkpt>
      <trkpt lat="46.74704" lon="6.06029">
        <ele>891.28</ele>
        <time>2022-07-30T10:28:23Z</time>
      </trkpt>
      <trkpt lat="46.74706" lon="6.06022">
        <ele>891.28</ele>
        <time>2022-07-30T10:28:24Z</time>
      </trkpt>
      <trkpt lat="46.74707" lon="6.06014">
        <ele>891.76</ele>
        <time>2022-07-30T10:28:25Z</time>
      </trkpt>
      <trkpt lat="46.74707" lon="6.06007">
        <ele>891.28</ele>
        <time>2022-07-30T10:28:26Z</time>
      </trkpt>
      <trkpt lat="46.74707" lon="6.06">
        <ele>891.28</ele>
        <time>2022-07-30T10:28:27Z</time>
      </trkpt>
      <trkpt lat="46.74707" lon="6.05993">
        <ele>891.76</ele>
        <time>2022-07-30T10:28:28Z</time>
      </trkpt>
      <trkpt lat="46.74695" lon="6.05882">
        <ele>888.88</ele>
        <time>2022-07-30T10:28:42Z</time>
      </trkpt>
      <trkpt lat="46.74686" lon="6.05822">
        <ele>886.47</ele>
        <time>2022-07-30T10:28:48Z</time>
      </trkpt>
      <trkpt lat="46.74676" lon="6.05753">
        <ele>884.55</ele>
        <time>2022-07-30T10:28:54Z</time>
      </trkpt>
      <trkpt lat="46.74672" lon="6.05667">
        <ele>884.07</ele>
        <time>2022-07-30T10:29:01Z</time>
      </trkpt>
      <trkpt lat="46.7468" lon="6.05622">
        <ele>884.07</ele>
        <time>2022-07-30T10:29:05Z</time>
      </trkpt>
      <trkpt lat="46.74684" lon="6.05613">
        <ele>883.11</ele>
        <time>2022-07-30T10:29:06Z</time>
      </trkpt>
      <trkpt lat="46.74687" lon="6.05603">
        <ele>883.11</ele>
        <time>2022-07-30T10:29:07Z</time>
      </trkpt>
      <trkpt lat="46.74691" lon="6.05595">
        <ele>883.11</ele>
        <time>2022-07-30T10:29:08Z</time>
      </trkpt>
      <trkpt lat="46.74696" lon="6.05587">
        <ele>882.63</ele>
        <time>2022-07-30T10:29:09Z</time>
      </trkpt>
      <trkpt lat="46.74701" lon="6.0558">
        <ele>882.63</ele>
        <time>2022-07-30T10:29:10Z</time>
      </trkpt>
      <trkpt lat="46.74707" lon="6.05574">
        <ele>882.63</ele>
        <time>2022-07-30T10:29:11Z</time>
      </trkpt>
      <trkpt lat="46.74713" lon="6.05569">
        <ele>882.15</ele>
        <time>2022-07-30T10:29:12Z</time>
      </trkpt>
      <trkpt lat="46.74791" lon="6.05498">
        <ele>877.82</ele>
        <time>2022-07-30T10:29:24Z</time>
      </trkpt>
      <trkpt lat="46.74798" lon="6.0549">
        <ele>877.82</ele>
        <time>2022-07-30T10:29:25Z</time>
      </trkpt>
      <trkpt lat="46.7483" lon="6.05462">
        <ele>876.38</ele>
        <time>2022-07-30T10:29:29Z</time>
      </trkpt>
      <trkpt lat="46.74894" lon="6.05403">
        <ele>873.01</ele>
        <time>2022-07-30T10:29:38Z</time>
      </trkpt>
      <trkpt lat="46.74909" lon="6.05392">
        <ele>872.53</ele>
        <time>2022-07-30T10:29:40Z</time>
      </trkpt>
      <trkpt lat="46.74933" lon="6.05379">
        <ele>871.57</ele>
        <time>2022-07-30T10:29:43Z</time>
      </trkpt>
      <trkpt lat="46.75009" lon="6.05301">
        <ele>870.13</ele>
        <time>2022-07-30T10:29:54Z</time>
      </trkpt>
      <trkpt lat="46.7507" lon="6.05186">
        <ele>868.69</ele>
        <time>2022-07-30T10:30:09Z</time>
      </trkpt>
      <trkpt lat="46.75089" lon="6.05154">
        <ele>865.8</ele>
        <time>2022-07-30T10:30:13Z</time>
      </trkpt>
      <trkpt lat="46.75095" lon="6.05147">
        <ele>864.84</ele>
        <time>2022-07-30T10:30:14Z</time>
      </trkpt>
      <trkpt lat="46.75103" lon="6.0514">
        <ele>864.84</ele>
        <time>2022-07-30T10:30:15Z</time>
      </trkpt>
      <trkpt lat="46.75111" lon="6.05135">
        <ele>863.4</ele>
        <time>2022-07-30T10:30:16Z</time>
      </trkpt>
      <trkpt lat="46.75119" lon="6.05132">
        <ele>862.92</ele>
        <time>2022-07-30T10:30:17Z</time>
      </trkpt>
      <trkpt lat="46.75128" lon="6.0513">
        <ele>862.92</ele>
        <time>2022-07-30T10:30:18Z</time>
      </trkpt>
      <trkpt lat="46.75138" lon="6.05129">
        <ele>862.44</ele>
        <time>2022-07-30T10:30:19Z</time>
      </trkpt>
      <trkpt lat="46.75147" lon="6.05128">
        <ele>862.44</ele>
        <time>2022-07-30T10:30:20Z</time>
      </trkpt>
      <trkpt lat="46.75173" lon="6.05128">
        <ele>861.48</ele>
        <time>2022-07-30T10:30:23Z</time>
      </trkpt>
      <trkpt lat="46.75182" lon="6.05129">
        <ele>863.4</ele>
        <time>2022-07-30T10:30:24Z</time>
      </trkpt>
      <trkpt lat="46.7519" lon="6.05133">
        <ele>861.48</ele>
        <time>2022-07-30T10:30:25Z</time>
      </trkpt>
      <trkpt lat="46.75197" lon="6.05137">
        <ele>861.48</ele>
        <time>2022-07-30T10:30:26Z</time>
      </trkpt>
      <trkpt lat="46.75205" lon="6.05144">
        <ele>861.48</ele>
        <time>2022-07-30T10:30:27Z</time>
      </trkpt>
      <trkpt lat="46.75211" lon="6.05151">
        <ele>861.48</ele>
        <time>2022-07-30T10:30:28Z</time>
      </trkpt>
      <trkpt lat="46.75216" lon="6.05158">
        <ele>862.44</ele>
        <time>2022-07-30T10:30:29Z</time>
      </trkpt>
      <trkpt lat="46.75221" lon="6.05165">
        <ele>861.96</ele>
        <time>2022-07-30T10:30:30Z</time>
      </trkpt>
      <trkpt lat="46.75232" lon="6.05177">
        <ele>861.96</ele>
        <time>2022-07-30T10:30:32Z</time>
      </trkpt>
      <trkpt lat="46.75238" lon="6.05182">
        <ele>861.48</ele>
        <time>2022-07-30T10:30:33Z</time>
      </trkpt>
      <trkpt lat="46.75245" lon="6.05185">
        <ele>860.04</ele>
        <time>2022-07-30T10:30:34Z</time>
      </trkpt>
      <trkpt lat="46.75252" lon="6.05187">
        <ele>860.04</ele>
        <time>2022-07-30T10:30:35Z</time>
      </trkpt>
      <trkpt lat="46.7526" lon="6.05188">
        <ele>858.59</ele>
        <time>2022-07-30T10:30:36Z</time>
      </trkpt>
      <trkpt lat="46.75359" lon="6.05176">
        <ele>856.67</ele>
        <time>2022-07-30T10:30:49Z</time>
      </trkpt>
      <trkpt lat="46.75381" lon="6.05169">
        <ele>857.15</ele>
        <time>2022-07-30T10:30:53Z</time>
      </trkpt>
      <trkpt lat="46.75385" lon="6.05167">
        <ele>856.67</ele>
        <time>2022-07-30T10:30:54Z</time>
      </trkpt>
      <trkpt lat="46.75422" lon="6.05147">
        <ele>857.15</ele>
        <time>2022-07-30T10:31:03Z</time>
      </trkpt>
      <trkpt lat="46.75426" lon="6.05146">
        <ele>857.15</ele>
        <time>2022-07-30T10:31:04Z</time>
      </trkpt>
      <trkpt lat="46.7543" lon="6.05147">
        <ele>856.19</ele>
        <time>2022-07-30T10:31:05Z</time>
      </trkpt>
      <trkpt lat="46.75492" lon="6.05168">
        <ele>855.23</ele>
        <time>2022-07-30T10:31:17Z</time>
      </trkpt>
      <trkpt lat="46.75497" lon="6.05169">
        <ele>854.27</ele>
        <time>2022-07-30T10:31:18Z</time>
      </trkpt>
      <trkpt lat="46.75502" lon="6.05168">
        <ele>854.75</ele>
        <time>2022-07-30T10:31:19Z</time>
      </trkpt>
      <trkpt lat="46.75507" lon="6.05165">
        <ele>854.75</ele>
        <time>2022-07-30T10:31:20Z</time>
      </trkpt>
      <trkpt lat="46.75512" lon="6.05162">
        <ele>855.71</ele>
        <time>2022-07-30T10:31:21Z</time>
      </trkpt>
      <trkpt lat="46.75516" lon="6.05159">
        <ele>854.75</ele>
        <time>2022-07-30T10:31:22Z</time>
      </trkpt>
      <trkpt lat="46.75526" lon="6.0515">
        <ele>854.75</ele>
        <time>2022-07-30T10:31:24Z</time>
      </trkpt>
      <trkpt lat="46.7553" lon="6.05144">
        <ele>854.75</ele>
        <time>2022-07-30T10:31:25Z</time>
      </trkpt>
      <trkpt lat="46.75586" lon="6.05079">
        <ele>854.27</ele>
        <time>2022-07-30T10:31:40Z</time>
      </trkpt>
      <trkpt lat="46.75589" lon="6.05075">
        <ele>854.75</ele>
        <time>2022-07-30T10:31:41Z</time>
      </trkpt>
      <trkpt lat="46.75602" lon="6.05057">
        <ele>854.75</ele>
        <time>2022-07-30T10:31:45Z</time>
      </trkpt>
      <trkpt lat="46.75616" lon="6.05029">
        <ele>855.23</ele>
        <time>2022-07-30T10:31:50Z</time>
      </trkpt>
      <trkpt lat="46.7562" lon="6.05025">
        <ele>855.71</ele>
        <time>2022-07-30T10:31:51Z</time>
      </trkpt>
      <trkpt lat="46.75626" lon="6.05018">
        <ele>856.19</ele>
        <time>2022-07-30T10:31:53Z</time>
      </trkpt>
      <trkpt lat="46.75629" lon="6.05015">
        <ele>856.19</ele>
        <time>2022-07-30T10:31:54Z</time>
      </trkpt>
      <trkpt lat="46.75633" lon="6.05014">
        <ele>856.67</ele>
        <time>2022-07-30T10:31:55Z</time>
      </trkpt>
      <trkpt lat="46.75687" lon="6.05017">
        <ele>856.19</ele>
        <time>2022-07-30T10:32:09Z</time>
      </trkpt>
      <trkpt lat="46.75754" lon="6.0504">
        <ele>854.75</ele>
        <time>2022-07-30T10:32:22Z</time>
      </trkpt>
      <trkpt lat="46.75823" lon="6.05108">
        <ele>851.87</ele>
        <time>2022-07-30T10:32:36Z</time>
      </trkpt>
      <trkpt lat="46.75882" lon="6.05167">
        <ele>848.5</ele>
        <time>2022-07-30T10:32:47Z</time>
      </trkpt>
      <trkpt lat="46.75888" lon="6.05172">
        <ele>848.5</ele>
        <time>2022-07-30T10:32:48Z</time>
      </trkpt>
      <trkpt lat="46.75931" lon="6.05215">
        <ele>845.14</ele>
        <time>2022-07-30T10:32:55Z</time>
      </trkpt>
      <trkpt lat="46.75939" lon="6.05221">
        <ele>845.62</ele>
        <time>2022-07-30T10:32:56Z</time>
      </trkpt>
      <trkpt lat="46.75993" lon="6.05244">
        <ele>842.73</ele>
        <time>2022-07-30T10:33:03Z</time>
      </trkpt>
      <trkpt lat="46.76027" lon="6.05249">
        <ele>838.89</ele>
        <time>2022-07-30T10:33:07Z</time>
      </trkpt>
      <trkpt lat="46.76036" lon="6.05245">
        <ele>839.37</ele>
        <time>2022-07-30T10:33:08Z</time>
      </trkpt>
      <trkpt lat="46.76046" lon="6.0524">
        <ele>839.37</ele>
        <time>2022-07-30T10:33:09Z</time>
      </trkpt>
      <trkpt lat="46.76055" lon="6.05234">
        <ele>838.89</ele>
        <time>2022-07-30T10:33:10Z</time>
      </trkpt>
      <trkpt lat="46.76064" lon="6.05227">
        <ele>838.41</ele>
        <time>2022-07-30T10:33:11Z</time>
      </trkpt>
      <trkpt lat="46.76074" lon="6.0522">
        <ele>836.48</ele>
        <time>2022-07-30T10:33:12Z</time>
      </trkpt>
      <trkpt lat="46.76083" lon="6.05213">
        <ele>836.48</ele>
        <time>2022-07-30T10:33:13Z</time>
      </trkpt>
      <trkpt lat="46.76102" lon="6.052">
        <ele>834.56</ele>
        <time>2022-07-30T10:33:15Z</time>
      </trkpt>
      <trkpt lat="46.76132" lon="6.05181">
        <ele>831.68</ele>
        <time>2022-07-30T10:33:18Z</time>
      </trkpt>
      <trkpt lat="46.76181" lon="6.05151">
        <ele>827.83</ele>
        <time>2022-07-30T10:33:22Z</time>
      </trkpt>
      <trkpt lat="46.76212" lon="6.05124">
        <ele>824.47</ele>
        <time>2022-07-30T10:33:25Z</time>
      </trkpt>
      <trkpt lat="46.76242" lon="6.05094">
        <ele>821.1</ele>
        <time>2022-07-30T10:33:28Z</time>
      </trkpt>
      <trkpt lat="46.76273" lon="6.05062">
        <ele>818.7</ele>
        <time>2022-07-30T10:33:31Z</time>
      </trkpt>
      <trkpt lat="46.76294" lon="6.0504">
        <ele>815.82</ele>
        <time>2022-07-30T10:33:33Z</time>
      </trkpt>
      <trkpt lat="46.76336" lon="6.04995">
        <ele>812.45</ele>
        <time>2022-07-30T10:33:37Z</time>
      </trkpt>
      <trkpt lat="46.76347" lon="6.04986">
        <ele>811.49</ele>
        <time>2022-07-30T10:33:38Z</time>
      </trkpt>
      <trkpt lat="46.76359" lon="6.04978">
        <ele>811.49</ele>
        <time>2022-07-30T10:33:39Z</time>
      </trkpt>
      <trkpt lat="46.76371" lon="6.04971">
        <ele>811.49</ele>
        <time>2022-07-30T10:33:40Z</time>
      </trkpt>
      <trkpt lat="46.76383" lon="6.04967">
        <ele>810.05</ele>
        <time>2022-07-30T10:33:41Z</time>
      </trkpt>
      <trkpt lat="46.76395" lon="6.04963">
        <ele>809.57</ele>
        <time>2022-07-30T10:33:42Z</time>
      </trkpt>
      <trkpt lat="46.76407" lon="6.0496">
        <ele>809.09</ele>
        <time>2022-07-30T10:33:43Z</time>
      </trkpt>
      <trkpt lat="46.76419" lon="6.04959">
        <ele>808.61</ele>
        <time>2022-07-30T10:33:44Z</time>
      </trkpt>
      <trkpt lat="46.76468" lon="6.04958">
        <ele>804.28</ele>
        <time>2022-07-30T10:33:48Z</time>
      </trkpt>
      <trkpt lat="46.76514" lon="6.04956">
        <ele>800.92</ele>
        <time>2022-07-30T10:33:52Z</time>
      </trkpt>
      <trkpt lat="46.76537" lon="6.04954">
        <ele>799.95</ele>
        <time>2022-07-30T10:33:54Z</time>
      </trkpt>
      <trkpt lat="46.76558" lon="6.04956">
        <ele>798.51</ele>
        <time>2022-07-30T10:33:56Z</time>
      </trkpt>
      <trkpt lat="46.76568" lon="6.04961">
        <ele>797.07</ele>
        <time>2022-07-30T10:33:57Z</time>
      </trkpt>
      <trkpt lat="46.76578" lon="6.04966">
        <ele>796.11</ele>
        <time>2022-07-30T10:33:58Z</time>
      </trkpt>
      <trkpt lat="46.76587" lon="6.04973">
        <ele>795.15</ele>
        <time>2022-07-30T10:33:59Z</time>
      </trkpt>
      <trkpt lat="46.76595" lon="6.0498">
        <ele>794.19</ele>
        <time>2022-07-30T10:34:00Z</time>
      </trkpt>
      <trkpt lat="46.76612" lon="6.04995">
        <ele>793.71</ele>
        <time>2022-07-30T10:34:02Z</time>
      </trkpt>
      <trkpt lat="46.76662" lon="6.05034">
        <ele>789.86</ele>
        <time>2022-07-30T10:34:08Z</time>
      </trkpt>
      <trkpt lat="46.76671" lon="6.05038">
        <ele>788.9</ele>
        <time>2022-07-30T10:34:09Z</time>
      </trkpt>
      <trkpt lat="46.7668" lon="6.05041">
        <ele>788.9</ele>
        <time>2022-07-30T10:34:10Z</time>
      </trkpt>
      <trkpt lat="46.76689" lon="6.05042">
        <ele>788.42</ele>
        <time>2022-07-30T10:34:11Z</time>
      </trkpt>
      <trkpt lat="46.76698" lon="6.05043">
        <ele>787.94</ele>
        <time>2022-07-30T10:34:12Z</time>
      </trkpt>
      <trkpt lat="46.76707" lon="6.05042">
        <ele>786.98</ele>
        <time>2022-07-30T10:34:13Z</time>
      </trkpt>
      <trkpt lat="46.76716" lon="6.0504">
        <ele>785.53</ele>
        <time>2022-07-30T10:34:14Z</time>
      </trkpt>
      <trkpt lat="46.76725" lon="6.05036">
        <ele>785.53</ele>
        <time>2022-07-30T10:34:15Z</time>
      </trkpt>
      <trkpt lat="46.76734" lon="6.05032">
        <ele>785.05</ele>
        <time>2022-07-30T10:34:16Z</time>
      </trkpt>
      <trkpt lat="46.76742" lon="6.05027">
        <ele>785.05</ele>
        <time>2022-07-30T10:34:17Z</time>
      </trkpt>
      <trkpt lat="46.7675" lon="6.05021">
        <ele>784.09</ele>
        <time>2022-07-30T10:34:18Z</time>
      </trkpt>
      <trkpt lat="46.76758" lon="6.05014">
        <ele>784.09</ele>
        <time>2022-07-30T10:34:19Z</time>
      </trkpt>
      <trkpt lat="46.76765" lon="6.05007">
        <ele>784.57</ele>
        <time>2022-07-30T10:34:20Z</time>
      </trkpt>
      <trkpt lat="46.76825" lon="6.0491">
        <ele>783.61</ele>
        <time>2022-07-30T10:34:32Z</time>
      </trkpt>
      <trkpt lat="46.76834" lon="6.04888">
        <ele>783.13</ele>
        <time>2022-07-30T10:34:35Z</time>
      </trkpt>
      <trkpt lat="46.76897" lon="6.04797">
        <ele>782.65</ele>
        <time>2022-07-30T10:34:53Z</time>
      </trkpt>
      <trkpt lat="46.7692" lon="6.04764">
        <ele>784.09</ele>
        <time>2022-07-30T10:35:06Z</time>
      </trkpt>
      <trkpt lat="46.76945" lon="6.04726">
        <ele>786.02</ele>
        <time>2022-07-30T10:35:21Z</time>
      </trkpt>
      <trkpt lat="46.76974" lon="6.04677">
        <ele>785.53</ele>
        <time>2022-07-30T10:35:39Z</time>
      </trkpt>
      <trkpt lat="46.77001" lon="6.04623">
        <ele>785.05</ele>
        <time>2022-07-30T10:35:53Z</time>
      </trkpt>
      <trkpt lat="46.76999" lon="6.04559">
        <ele>785.05</ele>
        <time>2022-07-30T10:36:06Z</time>
      </trkpt>
      <trkpt lat="46.76988" lon="6.04524">
        <ele>784.57</ele>
        <time>2022-07-30T10:36:20Z</time>
      </trkpt>
      <trkpt lat="46.76989" lon="6.0447">
        <ele>783.61</ele>
        <time>2022-07-30T10:36:32Z</time>
      </trkpt>
      <trkpt lat="46.77045" lon="6.04434">
        <ele>782.17</ele>
        <time>2022-07-30T10:36:47Z</time>
      </trkpt>
      <trkpt lat="46.7705" lon="6.04431">
        <ele>781.69</ele>
        <time>2022-07-30T10:36:48Z</time>
      </trkpt>
      <trkpt lat="46.77078" lon="6.04409">
        <ele>781.21</ele>
        <time>2022-07-30T10:36:54Z</time>
      </trkpt>
      <trkpt lat="46.77083" lon="6.04403">
        <ele>779.77</ele>
        <time>2022-07-30T10:36:55Z</time>
      </trkpt>
      <trkpt lat="46.77088" lon="6.04397">
        <ele>780.25</ele>
        <time>2022-07-30T10:36:56Z</time>
      </trkpt>
      <trkpt lat="46.77092" lon="6.04389">
        <ele>779.29</ele>
        <time>2022-07-30T10:36:57Z</time>
      </trkpt>
      <trkpt lat="46.77096" lon="6.0438">
        <ele>778.81</ele>
        <time>2022-07-30T10:36:58Z</time>
      </trkpt>
      <trkpt lat="46.77099" lon="6.0437">
        <ele>778.81</ele>
        <time>2022-07-30T10:36:59Z</time>
      </trkpt>
      <trkpt lat="46.77117" lon="6.04277">
        <ele>775.92</ele>
        <time>2022-07-30T10:37:07Z</time>
      </trkpt>
      <trkpt lat="46.77121" lon="6.04266">
        <ele>775.92</ele>
        <time>2022-07-30T10:37:08Z</time>
      </trkpt>
      <trkpt lat="46.77128" lon="6.04256">
        <ele>774.48</ele>
        <time>2022-07-30T10:37:09Z</time>
      </trkpt>
      <trkpt lat="46.77137" lon="6.0425">
        <ele>774.48</ele>
        <time>2022-07-30T10:37:10Z</time>
      </trkpt>
      <trkpt lat="46.77146" lon="6.04248">
        <ele>773.52</ele>
        <time>2022-07-30T10:37:11Z</time>
      </trkpt>
      <trkpt lat="46.77156" lon="6.04252">
        <ele>773.04</ele>
        <time>2022-07-30T10:37:12Z</time>
      </trkpt>
      <trkpt lat="46.77165" lon="6.04259">
        <ele>773.52</ele>
        <time>2022-07-30T10:37:13Z</time>
      </trkpt>
      <trkpt lat="46.77173" lon="6.04268">
        <ele>770.15</ele>
        <time>2022-07-30T10:37:14Z</time>
      </trkpt>
      <trkpt lat="46.7718" lon="6.04279">
        <ele>769.19</ele>
        <time>2022-07-30T10:37:15Z</time>
      </trkpt>
      <trkpt lat="46.77187" lon="6.0429">
        <ele>768.71</ele>
        <time>2022-07-30T10:37:16Z</time>
      </trkpt>
      <trkpt lat="46.77194" lon="6.04301">
        <ele>767.75</ele>
        <time>2022-07-30T10:37:17Z</time>
      </trkpt>
      <trkpt lat="46.77201" lon="6.0431">
        <ele>766.79</ele>
        <time>2022-07-30T10:37:18Z</time>
      </trkpt>
      <trkpt lat="46.7721" lon="6.04317">
        <ele>765.35</ele>
        <time>2022-07-30T10:37:19Z</time>
      </trkpt>
      <trkpt lat="46.7722" lon="6.04323">
        <ele>764.87</ele>
        <time>2022-07-30T10:37:20Z</time>
      </trkpt>
      <trkpt lat="46.7723" lon="6.04329">
        <ele>764.39</ele>
        <time>2022-07-30T10:37:21Z</time>
      </trkpt>
      <trkpt lat="46.7724" lon="6.04333">
        <ele>763.9</ele>
        <time>2022-07-30T10:37:22Z</time>
      </trkpt>
      <trkpt lat="46.77251" lon="6.04335">
        <ele>761.98</ele>
        <time>2022-07-30T10:37:23Z</time>
      </trkpt>
      <trkpt lat="46.77262" lon="6.04334">
        <ele>761.5</ele>
        <time>2022-07-30T10:37:24Z</time>
      </trkpt>
      <trkpt lat="46.77273" lon="6.0433">
        <ele>761.5</ele>
        <time>2022-07-30T10:37:25Z</time>
      </trkpt>
      <trkpt lat="46.77283" lon="6.04325">
        <ele>761.02</ele>
        <time>2022-07-30T10:37:26Z</time>
      </trkpt>
      <trkpt lat="46.77293" lon="6.04318">
        <ele>760.54</ele>
        <time>2022-07-30T10:37:27Z</time>
      </trkpt>
      <trkpt lat="46.77302" lon="6.04311">
        <ele>760.54</ele>
        <time>2022-07-30T10:37:28Z</time>
      </trkpt>
      <trkpt lat="46.77388" lon="6.0425">
        <ele>761.5</ele>
        <time>2022-07-30T10:37:39Z</time>
      </trkpt>
      <trkpt lat="46.7745" lon="6.04221">
        <ele>761.98</ele>
        <time>2022-07-30T10:37:51Z</time>
      </trkpt>
      <trkpt lat="46.77477" lon="6.0422">
        <ele>764.87</ele>
        <time>2022-07-30T10:38:03Z</time>
      </trkpt>
      <trkpt lat="46.775" lon="6.04222">
        <ele>767.75</ele>
        <time>2022-07-30T10:38:16Z</time>
      </trkpt>
      <trkpt lat="46.77528" lon="6.04225">
        <ele>767.75</ele>
        <time>2022-07-30T10:38:33Z</time>
      </trkpt>
      <trkpt lat="46.77553" lon="6.04229">
        <ele>770.63</ele>
        <time>2022-07-30T10:38:47Z</time>
      </trkpt>
      <trkpt lat="46.77571" lon="6.04221">
        <ele>772.08</ele>
        <time>2022-07-30T10:39:00Z</time>
      </trkpt>
      <trkpt lat="46.77591" lon="6.04217">
        <ele>773.52</ele>
        <time>2022-07-30T10:39:13Z</time>
      </trkpt>
      <trkpt lat="46.77623" lon="6.04225">
        <ele>775.92</ele>
        <time>2022-07-30T10:39:32Z</time>
      </trkpt>
      <trkpt lat="46.77655" lon="6.04234">
        <ele>778.32</ele>
        <time>2022-07-30T10:39:52Z</time>
      </trkpt>
      <trkpt lat="46.7768" lon="6.04246">
        <ele>781.21</ele>
        <time>2022-07-30T10:40:08Z</time>
      </trkpt>
      <trkpt lat="46.77706" lon="6.04265">
        <ele>784.57</ele>
        <time>2022-07-30T10:40:25Z</time>
      </trkpt>
      <trkpt lat="46.77727" lon="6.04263">
        <ele>786.98</ele>
        <time>2022-07-30T10:40:38Z</time>
      </trkpt>
      <trkpt lat="46.77727" lon="6.0426">
        <ele>786.98</ele>
        <time>2022-07-30T10:40:39Z</time>
      </trkpt>
      <trkpt lat="46.77728" lon="6.04254">
        <ele>787.94</ele>
        <time>2022-07-30T10:40:42Z</time>
      </trkpt>
      <trkpt lat="46.77727" lon="6.04232">
        <ele>790.34</ele>
        <time>2022-07-30T10:40:55Z</time>
      </trkpt>
      <trkpt lat="46.77727" lon="6.0422">
        <ele>792.26</ele>
        <time>2022-07-30T10:41:01Z</time>
      </trkpt>
      <trkpt lat="46.77727" lon="6.04218">
        <ele>792.26</ele>
        <time>2022-07-30T10:41:02Z</time>
      </trkpt>
      <trkpt lat="46.77728" lon="6.04216">
        <ele>791.78</ele>
        <time>2022-07-30T10:41:03Z</time>
      </trkpt>
      <trkpt lat="46.77728" lon="6.04215">
        <ele>792.74</ele>
        <time>2022-07-30T10:41:04Z</time>
      </trkpt>
      <trkpt lat="46.77728" lon="6.04213">
        <ele>792.74</ele>
        <time>2022-07-30T10:41:05Z</time>
      </trkpt>
      <trkpt lat="46.77728" lon="6.04211">
        <ele>793.22</ele>
        <time>2022-07-30T10:41:06Z</time>
      </trkpt>
      <trkpt lat="46.77727" lon="6.04209">
        <ele>793.22</ele>
        <time>2022-07-30T10:41:07Z</time>
      </trkpt>
      <trkpt lat="46.77726" lon="6.04207">
        <ele>793.22</ele>
        <time>2022-07-30T10:41:08Z</time>
      </trkpt>
      <trkpt lat="46.77725" lon="6.04206">
        <ele>793.22</ele>
        <time>2022-07-30T10:41:09Z</time>
      </trkpt>
      <trkpt lat="46.7771" lon="6.04173">
        <ele>794.19</ele>
        <time>2022-07-30T10:41:25Z</time>
      </trkpt>
      <trkpt lat="46.77694" lon="6.04139">
        <ele>796.11</ele>
        <time>2022-07-30T10:41:42Z</time>
      </trkpt>
      <trkpt lat="46.7768" lon="6.04103">
        <ele>798.03</ele>
        <time>2022-07-30T10:41:59Z</time>
      </trkpt>
      <trkpt lat="46.77677" lon="6.04095">
        <ele>801.4</ele>
        <time>2022-07-30T10:42:02Z</time>
      </trkpt>
      <trkpt lat="46.77664" lon="6.04057">
        <ele>801.88</ele>
        <time>2022-07-30T10:42:19Z</time>
      </trkpt>
      <trkpt lat="46.77661" lon="6.04054">
        <ele>800.44</ele>
        <time>2022-07-30T10:42:21Z</time>
      </trkpt>
      <trkpt lat="46.77643" lon="6.04029">
        <ele>801.4</ele>
        <time>2022-07-30T10:42:36Z</time>
      </trkpt>
      <trkpt lat="46.77628" lon="6.04015">
        <ele>805.72</ele>
        <time>2022-07-30T10:42:46Z</time>
      </trkpt>
      <trkpt lat="46.77627" lon="6.04013">
        <ele>805.24</ele>
        <time>2022-07-30T10:42:47Z</time>
      </trkpt>
      <trkpt lat="46.77611" lon="6.03983">
        <ele>805.24</ele>
        <time>2022-07-30T10:43:02Z</time>
      </trkpt>
      <trkpt lat="46.77592" lon="6.03945">
        <ele>807.16</ele>
        <time>2022-07-30T10:43:18Z</time>
      </trkpt>
      <trkpt lat="46.77569" lon="6.03899">
        <ele>809.57</ele>
        <time>2022-07-30T10:43:36Z</time>
      </trkpt>
      <trkpt lat="46.77565" lon="6.03888">
        <ele>808.61</ele>
        <time>2022-07-30T10:43:41Z</time>
      </trkpt>
      <trkpt lat="46.77565" lon="6.03884">
        <ele>809.09</ele>
        <time>2022-07-30T10:43:47Z</time>
      </trkpt>
      <trkpt lat="46.77564" lon="6.03882">
        <ele>809.57</ele>
        <time>2022-07-30T10:43:48Z</time>
      </trkpt>
      <trkpt lat="46.77563" lon="6.03881">
        <ele>809.57</ele>
        <time>2022-07-30T10:43:49Z</time>
      </trkpt>
      <trkpt lat="46.77562" lon="6.0388">
        <ele>809.57</ele>
        <time>2022-07-30T10:43:50Z</time>
      </trkpt>
      <trkpt lat="46.7756" lon="6.03878">
        <ele>810.05</ele>
        <time>2022-07-30T10:43:51Z</time>
      </trkpt>
      <trkpt lat="46.77559" lon="6.03877">
        <ele>809.57</ele>
        <time>2022-07-30T10:43:52Z</time>
      </trkpt>
      <trkpt lat="46.77557" lon="6.03876">
        <ele>809.57</ele>
        <time>2022-07-30T10:43:53Z</time>
      </trkpt>
      <trkpt lat="46.77553" lon="6.03873">
        <ele>810.05</ele>
        <time>2022-07-30T10:43:57Z</time>
      </trkpt>
      <trkpt lat="46.77553" lon="6.03874">
        <ele>810.05</ele>
        <time>2022-07-30T10:43:58Z</time>
      </trkpt>
      <trkpt lat="46.77553" lon="6.03878">
        <ele>811.01</ele>
        <time>2022-07-30T10:44:02Z</time>
      </trkpt>
      <trkpt lat="46.77552" lon="6.03877">
        <ele>810.53</ele>
        <time>2022-07-30T10:44:03Z</time>
      </trkpt>
      <trkpt lat="46.7755" lon="6.03875">
        <ele>811.01</ele>
        <time>2022-07-30T10:44:04Z</time>
      </trkpt>
      <trkpt lat="46.77549" lon="6.03875">
        <ele>811.01</ele>
        <time>2022-07-30T10:44:05Z</time>
      </trkpt>
      <trkpt lat="46.77548" lon="6.03872">
        <ele>811.01</ele>
        <time>2022-07-30T10:44:06Z</time>
      </trkpt>
      <trkpt lat="46.77546" lon="6.0387">
        <ele>811.49</ele>
        <time>2022-07-30T10:44:07Z</time>
      </trkpt>
      <trkpt lat="46.77545" lon="6.03868">
        <ele>811.01</ele>
        <time>2022-07-30T10:44:08Z</time>
      </trkpt>
      <trkpt lat="46.77544" lon="6.03865">
        <ele>811.49</ele>
        <time>2022-07-30T10:44:09Z</time>
      </trkpt>
      <trkpt lat="46.77543" lon="6.03863">
        <ele>811.49</ele>
        <time>2022-07-30T10:44:10Z</time>
      </trkpt>
      <trkpt lat="46.77542" lon="6.0386">
        <ele>811.97</ele>
        <time>2022-07-30T10:44:11Z</time>
      </trkpt>
      <trkpt lat="46.77539" lon="6.03854">
        <ele>811.49</ele>
        <time>2022-07-30T10:44:14Z</time>
      </trkpt>
      <trkpt lat="46.77539" lon="6.03851">
        <ele>811.97</ele>
        <time>2022-07-30T10:44:15Z</time>
      </trkpt>
      <trkpt lat="46.77538" lon="6.03848">
        <ele>811.97</ele>
        <time>2022-07-30T10:44:16Z</time>
      </trkpt>
      <trkpt lat="46.77537" lon="6.03845">
        <ele>811.97</ele>
        <time>2022-07-30T10:44:17Z</time>
      </trkpt>
      <trkpt lat="46.77536" lon="6.03843">
        <ele>811.97</ele>
        <time>2022-07-30T10:44:18Z</time>
      </trkpt>
      <trkpt lat="46.77529" lon="6.03816">
        <ele>811.97</ele>
        <time>2022-07-30T10:44:24Z</time>
      </trkpt>
      <trkpt lat="46.77527" lon="6.03814">
        <ele>812.45</ele>
        <time>2022-07-30T10:44:25Z</time>
      </trkpt>
      <trkpt lat="46.77525" lon="6.03811">
        <ele>812.45</ele>
        <time>2022-07-30T10:44:26Z</time>
      </trkpt>
      <trkpt lat="46.77495" lon="6.03756">
        <ele>813.41</ele>
        <time>2022-07-30T10:44:41Z</time>
      </trkpt>
      <trkpt lat="46.77478" lon="6.03732">
        <ele>813.89</ele>
        <time>2022-07-30T10:44:54Z</time>
      </trkpt>
      <trkpt lat="46.77446" lon="6.03697">
        <ele>812.93</ele>
        <time>2022-07-30T10:45:08Z</time>
      </trkpt>
      <trkpt lat="46.7744" lon="6.03688">
        <ele>812.93</ele>
        <time>2022-07-30T10:45:20Z</time>
      </trkpt>
      <trkpt lat="46.77424" lon="6.03661">
        <ele>815.34</ele>
        <time>2022-07-30T10:45:48Z</time>
      </trkpt>
      <trkpt lat="46.77467" lon="6.03655">
        <ele>803.32</ele>
        <time>2022-07-30T12:20:28Z</time>
      </trkpt>
      <trkpt lat="46.77472" lon="6.03656">
        <ele>802.84</ele>
        <time>2022-07-30T12:20:31Z</time>
      </trkpt>
      <trkpt lat="46.77489" lon="6.03647">
        <ele>802.36</ele>
        <time>2022-07-30T12:20:40Z</time>
      </trkpt>
      <trkpt lat="46.77477" lon="6.03624">
        <ele>800.92</ele>
        <time>2022-07-30T12:20:53Z</time>
      </trkpt>
      <trkpt lat="46.77465" lon="6.03605">
        <ele>800.92</ele>
        <time>2022-07-30T12:21:04Z</time>
      </trkpt>
      <trkpt lat="46.77446" lon="6.03593">
        <ele>800.92</ele>
        <time>2022-07-30T12:21:14Z</time>
      </trkpt>
      <trkpt lat="46.77436" lon="6.03586">
        <ele>799.47</ele>
        <time>2022-07-30T12:21:23Z</time>
      </trkpt>
      <trkpt lat="46.77435" lon="6.03584">
        <ele>799.95</ele>
        <time>2022-07-30T12:21:24Z</time>
      </trkpt>
      <trkpt lat="46.77434" lon="6.03582">
        <ele>799.95</ele>
        <time>2022-07-30T12:21:25Z</time>
      </trkpt>
      <trkpt lat="46.77432" lon="6.0358">
        <ele>799.95</ele>
        <time>2022-07-30T12:21:26Z</time>
      </trkpt>
      <trkpt lat="46.77431" lon="6.03578">
        <ele>799.95</ele>
        <time>2022-07-30T12:21:27Z</time>
      </trkpt>
      <trkpt lat="46.77424" lon="6.03569">
        <ele>800.44</ele>
        <time>2022-07-30T12:21:32Z</time>
      </trkpt>
      <trkpt lat="46.77422" lon="6.0357">
        <ele>800.44</ele>
        <time>2022-07-30T12:21:33Z</time>
      </trkpt>
      <trkpt lat="46.77421" lon="6.03571">
        <ele>799.95</ele>
        <time>2022-07-30T12:21:46Z</time>
      </trkpt>
      <trkpt lat="46.77425" lon="6.03572">
        <ele>799.95</ele>
        <time>2022-07-30T12:22:17Z</time>
      </trkpt>
      <trkpt lat="46.77424" lon="6.03576">
        <ele>799.47</ele>
        <time>2022-07-30T12:22:42Z</time>
      </trkpt>
      <trkpt lat="46.77422" lon="6.03574">
        <ele>799.95</ele>
        <time>2022-07-30T12:23:11Z</time>
      </trkpt>
      <trkpt lat="46.77425" lon="6.03579">
        <ele>800.44</ele>
        <time>2022-07-30T12:23:36Z</time>
      </trkpt>
      <trkpt lat="46.77424" lon="6.03584">
        <ele>800.92</ele>
        <time>2022-07-30T12:23:47Z</time>
      </trkpt>
      <trkpt lat="46.7742" lon="6.03588">
        <ele>800.44</ele>
        <time>2022-07-30T12:23:51Z</time>
      </trkpt>
      <trkpt lat="46.7742" lon="6.03589">
        <ele>800.44</ele>
        <time>2022-07-30T12:23:52Z</time>
      </trkpt>
      <trkpt lat="46.77409" lon="6.03592">
        <ele>800.92</ele>
        <time>2022-07-30T12:24:02Z</time>
      </trkpt>
      <trkpt lat="46.77403" lon="6.03591">
        <ele>800.92</ele>
        <time>2022-07-30T12:24:20Z</time>
      </trkpt>
      <trkpt lat="46.77402" lon="6.03591">
        <ele>800.92</ele>
        <time>2022-07-30T12:24:28Z</time>
      </trkpt>
      <trkpt lat="46.774" lon="6.03589">
        <ele>800.92</ele>
        <time>2022-07-30T12:24:30Z</time>
      </trkpt>
      <trkpt lat="46.77399" lon="6.03589">
        <ele>800.92</ele>
        <time>2022-07-30T12:24:31Z</time>
      </trkpt>
      <trkpt lat="46.77397" lon="6.03589">
        <ele>800.92</ele>
        <time>2022-07-30T12:24:32Z</time>
      </trkpt>
      <trkpt lat="46.77389" lon="6.03583">
        <ele>800.92</ele>
        <time>2022-07-30T12:24:38Z</time>
      </trkpt>
      <trkpt lat="46.77389" lon="6.0358">
        <ele>800.44</ele>
        <time>2022-07-30T12:24:39Z</time>
      </trkpt>
      <trkpt lat="46.77389" lon="6.03577">
        <ele>800.44</ele>
        <time>2022-07-30T12:24:40Z</time>
      </trkpt>
      <trkpt lat="46.7739" lon="6.03575">
        <ele>800.44</ele>
        <time>2022-07-30T12:24:41Z</time>
      </trkpt>
      <trkpt lat="46.77391" lon="6.03573">
        <ele>799.95</ele>
        <time>2022-07-30T12:24:42Z</time>
      </trkpt>
      <trkpt lat="46.77391" lon="6.0357">
        <ele>800.44</ele>
        <time>2022-07-30T12:24:43Z</time>
      </trkpt>
      <trkpt lat="46.77401" lon="6.03524">
        <ele>798.99</ele>
        <time>2022-07-30T12:24:55Z</time>
      </trkpt>
      <trkpt lat="46.77407" lon="6.03471">
        <ele>796.11</ele>
        <time>2022-07-30T12:25:08Z</time>
      </trkpt>
      <trkpt lat="46.77436" lon="6.0346">
        <ele>794.19</ele>
        <time>2022-07-30T12:25:16Z</time>
      </trkpt>
      <trkpt lat="46.7744" lon="6.0346">
        <ele>793.71</ele>
        <time>2022-07-30T12:25:17Z</time>
      </trkpt>
      <trkpt lat="46.77443" lon="6.03461">
        <ele>793.71</ele>
        <time>2022-07-30T12:25:18Z</time>
      </trkpt>
      <trkpt lat="46.77447" lon="6.03463">
        <ele>793.22</ele>
        <time>2022-07-30T12:25:19Z</time>
      </trkpt>
      <trkpt lat="46.77451" lon="6.03465">
        <ele>793.22</ele>
        <time>2022-07-30T12:25:20Z</time>
      </trkpt>
      <trkpt lat="46.77454" lon="6.03468">
        <ele>792.74</ele>
        <time>2022-07-30T12:25:21Z</time>
      </trkpt>
      <trkpt lat="46.77472" lon="6.03489">
        <ele>791.3</ele>
        <time>2022-07-30T12:25:30Z</time>
      </trkpt>
      <trkpt lat="46.77474" lon="6.03488">
        <ele>791.78</ele>
        <time>2022-07-30T12:25:31Z</time>
      </trkpt>
      <trkpt lat="46.77477" lon="6.03486">
        <ele>791.3</ele>
        <time>2022-07-30T12:25:32Z</time>
      </trkpt>
      <trkpt lat="46.7748" lon="6.03483">
        <ele>791.78</ele>
        <time>2022-07-30T12:25:33Z</time>
      </trkpt>
      <trkpt lat="46.77482" lon="6.03479">
        <ele>791.3</ele>
        <time>2022-07-30T12:25:34Z</time>
      </trkpt>
      <trkpt lat="46.77498" lon="6.0346">
        <ele>788.9</ele>
        <time>2022-07-30T12:25:41Z</time>
      </trkpt>
      <trkpt lat="46.775" lon="6.03459">
        <ele>788.42</ele>
        <time>2022-07-30T12:25:52Z</time>
      </trkpt>
      <trkpt lat="46.77501" lon="6.03457">
        <ele>788.42</ele>
        <time>2022-07-30T12:25:53Z</time>
      </trkpt>
      <trkpt lat="46.77502" lon="6.03456">
        <ele>788.42</ele>
        <time>2022-07-30T12:25:54Z</time>
      </trkpt>
      <trkpt lat="46.77504" lon="6.03455">
        <ele>787.94</ele>
        <time>2022-07-30T12:25:55Z</time>
      </trkpt>
      <trkpt lat="46.77508" lon="6.03456">
        <ele>788.42</ele>
        <time>2022-07-30T12:25:56Z</time>
      </trkpt>
      <trkpt lat="46.77511" lon="6.03457">
        <ele>787.46</ele>
        <time>2022-07-30T12:25:57Z</time>
      </trkpt>
      <trkpt lat="46.77513" lon="6.03458">
        <ele>787.94</ele>
        <time>2022-07-30T12:25:58Z</time>
      </trkpt>
      <trkpt lat="46.77515" lon="6.03457">
        <ele>787.94</ele>
        <time>2022-07-30T12:25:59Z</time>
      </trkpt>
      <trkpt lat="46.77521" lon="6.03459">
        <ele>787.94</ele>
        <time>2022-07-30T12:26:13Z</time>
      </trkpt>
      <trkpt lat="46.77525" lon="6.03463">
        <ele>787.94</ele>
        <time>2022-07-30T12:26:43Z</time>
      </trkpt>
      <trkpt lat="46.77522" lon="6.03462">
        <ele>787.94</ele>
        <time>2022-07-30T12:26:52Z</time>
      </trkpt>
      <trkpt lat="46.77521" lon="6.0346">
        <ele>787.94</ele>
        <time>2022-07-30T12:26:53Z</time>
      </trkpt>
      <trkpt lat="46.77519" lon="6.03458">
        <ele>787.94</ele>
        <time>2022-07-30T12:26:54Z</time>
      </trkpt>
      <trkpt lat="46.77518" lon="6.03456">
        <ele>787.94</ele>
        <time>2022-07-30T12:26:55Z</time>
      </trkpt>
      <trkpt lat="46.77514" lon="6.03452">
        <ele>787.94</ele>
        <time>2022-07-30T12:26:56Z</time>
      </trkpt>
      <trkpt lat="46.77511" lon="6.03447">
        <ele>786.98</ele>
        <time>2022-07-30T12:26:57Z</time>
      </trkpt>
      <trkpt lat="46.77509" lon="6.03442">
        <ele>786.5</ele>
        <time>2022-07-30T12:26:58Z</time>
      </trkpt>
      <trkpt lat="46.77504" lon="6.03431">
        <ele>786.02</ele>
        <time>2022-07-30T12:27:00Z</time>
      </trkpt>
      <trkpt lat="46.77501" lon="6.03424">
        <ele>785.53</ele>
        <time>2022-07-30T12:27:01Z</time>
      </trkpt>
      <trkpt lat="46.77497" lon="6.03418">
        <ele>785.53</ele>
        <time>2022-07-30T12:27:02Z</time>
      </trkpt>
      <trkpt lat="46.77491" lon="6.03412">
        <ele>785.53</ele>
        <time>2022-07-30T12:27:03Z</time>
      </trkpt>
      <trkpt lat="46.77485" lon="6.03407">
        <ele>785.05</ele>
        <time>2022-07-30T12:27:04Z</time>
      </trkpt>
      <trkpt lat="46.77443" lon="6.03377">
        <ele>780.73</ele>
        <time>2022-07-30T12:27:09Z</time>
      </trkpt>
      <trkpt lat="46.77404" lon="6.03354">
        <ele>777.36</ele>
        <time>2022-07-30T12:27:13Z</time>
      </trkpt>
      <trkpt lat="46.77393" lon="6.0335">
        <ele>776.4</ele>
        <time>2022-07-30T12:27:14Z</time>
      </trkpt>
      <trkpt lat="46.77359" lon="6.03341">
        <ele>774.48</ele>
        <time>2022-07-30T12:27:17Z</time>
      </trkpt>
      <trkpt lat="46.77323" lon="6.03333">
        <ele>771.11</ele>
        <time>2022-07-30T12:27:20Z</time>
      </trkpt>
      <trkpt lat="46.77236" lon="6.03312">
        <ele>766.79</ele>
        <time>2022-07-30T12:27:27Z</time>
      </trkpt>
      <trkpt lat="46.77212" lon="6.03303">
        <ele>765.83</ele>
        <time>2022-07-30T12:27:29Z</time>
      </trkpt>
      <trkpt lat="46.77201" lon="6.03296">
        <ele>764.39</ele>
        <time>2022-07-30T12:27:30Z</time>
      </trkpt>
      <trkpt lat="46.7719" lon="6.03287">
        <ele>764.39</ele>
        <time>2022-07-30T12:27:31Z</time>
      </trkpt>
      <trkpt lat="46.7718" lon="6.03276">
        <ele>762.94</ele>
        <time>2022-07-30T12:27:32Z</time>
      </trkpt>
      <trkpt lat="46.77171" lon="6.03264">
        <ele>762.46</ele>
        <time>2022-07-30T12:27:33Z</time>
      </trkpt>
      <trkpt lat="46.77152" lon="6.0324">
        <ele>761.02</ele>
        <time>2022-07-30T12:27:35Z</time>
      </trkpt>
      <trkpt lat="46.77078" lon="6.03172">
        <ele>759.1</ele>
        <time>2022-07-30T12:27:43Z</time>
      </trkpt>
      <trkpt lat="46.77069" lon="6.03169">
        <ele>758.14</ele>
        <time>2022-07-30T12:27:44Z</time>
      </trkpt>
      <trkpt lat="46.7706" lon="6.03168">
        <ele>757.66</ele>
        <time>2022-07-30T12:27:45Z</time>
      </trkpt>
      <trkpt lat="46.7705" lon="6.03169">
        <ele>758.14</ele>
        <time>2022-07-30T12:27:46Z</time>
      </trkpt>
      <trkpt lat="46.77042" lon="6.03173">
        <ele>757.66</ele>
        <time>2022-07-30T12:27:47Z</time>
      </trkpt>
      <trkpt lat="46.77035" lon="6.03179">
        <ele>758.14</ele>
        <time>2022-07-30T12:27:48Z</time>
      </trkpt>
      <trkpt lat="46.7703" lon="6.03186">
        <ele>758.14</ele>
        <time>2022-07-30T12:27:49Z</time>
      </trkpt>
      <trkpt lat="46.77025" lon="6.03194">
        <ele>758.14</ele>
        <time>2022-07-30T12:27:50Z</time>
      </trkpt>
      <trkpt lat="46.77022" lon="6.03202">
        <ele>758.14</ele>
        <time>2022-07-30T12:27:51Z</time>
      </trkpt>
      <trkpt lat="46.77003" lon="6.03242">
        <ele>758.14</ele>
        <time>2022-07-30T12:28:00Z</time>
      </trkpt>
      <trkpt lat="46.77" lon="6.03247">
        <ele>758.14</ele>
        <time>2022-07-30T12:28:17Z</time>
      </trkpt>
      <trkpt lat="46.76984" lon="6.03272">
        <ele>757.66</ele>
        <time>2022-07-30T12:28:32Z</time>
      </trkpt>
      <trkpt lat="46.76945" lon="6.03276">
        <ele>756.69</ele>
        <time>2022-07-30T12:28:46Z</time>
      </trkpt>
      <trkpt lat="46.76935" lon="6.03271">
        <ele>757.18</ele>
        <time>2022-07-30T12:28:49Z</time>
      </trkpt>
      <trkpt lat="46.76898" lon="6.03228">
        <ele>753.81</ele>
        <time>2022-07-30T12:28:58Z</time>
      </trkpt>
      <trkpt lat="46.76859" lon="6.03182">
        <ele>750.45</ele>
        <time>2022-07-30T12:29:05Z</time>
      </trkpt>
      <trkpt lat="46.76811" lon="6.03146">
        <ele>747.56</ele>
        <time>2022-07-30T12:29:11Z</time>
      </trkpt>
      <trkpt lat="46.76776" lon="6.03119">
        <ele>744.68</ele>
        <time>2022-07-30T12:29:15Z</time>
      </trkpt>
      <trkpt lat="46.76739" lon="6.03083">
        <ele>742.28</ele>
        <time>2022-07-30T12:29:19Z</time>
      </trkpt>
      <trkpt lat="46.76721" lon="6.03064">
        <ele>740.83</ele>
        <time>2022-07-30T12:29:21Z</time>
      </trkpt>
      <trkpt lat="46.76669" lon="6.03022">
        <ele>736.99</ele>
        <time>2022-07-30T12:29:26Z</time>
      </trkpt>
      <trkpt lat="46.76657" lon="6.03016">
        <ele>736.99</ele>
        <time>2022-07-30T12:29:27Z</time>
      </trkpt>
      <trkpt lat="46.7661" lon="6.02993">
        <ele>734.1</ele>
        <time>2022-07-30T12:29:31Z</time>
      </trkpt>
      <trkpt lat="46.76481" lon="6.02932">
        <ele>732.66</ele>
        <time>2022-07-30T12:29:44Z</time>
      </trkpt>
      <trkpt lat="46.76376" lon="6.0288">
        <ele>733.14</ele>
        <time>2022-07-30T12:29:59Z</time>
      </trkpt>
      <trkpt lat="46.76309" lon="6.02849">
        <ele>733.14</ele>
        <time>2022-07-30T12:30:14Z</time>
      </trkpt>
      <trkpt lat="46.76258" lon="6.02823">
        <ele>733.62</ele>
        <time>2022-07-30T12:30:33Z</time>
      </trkpt>
      <trkpt lat="46.76213" lon="6.02801">
        <ele>733.62</ele>
        <time>2022-07-30T12:30:50Z</time>
      </trkpt>
      <trkpt lat="46.76156" lon="6.02775">
        <ele>733.62</ele>
        <time>2022-07-30T12:31:08Z</time>
      </trkpt>
      <trkpt lat="46.76103" lon="6.02748">
        <ele>734.1</ele>
        <time>2022-07-30T12:31:24Z</time>
      </trkpt>
      <trkpt lat="46.76047" lon="6.02717">
        <ele>736.03</ele>
        <time>2022-07-30T12:31:43Z</time>
      </trkpt>
      <trkpt lat="46.76023" lon="6.02668">
        <ele>738.43</ele>
        <time>2022-07-30T12:31:59Z</time>
      </trkpt>
      <trkpt lat="46.76021" lon="6.02613">
        <ele>739.87</ele>
        <time>2022-07-30T12:32:17Z</time>
      </trkpt>
      <trkpt lat="46.7603" lon="6.02551">
        <ele>742.28</ele>
        <time>2022-07-30T12:32:39Z</time>
      </trkpt>
      <trkpt lat="46.76032" lon="6.0254">
        <ele>742.28</ele>
        <time>2022-07-30T12:32:43Z</time>
      </trkpt>
      <trkpt lat="46.76032" lon="6.02538">
        <ele>742.76</ele>
        <time>2022-07-30T12:32:44Z</time>
      </trkpt>
      <trkpt lat="46.76032" lon="6.02535">
        <ele>743.24</ele>
        <time>2022-07-30T12:32:45Z</time>
      </trkpt>
      <trkpt lat="46.76033" lon="6.02533">
        <ele>743.24</ele>
        <time>2022-07-30T12:32:46Z</time>
      </trkpt>
      <trkpt lat="46.76034" lon="6.0253">
        <ele>743.24</ele>
        <time>2022-07-30T12:32:47Z</time>
      </trkpt>
      <trkpt lat="46.76043" lon="6.02485">
        <ele>745.16</ele>
        <time>2022-07-30T12:33:03Z</time>
      </trkpt>
      <trkpt lat="46.76056" lon="6.02439">
        <ele>746.6</ele>
        <time>2022-07-30T12:33:21Z</time>
      </trkpt>
      <trkpt lat="46.76055" lon="6.02395">
        <ele>748.04</ele>
        <time>2022-07-30T12:33:36Z</time>
      </trkpt>
      <trkpt lat="46.7603" lon="6.02367">
        <ele>749.97</ele>
        <time>2022-07-30T12:33:53Z</time>
      </trkpt>
      <trkpt lat="46.76002" lon="6.02365">
        <ele>751.41</ele>
        <time>2022-07-30T12:34:07Z</time>
      </trkpt>
      <trkpt lat="46.75974" lon="6.02366">
        <ele>752.37</ele>
        <time>2022-07-30T12:34:22Z</time>
      </trkpt>
      <trkpt lat="46.75937" lon="6.0238">
        <ele>754.77</ele>
        <time>2022-07-30T12:34:42Z</time>
      </trkpt>
      <trkpt lat="46.7592" lon="6.02408">
        <ele>755.73</ele>
        <time>2022-07-30T12:34:56Z</time>
      </trkpt>
      <trkpt lat="46.75903" lon="6.02443">
        <ele>757.66</ele>
        <time>2022-07-30T12:35:12Z</time>
      </trkpt>
      <trkpt lat="46.75874" lon="6.02463">
        <ele>759.58</ele>
        <time>2022-07-30T12:35:31Z</time>
      </trkpt>
      <trkpt lat="46.7584" lon="6.02477">
        <ele>761.5</ele>
        <time>2022-07-30T12:35:50Z</time>
      </trkpt>
      <trkpt lat="46.75797" lon="6.02484">
        <ele>763.9</ele>
        <time>2022-07-30T12:36:14Z</time>
      </trkpt>
      <trkpt lat="46.75763" lon="6.02491">
        <ele>765.35</ele>
        <time>2022-07-30T12:36:34Z</time>
      </trkpt>
      <trkpt lat="46.75735" lon="6.02503">
        <ele>767.27</ele>
        <time>2022-07-30T12:36:51Z</time>
      </trkpt>
      <trkpt lat="46.75704" lon="6.0251">
        <ele>769.19</ele>
        <time>2022-07-30T12:37:07Z</time>
      </trkpt>
      <trkpt lat="46.75677" lon="6.02502">
        <ele>770.15</ele>
        <time>2022-07-30T12:37:23Z</time>
      </trkpt>
      <trkpt lat="46.75648" lon="6.02497">
        <ele>772.08</ele>
        <time>2022-07-30T12:37:40Z</time>
      </trkpt>
      <trkpt lat="46.75625" lon="6.0248">
        <ele>773.52</ele>
        <time>2022-07-30T12:37:57Z</time>
      </trkpt>
      <trkpt lat="46.75622" lon="6.02478">
        <ele>774</ele>
        <time>2022-07-30T12:37:59Z</time>
      </trkpt>
      <trkpt lat="46.75621" lon="6.02476">
        <ele>774</ele>
        <time>2022-07-30T12:38:00Z</time>
      </trkpt>
      <trkpt lat="46.7562" lon="6.02475">
        <ele>774</ele>
        <time>2022-07-30T12:38:01Z</time>
      </trkpt>
      <trkpt lat="46.75606" lon="6.02443">
        <ele>776.4</ele>
        <time>2022-07-30T12:38:19Z</time>
      </trkpt>
      <trkpt lat="46.756" lon="6.02434">
        <ele>776.4</ele>
        <time>2022-07-30T12:38:24Z</time>
      </trkpt>
      <trkpt lat="46.75598" lon="6.02434">
        <ele>776.4</ele>
        <time>2022-07-30T12:38:25Z</time>
      </trkpt>
      <trkpt lat="46.75596" lon="6.02433">
        <ele>776.4</ele>
        <time>2022-07-30T12:38:26Z</time>
      </trkpt>
      <trkpt lat="46.75594" lon="6.02431">
        <ele>777.36</ele>
        <time>2022-07-30T12:38:27Z</time>
      </trkpt>
      <trkpt lat="46.75593" lon="6.02431">
        <ele>777.36</ele>
        <time>2022-07-30T12:38:28Z</time>
      </trkpt>
      <trkpt lat="46.7559" lon="6.0243">
        <ele>777.36</ele>
        <time>2022-07-30T12:38:29Z</time>
      </trkpt>
      <trkpt lat="46.75589" lon="6.02429">
        <ele>777.84</ele>
        <time>2022-07-30T12:38:30Z</time>
      </trkpt>
      <trkpt lat="46.7556" lon="6.02424">
        <ele>779.29</ele>
        <time>2022-07-30T12:38:47Z</time>
      </trkpt>
      <trkpt lat="46.75524" lon="6.0242">
        <ele>781.21</ele>
        <time>2022-07-30T12:39:05Z</time>
      </trkpt>
      <trkpt lat="46.75491" lon="6.02427">
        <ele>782.17</ele>
        <time>2022-07-30T12:39:22Z</time>
      </trkpt>
      <trkpt lat="46.75468" lon="6.0242">
        <ele>784.09</ele>
        <time>2022-07-30T12:39:37Z</time>
      </trkpt>
      <trkpt lat="46.75438" lon="6.02402">
        <ele>786.02</ele>
        <time>2022-07-30T12:39:53Z</time>
      </trkpt>
      <trkpt lat="46.7541" lon="6.02408">
        <ele>787.94</ele>
        <time>2022-07-30T12:40:09Z</time>
      </trkpt>
      <trkpt lat="46.75387" lon="6.02432">
        <ele>789.86</ele>
        <time>2022-07-30T12:40:23Z</time>
      </trkpt>
      <trkpt lat="46.75356" lon="6.0246">
        <ele>791.3</ele>
        <time>2022-07-30T12:40:40Z</time>
      </trkpt>
      <trkpt lat="46.75318" lon="6.02495">
        <ele>794.19</ele>
        <time>2022-07-30T12:41:03Z</time>
      </trkpt>
      <trkpt lat="46.75275" lon="6.02535">
        <ele>797.55</ele>
        <time>2022-07-30T12:41:27Z</time>
      </trkpt>
      <trkpt lat="46.75237" lon="6.02572">
        <ele>798.51</ele>
        <time>2022-07-30T12:41:48Z</time>
      </trkpt>
      <trkpt lat="46.75191" lon="6.02617">
        <ele>800.44</ele>
        <time>2022-07-30T12:42:10Z</time>
      </trkpt>
      <trkpt lat="46.75144" lon="6.02665">
        <ele>802.36</ele>
        <time>2022-07-30T12:42:34Z</time>
      </trkpt>
      <trkpt lat="46.75105" lon="6.02702">
        <ele>804.28</ele>
        <time>2022-07-30T12:42:53Z</time>
      </trkpt>
      <trkpt lat="46.7507" lon="6.02737">
        <ele>805.24</ele>
        <time>2022-07-30T12:43:10Z</time>
      </trkpt>
      <trkpt lat="46.75032" lon="6.02774">
        <ele>807.16</ele>
        <time>2022-07-30T12:43:29Z</time>
      </trkpt>
      <trkpt lat="46.74991" lon="6.02808">
        <ele>808.61</ele>
        <time>2022-07-30T12:43:48Z</time>
      </trkpt>
      <trkpt lat="46.74941" lon="6.02823">
        <ele>810.05</ele>
        <time>2022-07-30T12:44:07Z</time>
      </trkpt>
      <trkpt lat="46.74894" lon="6.02812">
        <ele>811.97</ele>
        <time>2022-07-30T12:44:24Z</time>
      </trkpt>
      <trkpt lat="46.74844" lon="6.02796">
        <ele>811.97</ele>
        <time>2022-07-30T12:44:41Z</time>
      </trkpt>
      <trkpt lat="46.74803" lon="6.02773">
        <ele>813.41</ele>
        <time>2022-07-30T12:44:56Z</time>
      </trkpt>
      <trkpt lat="46.74764" lon="6.02731">
        <ele>814.85</ele>
        <time>2022-07-30T12:45:12Z</time>
      </trkpt>
      <trkpt lat="46.7476" lon="6.02688">
        <ele>814.37</ele>
        <time>2022-07-30T12:45:20Z</time>
      </trkpt>
      <trkpt lat="46.74758" lon="6.02681">
        <ele>813.89</ele>
        <time>2022-07-30T12:45:21Z</time>
      </trkpt>
      <trkpt lat="46.74755" lon="6.02674">
        <ele>813.41</ele>
        <time>2022-07-30T12:45:22Z</time>
      </trkpt>
      <trkpt lat="46.74742" lon="6.02644">
        <ele>812.93</ele>
        <time>2022-07-30T12:45:26Z</time>
      </trkpt>
      <trkpt lat="46.74694" lon="6.02537">
        <ele>809.09</ele>
        <time>2022-07-30T12:45:37Z</time>
      </trkpt>
      <trkpt lat="46.74692" lon="6.02525">
        <ele>809.09</ele>
        <time>2022-07-30T12:45:38Z</time>
      </trkpt>
      <trkpt lat="46.74691" lon="6.02513">
        <ele>809.09</ele>
        <time>2022-07-30T12:45:39Z</time>
      </trkpt>
      <trkpt lat="46.74691" lon="6.02501">
        <ele>808.61</ele>
        <time>2022-07-30T12:45:40Z</time>
      </trkpt>
      <trkpt lat="46.74692" lon="6.02488">
        <ele>809.09</ele>
        <time>2022-07-30T12:45:41Z</time>
      </trkpt>
      <trkpt lat="46.74695" lon="6.02451">
        <ele>806.68</ele>
        <time>2022-07-30T12:45:44Z</time>
      </trkpt>
      <trkpt lat="46.74701" lon="6.02371">
        <ele>804.28</ele>
        <time>2022-07-30T12:45:50Z</time>
      </trkpt>
      <trkpt lat="46.74711" lon="6.02206">
        <ele>801.4</ele>
        <time>2022-07-30T12:46:03Z</time>
      </trkpt>
      <trkpt lat="46.74725" lon="6.02132">
        <ele>799.47</ele>
        <time>2022-07-30T12:46:09Z</time>
      </trkpt>
      <trkpt lat="46.74726" lon="6.02119">
        <ele>798.99</ele>
        <time>2022-07-30T12:46:10Z</time>
      </trkpt>
      <trkpt lat="46.7473" lon="6.02008">
        <ele>796.59</ele>
        <time>2022-07-30T12:46:18Z</time>
      </trkpt>
      <trkpt lat="46.74732" lon="6.01994">
        <ele>795.15</ele>
        <time>2022-07-30T12:46:19Z</time>
      </trkpt>
      <trkpt lat="46.74736" lon="6.0198">
        <ele>794.67</ele>
        <time>2022-07-30T12:46:20Z</time>
      </trkpt>
      <trkpt lat="46.74743" lon="6.01968">
        <ele>793.71</ele>
        <time>2022-07-30T12:46:21Z</time>
      </trkpt>
      <trkpt lat="46.74752" lon="6.01957">
        <ele>793.22</ele>
        <time>2022-07-30T12:46:22Z</time>
      </trkpt>
      <trkpt lat="46.74762" lon="6.01948">
        <ele>792.26</ele>
        <time>2022-07-30T12:46:23Z</time>
      </trkpt>
      <trkpt lat="46.74794" lon="6.01919">
        <ele>789.86</ele>
        <time>2022-07-30T12:46:26Z</time>
      </trkpt>
      <trkpt lat="46.74823" lon="6.01888">
        <ele>786.98</ele>
        <time>2022-07-30T12:46:29Z</time>
      </trkpt>
      <trkpt lat="46.74845" lon="6.01871">
        <ele>783.61</ele>
        <time>2022-07-30T12:46:31Z</time>
      </trkpt>
      <trkpt lat="46.7488" lon="6.01845">
        <ele>780.73</ele>
        <time>2022-07-30T12:46:34Z</time>
      </trkpt>
      <trkpt lat="46.74891" lon="6.01833">
        <ele>779.29</ele>
        <time>2022-07-30T12:46:35Z</time>
      </trkpt>
      <trkpt lat="46.749" lon="6.01819">
        <ele>777.36</ele>
        <time>2022-07-30T12:46:36Z</time>
      </trkpt>
      <trkpt lat="46.74925" lon="6.01774">
        <ele>774.48</ele>
        <time>2022-07-30T12:46:39Z</time>
      </trkpt>
      <trkpt lat="46.74943" lon="6.01723">
        <ele>771.6</ele>
        <time>2022-07-30T12:46:42Z</time>
      </trkpt>
      <trkpt lat="46.74947" lon="6.01704">
        <ele>769.67</ele>
        <time>2022-07-30T12:46:43Z</time>
      </trkpt>
      <trkpt lat="46.74949" lon="6.01685">
        <ele>768.23</ele>
        <time>2022-07-30T12:46:44Z</time>
      </trkpt>
      <trkpt lat="46.74949" lon="6.01665">
        <ele>768.23</ele>
        <time>2022-07-30T12:46:45Z</time>
      </trkpt>
      <trkpt lat="46.74948" lon="6.01647">
        <ele>767.27</ele>
        <time>2022-07-30T12:46:46Z</time>
      </trkpt>
      <trkpt lat="46.74946" lon="6.0163">
        <ele>767.27</ele>
        <time>2022-07-30T12:46:47Z</time>
      </trkpt>
      <trkpt lat="46.74945" lon="6.01614">
        <ele>767.27</ele>
        <time>2022-07-30T12:46:48Z</time>
      </trkpt>
      <trkpt lat="46.74945" lon="6.016">
        <ele>767.27</ele>
        <time>2022-07-30T12:46:49Z</time>
      </trkpt>
      <trkpt lat="46.74948" lon="6.01575">
        <ele>768.71</ele>
        <time>2022-07-30T12:46:51Z</time>
      </trkpt>
      <trkpt lat="46.74951" lon="6.01566">
        <ele>769.19</ele>
        <time>2022-07-30T12:46:52Z</time>
      </trkpt>
      <trkpt lat="46.74963" lon="6.01543">
        <ele>768.71</ele>
        <time>2022-07-30T12:46:55Z</time>
      </trkpt>
      <trkpt lat="46.74966" lon="6.01536">
        <ele>768.71</ele>
        <time>2022-07-30T12:46:56Z</time>
      </trkpt>
      <trkpt lat="46.74967" lon="6.01527">
        <ele>768.71</ele>
        <time>2022-07-30T12:46:57Z</time>
      </trkpt>
      <trkpt lat="46.74968" lon="6.01519">
        <ele>768.71</ele>
        <time>2022-07-30T12:46:58Z</time>
      </trkpt>
      <trkpt lat="46.74968" lon="6.0151">
        <ele>768.71</ele>
        <time>2022-07-30T12:46:59Z</time>
      </trkpt>
      <trkpt lat="46.74968" lon="6.01502">
        <ele>768.23</ele>
        <time>2022-07-30T12:47:00Z</time>
      </trkpt>
      <trkpt lat="46.74967" lon="6.01494">
        <ele>768.23</ele>
        <time>2022-07-30T12:47:01Z</time>
      </trkpt>
      <trkpt lat="46.74964" lon="6.01486">
        <ele>767.27</ele>
        <time>2022-07-30T12:47:02Z</time>
      </trkpt>
      <trkpt lat="46.7496" lon="6.01478">
        <ele>766.79</ele>
        <time>2022-07-30T12:47:03Z</time>
      </trkpt>
      <trkpt lat="46.74956" lon="6.01469">
        <ele>766.31</ele>
        <time>2022-07-30T12:47:04Z</time>
      </trkpt>
      <trkpt lat="46.74951" lon="6.01461">
        <ele>765.83</ele>
        <time>2022-07-30T12:47:05Z</time>
      </trkpt>
      <trkpt lat="46.74944" lon="6.01454">
        <ele>765.83</ele>
        <time>2022-07-30T12:47:06Z</time>
      </trkpt>
      <trkpt lat="46.74937" lon="6.01447">
        <ele>765.35</ele>
        <time>2022-07-30T12:47:07Z</time>
      </trkpt>
      <trkpt lat="46.7493" lon="6.01441">
        <ele>764.39</ele>
        <time>2022-07-30T12:47:08Z</time>
      </trkpt>
      <trkpt lat="46.74922" lon="6.01432">
        <ele>764.39</ele>
        <time>2022-07-30T12:47:09Z</time>
      </trkpt>
      <trkpt lat="46.74916" lon="6.01421">
        <ele>763.42</ele>
        <time>2022-07-30T12:47:10Z</time>
      </trkpt>
      <trkpt lat="46.74911" lon="6.01409">
        <ele>762.94</ele>
        <time>2022-07-30T12:47:11Z</time>
      </trkpt>
      <trkpt lat="46.74909" lon="6.01395">
        <ele>761.98</ele>
        <time>2022-07-30T12:47:12Z</time>
      </trkpt>
      <trkpt lat="46.74909" lon="6.01379">
        <ele>761.02</ele>
        <time>2022-07-30T12:47:13Z</time>
      </trkpt>
      <trkpt lat="46.74912" lon="6.01363">
        <ele>760.54</ele>
        <time>2022-07-30T12:47:14Z</time>
      </trkpt>
      <trkpt lat="46.74917" lon="6.01349">
        <ele>760.54</ele>
        <time>2022-07-30T12:47:15Z</time>
      </trkpt>
      <trkpt lat="46.74925" lon="6.01337">
        <ele>759.58</ele>
        <time>2022-07-30T12:47:16Z</time>
      </trkpt>
      <trkpt lat="46.74933" lon="6.01326">
        <ele>758.62</ele>
        <time>2022-07-30T12:47:17Z</time>
      </trkpt>
      <trkpt lat="46.74942" lon="6.01317">
        <ele>756.69</ele>
        <time>2022-07-30T12:47:18Z</time>
      </trkpt>
      <trkpt lat="46.74951" lon="6.01307">
        <ele>757.66</ele>
        <time>2022-07-30T12:47:19Z</time>
      </trkpt>
      <trkpt lat="46.7496" lon="6.01296">
        <ele>756.69</ele>
        <time>2022-07-30T12:47:20Z</time>
      </trkpt>
      <trkpt lat="46.74968" lon="6.01283">
        <ele>755.25</ele>
        <time>2022-07-30T12:47:21Z</time>
      </trkpt>
      <trkpt lat="46.74974" lon="6.01269">
        <ele>754.77</ele>
        <time>2022-07-30T12:47:22Z</time>
      </trkpt>
      <trkpt lat="46.74981" lon="6.01254">
        <ele>754.29</ele>
        <time>2022-07-30T12:47:23Z</time>
      </trkpt>
      <trkpt lat="46.74987" lon="6.01239">
        <ele>753.33</ele>
        <time>2022-07-30T12:47:24Z</time>
      </trkpt>
      <trkpt lat="46.74992" lon="6.01222">
        <ele>753.33</ele>
        <time>2022-07-30T12:47:25Z</time>
      </trkpt>
      <trkpt lat="46.74997" lon="6.01205">
        <ele>751.89</ele>
        <time>2022-07-30T12:47:26Z</time>
      </trkpt>
      <trkpt lat="46.75013" lon="6.01135">
        <ele>749.49</ele>
        <time>2022-07-30T12:47:30Z</time>
      </trkpt>
      <trkpt lat="46.75022" lon="6.01069">
        <ele>747.08</ele>
        <time>2022-07-30T12:47:34Z</time>
      </trkpt>
      <trkpt lat="46.75033" lon="6.00937">
        <ele>747.08</ele>
        <time>2022-07-30T12:47:43Z</time>
      </trkpt>
      <trkpt lat="46.75036" lon="6.00901">
        <ele>745.64</ele>
        <time>2022-07-30T12:47:46Z</time>
      </trkpt>
      <trkpt lat="46.7504" lon="6.00844">
        <ele>744.2</ele>
        <time>2022-07-30T12:47:51Z</time>
      </trkpt>
      <trkpt lat="46.75039" lon="6.00834">
        <ele>743.72</ele>
        <time>2022-07-30T12:47:52Z</time>
      </trkpt>
      <trkpt lat="46.75039" lon="6.00816">
        <ele>742.76</ele>
        <time>2022-07-30T12:47:54Z</time>
      </trkpt>
      <trkpt lat="46.75039" lon="6.00802">
        <ele>741.31</ele>
        <time>2022-07-30T12:47:58Z</time>
      </trkpt>
      <trkpt lat="46.75038" lon="6.00805">
        <ele>741.31</ele>
        <time>2022-07-30T12:48:24Z</time>
      </trkpt>
      <trkpt lat="46.75039" lon="6.00805">
        <ele>741.31</ele>
        <time>2022-07-30T12:49:03Z</time>
      </trkpt>
      <trkpt lat="46.75037" lon="6.00782">
        <ele>740.83</ele>
        <time>2022-07-30T12:49:23Z</time>
      </trkpt>
      <trkpt lat="46.75025" lon="6.00701">
        <ele>737.95</ele>
        <time>2022-07-30T12:49:35Z</time>
      </trkpt>
      <trkpt lat="46.75029" lon="6.00588">
        <ele>734.1</ele>
        <time>2022-07-30T12:49:45Z</time>
      </trkpt>
      <trkpt lat="46.75028" lon="6.00576">
        <ele>733.62</ele>
        <time>2022-07-30T12:49:46Z</time>
      </trkpt>
      <trkpt lat="46.75026" lon="6.00563">
        <ele>733.14</ele>
        <time>2022-07-30T12:49:47Z</time>
      </trkpt>
      <trkpt lat="46.75023" lon="6.00551">
        <ele>733.14</ele>
        <time>2022-07-30T12:49:48Z</time>
      </trkpt>
      <trkpt lat="46.7502" lon="6.00539">
        <ele>731.7</ele>
        <time>2022-07-30T12:49:49Z</time>
      </trkpt>
      <trkpt lat="46.75014" lon="6.00513">
        <ele>731.22</ele>
        <time>2022-07-30T12:49:51Z</time>
      </trkpt>
      <trkpt lat="46.75" lon="6.00445">
        <ele>727.86</ele>
        <time>2022-07-30T12:49:56Z</time>
      </trkpt>
      <trkpt lat="46.7499" lon="6.00403">
        <ele>726.41</ele>
        <time>2022-07-30T12:49:59Z</time>
      </trkpt>
      <trkpt lat="46.74987" lon="6.00389">
        <ele>725.45</ele>
        <time>2022-07-30T12:50:00Z</time>
      </trkpt>
      <trkpt lat="46.74981" lon="6.00332">
        <ele>722.09</ele>
        <time>2022-07-30T12:50:04Z</time>
      </trkpt>
      <trkpt lat="46.74962" lon="6.00269">
        <ele>718.72</ele>
        <time>2022-07-30T12:50:09Z</time>
      </trkpt>
      <trkpt lat="46.7495" lon="6.0023">
        <ele>717.28</ele>
        <time>2022-07-30T12:50:12Z</time>
      </trkpt>
      <trkpt lat="46.74946" lon="6.00217">
        <ele>715.84</ele>
        <time>2022-07-30T12:50:13Z</time>
      </trkpt>
      <trkpt lat="46.7494" lon="6.00205">
        <ele>715.36</ele>
        <time>2022-07-30T12:50:14Z</time>
      </trkpt>
      <trkpt lat="46.74935" lon="6.00194">
        <ele>715.84</ele>
        <time>2022-07-30T12:50:15Z</time>
      </trkpt>
      <trkpt lat="46.74906" lon="6.00156">
        <ele>712.95</ele>
        <time>2022-07-30T12:50:19Z</time>
      </trkpt>
      <trkpt lat="46.74837" lon="6.00094">
        <ele>710.07</ele>
        <time>2022-07-30T12:50:29Z</time>
      </trkpt>
      <trkpt lat="46.74831" lon="6.00089">
        <ele>709.59</ele>
        <time>2022-07-30T12:50:30Z</time>
      </trkpt>
      <trkpt lat="46.74825" lon="6.00086">
        <ele>708.63</ele>
        <time>2022-07-30T12:50:31Z</time>
      </trkpt>
      <trkpt lat="46.74783" lon="6.00068">
        <ele>704.78</ele>
        <time>2022-07-30T12:50:37Z</time>
      </trkpt>
      <trkpt lat="46.74775" lon="6.00066">
        <ele>704.78</ele>
        <time>2022-07-30T12:50:38Z</time>
      </trkpt>
      <trkpt lat="46.74751" lon="6.00064">
        <ele>703.34</ele>
        <time>2022-07-30T12:50:41Z</time>
      </trkpt>
      <trkpt lat="46.74729" lon="6.00067">
        <ele>702.38</ele>
        <time>2022-07-30T12:50:44Z</time>
      </trkpt>
      <trkpt lat="46.74716" lon="6.00074">
        <ele>700.94</ele>
        <time>2022-07-30T12:50:46Z</time>
      </trkpt>
      <trkpt lat="46.74712" lon="6.00082">
        <ele>700.94</ele>
        <time>2022-07-30T12:50:47Z</time>
      </trkpt>
      <trkpt lat="46.74708" lon="6.00091">
        <ele>700.94</ele>
        <time>2022-07-30T12:50:48Z</time>
      </trkpt>
      <trkpt lat="46.74706" lon="6.00101">
        <ele>700.46</ele>
        <time>2022-07-30T12:50:49Z</time>
      </trkpt>
      <trkpt lat="46.74706" lon="6.00111">
        <ele>699.02</ele>
        <time>2022-07-30T12:50:50Z</time>
      </trkpt>
      <trkpt lat="46.74708" lon="6.0012">
        <ele>699.02</ele>
        <time>2022-07-30T12:50:51Z</time>
      </trkpt>
      <trkpt lat="46.74712" lon="6.0013">
        <ele>698.05</ele>
        <time>2022-07-30T12:50:52Z</time>
      </trkpt>
      <trkpt lat="46.74716" lon="6.00139">
        <ele>697.57</ele>
        <time>2022-07-30T12:50:53Z</time>
      </trkpt>
      <trkpt lat="46.7472" lon="6.00148">
        <ele>697.09</ele>
        <time>2022-07-30T12:50:54Z</time>
      </trkpt>
      <trkpt lat="46.74732" lon="6.00174">
        <ele>695.65</ele>
        <time>2022-07-30T12:50:57Z</time>
      </trkpt>
      <trkpt lat="46.74734" lon="6.00183">
        <ele>695.17</ele>
        <time>2022-07-30T12:50:58Z</time>
      </trkpt>
      <trkpt lat="46.74736" lon="6.00192">
        <ele>693.73</ele>
        <time>2022-07-30T12:50:59Z</time>
      </trkpt>
      <trkpt lat="46.74736" lon="6.00201">
        <ele>694.21</ele>
        <time>2022-07-30T12:51:00Z</time>
      </trkpt>
      <trkpt lat="46.74735" lon="6.0021">
        <ele>693.73</ele>
        <time>2022-07-30T12:51:01Z</time>
      </trkpt>
      <trkpt lat="46.74734" lon="6.00218">
        <ele>693.25</ele>
        <time>2022-07-30T12:51:02Z</time>
      </trkpt>
      <trkpt lat="46.74733" lon="6.00225">
        <ele>693.25</ele>
        <time>2022-07-30T12:51:03Z</time>
      </trkpt>
      <trkpt lat="46.74732" lon="6.00229">
        <ele>693.73</ele>
        <time>2022-07-30T12:51:04Z</time>
      </trkpt>
      <trkpt lat="46.74731" lon="6.00233">
        <ele>693.73</ele>
        <time>2022-07-30T12:51:05Z</time>
      </trkpt>
      <trkpt lat="46.74733" lon="6.00234">
        <ele>693.73</ele>
        <time>2022-07-30T12:51:15Z</time>
      </trkpt>
      <trkpt lat="46.74733" lon="6.00231">
        <ele>694.21</ele>
        <time>2022-07-30T12:51:25Z</time>
      </trkpt>
      <trkpt lat="46.74705" lon="6.00223">
        <ele>693.25</ele>
        <time>2022-07-30T12:51:35Z</time>
      </trkpt>
      <trkpt lat="46.74648" lon="6.00205">
        <ele>692.77</ele>
        <time>2022-07-30T12:51:52Z</time>
      </trkpt>
      <trkpt lat="46.74636" lon="6.00202">
        <ele>692.29</ele>
        <time>2022-07-30T12:51:55Z</time>
      </trkpt>
      <trkpt lat="46.74579" lon="6.0019">
        <ele>691.81</ele>
        <time>2022-07-30T12:52:09Z</time>
      </trkpt>
      <trkpt lat="46.74529" lon="6.0016">
        <ele>690.84</ele>
        <time>2022-07-30T12:52:23Z</time>
      </trkpt>
      <trkpt lat="46.74494" lon="6.00142">
        <ele>687.48</ele>
        <time>2022-07-30T12:52:29Z</time>
      </trkpt>
      <trkpt lat="46.74486" lon="6.00141">
        <ele>687.48</ele>
        <time>2022-07-30T12:52:30Z</time>
      </trkpt>
      <trkpt lat="46.74451" lon="6.00143">
        <ele>685.56</ele>
        <time>2022-07-30T12:52:34Z</time>
      </trkpt>
      <trkpt lat="46.7442" lon="6.00145">
        <ele>683.63</ele>
        <time>2022-07-30T12:52:37Z</time>
      </trkpt>
      <trkpt lat="46.74409" lon="6.00143">
        <ele>682.67</ele>
        <time>2022-07-30T12:52:38Z</time>
      </trkpt>
      <trkpt lat="46.74398" lon="6.0014">
        <ele>681.71</ele>
        <time>2022-07-30T12:52:39Z</time>
      </trkpt>
      <trkpt lat="46.74388" lon="6.00135">
        <ele>681.71</ele>
        <time>2022-07-30T12:52:40Z</time>
      </trkpt>
      <trkpt lat="46.74378" lon="6.0013">
        <ele>681.23</ele>
        <time>2022-07-30T12:52:41Z</time>
      </trkpt>
      <trkpt lat="46.74369" lon="6.00123">
        <ele>681.71</ele>
        <time>2022-07-30T12:52:42Z</time>
      </trkpt>
      <trkpt lat="46.74326" lon="6.00098">
        <ele>681.23</ele>
        <time>2022-07-30T12:52:47Z</time>
      </trkpt>
      <trkpt lat="46.74317" lon="6.00096">
        <ele>681.23</ele>
        <time>2022-07-30T12:52:48Z</time>
      </trkpt>
      <trkpt lat="46.7428" lon="6.00086">
        <ele>679.31</ele>
        <time>2022-07-30T12:52:52Z</time>
      </trkpt>
      <trkpt lat="46.74271" lon="6.00081">
        <ele>679.31</ele>
        <time>2022-07-30T12:52:53Z</time>
      </trkpt>
      <trkpt lat="46.74263" lon="6.00075">
        <ele>678.83</ele>
        <time>2022-07-30T12:52:54Z</time>
      </trkpt>
      <trkpt lat="46.74255" lon="6.00067">
        <ele>678.83</ele>
        <time>2022-07-30T12:52:55Z</time>
      </trkpt>
      <trkpt lat="46.74248" lon="6.00058">
        <ele>678.35</ele>
        <time>2022-07-30T12:52:56Z</time>
      </trkpt>
      <trkpt lat="46.74241" lon="6.00048">
        <ele>678.35</ele>
        <time>2022-07-30T12:52:57Z</time>
      </trkpt>
      <trkpt lat="46.74236" lon="6.00037">
        <ele>678.35</ele>
        <time>2022-07-30T12:52:58Z</time>
      </trkpt>
      <trkpt lat="46.74231" lon="6.00026">
        <ele>678.35</ele>
        <time>2022-07-30T12:52:59Z</time>
      </trkpt>
      <trkpt lat="46.74188" lon="5.99922">
        <ele>677.39</ele>
        <time>2022-07-30T12:53:10Z</time>
      </trkpt>
      <trkpt lat="46.74126" lon="5.99828">
        <ele>676.42</ele>
        <time>2022-07-30T12:53:24Z</time>
      </trkpt>
      <trkpt lat="46.74065" lon="5.99751">
        <ele>673.54</ele>
        <time>2022-07-30T12:53:35Z</time>
      </trkpt>
      <trkpt lat="46.73989" lon="5.99631">
        <ele>670.66</ele>
        <time>2022-07-30T12:53:49Z</time>
      </trkpt>
      <trkpt lat="46.73942" lon="5.995">
        <ele>667.77</ele>
        <time>2022-07-30T12:54:01Z</time>
      </trkpt>
      <trkpt lat="46.73918" lon="5.99435">
        <ele>665.37</ele>
        <time>2022-07-30T12:54:06Z</time>
      </trkpt>
      <trkpt lat="46.73907" lon="5.99408">
        <ele>663.93</ele>
        <time>2022-07-30T12:54:08Z</time>
      </trkpt>
      <trkpt lat="46.7388" lon="5.99352">
        <ele>660.08</ele>
        <time>2022-07-30T12:54:12Z</time>
      </trkpt>
      <trkpt lat="46.73845" lon="5.99282">
        <ele>656.72</ele>
        <time>2022-07-30T12:54:17Z</time>
      </trkpt>
      <trkpt lat="46.73833" lon="5.99252">
        <ele>655.28</ele>
        <time>2022-07-30T12:54:19Z</time>
      </trkpt>
      <trkpt lat="46.7383" lon="5.99236">
        <ele>654.31</ele>
        <time>2022-07-30T12:54:20Z</time>
      </trkpt>
      <trkpt lat="46.7383" lon="5.99219">
        <ele>653.83</ele>
        <time>2022-07-30T12:54:21Z</time>
      </trkpt>
      <trkpt lat="46.73832" lon="5.99202">
        <ele>651.43</ele>
        <time>2022-07-30T12:54:22Z</time>
      </trkpt>
      <trkpt lat="46.73836" lon="5.99186">
        <ele>651.91</ele>
        <time>2022-07-30T12:54:23Z</time>
      </trkpt>
      <trkpt lat="46.73841" lon="5.9917">
        <ele>651.43</ele>
        <time>2022-07-30T12:54:24Z</time>
      </trkpt>
      <trkpt lat="46.73849" lon="5.99138">
        <ele>649.51</ele>
        <time>2022-07-30T12:54:26Z</time>
      </trkpt>
      <trkpt lat="46.73852" lon="5.99121">
        <ele>649.03</ele>
        <time>2022-07-30T12:54:27Z</time>
      </trkpt>
      <trkpt lat="46.73856" lon="5.99086">
        <ele>648.07</ele>
        <time>2022-07-30T12:54:29Z</time>
      </trkpt>
      <trkpt lat="46.73862" lon="5.99033">
        <ele>645.18</ele>
        <time>2022-07-30T12:54:32Z</time>
      </trkpt>
      <trkpt lat="46.7387" lon="5.98961">
        <ele>642.78</ele>
        <time>2022-07-30T12:54:36Z</time>
      </trkpt>
      <trkpt lat="46.73868" lon="5.98943">
        <ele>641.34</ele>
        <time>2022-07-30T12:54:37Z</time>
      </trkpt>
      <trkpt lat="46.73866" lon="5.98926">
        <ele>640.86</ele>
        <time>2022-07-30T12:54:38Z</time>
      </trkpt>
      <trkpt lat="46.7386" lon="5.9891">
        <ele>639.89</ele>
        <time>2022-07-30T12:54:39Z</time>
      </trkpt>
      <trkpt lat="46.73852" lon="5.98896">
        <ele>638.93</ele>
        <time>2022-07-30T12:54:40Z</time>
      </trkpt>
      <trkpt lat="46.73843" lon="5.98884">
        <ele>638.45</ele>
        <time>2022-07-30T12:54:41Z</time>
      </trkpt>
      <trkpt lat="46.73834" lon="5.98873">
        <ele>637.49</ele>
        <time>2022-07-30T12:54:42Z</time>
      </trkpt>
      <trkpt lat="46.73825" lon="5.98862">
        <ele>637.97</ele>
        <time>2022-07-30T12:54:43Z</time>
      </trkpt>
      <trkpt lat="46.738" lon="5.9883">
        <ele>637.49</ele>
        <time>2022-07-30T12:54:46Z</time>
      </trkpt>
      <trkpt lat="46.73794" lon="5.98818">
        <ele>637.49</ele>
        <time>2022-07-30T12:54:47Z</time>
      </trkpt>
      <trkpt lat="46.73767" lon="5.98761">
        <ele>637.01</ele>
        <time>2022-07-30T12:54:52Z</time>
      </trkpt>
      <trkpt lat="46.7376" lon="5.98752">
        <ele>636.53</ele>
        <time>2022-07-30T12:54:53Z</time>
      </trkpt>
      <trkpt lat="46.7368" lon="5.98663">
        <ele>636.05</ele>
        <time>2022-07-30T12:55:05Z</time>
      </trkpt>
      <trkpt lat="46.73673" lon="5.9866">
        <ele>636.05</ele>
        <time>2022-07-30T12:55:06Z</time>
      </trkpt>
      <trkpt lat="46.73667" lon="5.98659">
        <ele>636.05</ele>
        <time>2022-07-30T12:55:07Z</time>
      </trkpt>
      <trkpt lat="46.73661" lon="5.98659">
        <ele>635.57</ele>
        <time>2022-07-30T12:55:08Z</time>
      </trkpt>
      <trkpt lat="46.73655" lon="5.9866">
        <ele>636.05</ele>
        <time>2022-07-30T12:55:09Z</time>
      </trkpt>
      <trkpt lat="46.73649" lon="5.98662">
        <ele>636.53</ele>
        <time>2022-07-30T12:55:10Z</time>
      </trkpt>
      <trkpt lat="46.73591" lon="5.98672">
        <ele>635.57</ele>
        <time>2022-07-30T12:55:22Z</time>
      </trkpt>
      <trkpt lat="46.73528" lon="5.98686">
        <ele>633.65</ele>
        <time>2022-07-30T12:55:38Z</time>
      </trkpt>
      <trkpt lat="46.73469" lon="5.98719">
        <ele>634.13</ele>
        <time>2022-07-30T12:55:51Z</time>
      </trkpt>
      <trkpt lat="46.73465" lon="5.98721">
        <ele>633.65</ele>
        <time>2022-07-30T12:55:52Z</time>
      </trkpt>
      <trkpt lat="46.73416" lon="5.98722">
        <ele>635.57</ele>
        <time>2022-07-30T12:56:02Z</time>
      </trkpt>
      <trkpt lat="46.73355" lon="5.9871">
        <ele>634.13</ele>
        <time>2022-07-30T12:56:16Z</time>
      </trkpt>
      <trkpt lat="46.73333" lon="5.98707">
        <ele>634.13</ele>
        <time>2022-07-30T12:56:21Z</time>
      </trkpt>
      <trkpt lat="46.7329" lon="5.98688">
        <ele>633.65</ele>
        <time>2022-07-30T12:56:31Z</time>
      </trkpt>
      <trkpt lat="46.7324" lon="5.98642">
        <ele>634.13</ele>
        <time>2022-07-30T12:56:46Z</time>
      </trkpt>
      <trkpt lat="46.73218" lon="5.9862">
        <ele>635.09</ele>
        <time>2022-07-30T12:56:58Z</time>
      </trkpt>
      <trkpt lat="46.73207" lon="5.98612">
        <ele>635.57</ele>
        <time>2022-07-30T12:57:06Z</time>
      </trkpt>
      <trkpt lat="46.73206" lon="5.98612">
        <ele>635.09</ele>
        <time>2022-07-30T12:57:07Z</time>
      </trkpt>
      <trkpt lat="46.73193" lon="5.98652">
        <ele>634.61</ele>
        <time>2022-07-30T12:57:18Z</time>
      </trkpt>
      <trkpt lat="46.73181" lon="5.98718">
        <ele>635.57</ele>
        <time>2022-07-30T12:57:34Z</time>
      </trkpt>
      <trkpt lat="46.73179" lon="5.98731">
        <ele>635.09</ele>
        <time>2022-07-30T12:57:38Z</time>
      </trkpt>
      <trkpt lat="46.73178" lon="5.98734">
        <ele>635.09</ele>
        <time>2022-07-30T12:57:39Z</time>
      </trkpt>
      <trkpt lat="46.73178" lon="5.98737">
        <ele>636.05</ele>
        <time>2022-07-30T12:57:40Z</time>
      </trkpt>
      <trkpt lat="46.73172" lon="5.98756">
        <ele>636.53</ele>
        <time>2022-07-30T12:57:49Z</time>
      </trkpt>
      <trkpt lat="46.73165" lon="5.98755">
        <ele>636.53</ele>
        <time>2022-07-30T12:57:53Z</time>
      </trkpt>
      <trkpt lat="46.73144" lon="5.98742">
        <ele>635.57</ele>
        <time>2022-07-30T12:58:05Z</time>
      </trkpt>
      <trkpt lat="46.73133" lon="5.98742">
        <ele>636.53</ele>
        <time>2022-07-30T12:58:43Z</time>
      </trkpt>
      <trkpt lat="46.73128" lon="5.98734">
        <ele>636.53</ele>
        <time>2022-07-30T12:59:29Z</time>
      </trkpt>
      <trkpt lat="46.73128" lon="5.9874">
        <ele>636.05</ele>
        <time>2022-07-30T13:00:11Z</time>
      </trkpt>
      <trkpt lat="46.73129" lon="5.98738">
        <ele>637.01</ele>
        <time>2022-07-30T13:00:49Z</time>
      </trkpt>
      <trkpt lat="46.73128" lon="5.98735">
        <ele>636.53</ele>
        <time>2022-07-30T13:01:17Z</time>
      </trkpt>
      <trkpt lat="46.73127" lon="5.98735">
        <ele>637.01</ele>
        <time>2022-07-30T13:01:51Z</time>
      </trkpt>
      <trkpt lat="46.73145" lon="5.98748">
        <ele>637.49</ele>
        <time>2022-07-30T13:02:03Z</time>
      </trkpt>
      <trkpt lat="46.73152" lon="5.9875">
        <ele>637.49</ele>
        <time>2022-07-30T13:02:10Z</time>
      </trkpt>
      <trkpt lat="46.73161" lon="5.98746">
        <ele>636.53</ele>
        <time>2022-07-30T13:02:24Z</time>
      </trkpt>
      <trkpt lat="46.73167" lon="5.98751">
        <ele>637.49</ele>
        <time>2022-07-30T13:02:55Z</time>
      </trkpt>
      <trkpt lat="46.73172" lon="5.98755">
        <ele>637.49</ele>
        <time>2022-07-30T13:03:22Z</time>
      </trkpt>
      <trkpt lat="46.73168" lon="5.98751">
        <ele>637.49</ele>
        <time>2022-07-30T13:03:53Z</time>
      </trkpt>
      <trkpt lat="46.73167" lon="5.98759">
        <ele>637.49</ele>
        <time>2022-07-30T13:04:20Z</time>
      </trkpt>
      <trkpt lat="46.73165" lon="5.98754">
        <ele>637.97</ele>
        <time>2022-07-30T13:04:48Z</time>
      </trkpt>
      <trkpt lat="46.7316" lon="5.98754">
        <ele>637.49</ele>
        <time>2022-07-30T13:05:15Z</time>
      </trkpt>
      <trkpt lat="46.73166" lon="5.98758">
        <ele>637.97</ele>
        <time>2022-07-30T13:05:46Z</time>
      </trkpt>
      <trkpt lat="46.73158" lon="5.98755">
        <ele>637.97</ele>
        <time>2022-07-30T13:06:11Z</time>
      </trkpt>
      <trkpt lat="46.7316" lon="5.98756">
        <ele>637.49</ele>
        <time>2022-07-30T13:06:14Z</time>
      </trkpt>
      <trkpt lat="46.73163" lon="5.98753">
        <ele>638.45</ele>
        <time>2022-07-30T13:06:20Z</time>
      </trkpt>
      <trkpt lat="46.73163" lon="5.98744">
        <ele>637.97</ele>
        <time>2022-07-30T13:06:24Z</time>
      </trkpt>
      <trkpt lat="46.73164" lon="5.98742">
        <ele>637.97</ele>
        <time>2022-07-30T13:06:25Z</time>
      </trkpt>
      <trkpt lat="46.7318" lon="5.98694">
        <ele>636.53</ele>
        <time>2022-07-30T13:06:36Z</time>
      </trkpt>
      <trkpt lat="46.73198" lon="5.9862">
        <ele>636.53</ele>
        <time>2022-07-30T13:06:51Z</time>
      </trkpt>
      <trkpt lat="46.73206" lon="5.98593">
        <ele>636.05</ele>
        <time>2022-07-30T13:07:00Z</time>
      </trkpt>
      <trkpt lat="46.73207" lon="5.9859">
        <ele>637.01</ele>
        <time>2022-07-30T13:07:01Z</time>
      </trkpt>
      <trkpt lat="46.73206" lon="5.98589">
        <ele>637.01</ele>
        <time>2022-07-30T13:07:12Z</time>
      </trkpt>
      <trkpt lat="46.73207" lon="5.98586">
        <ele>637.01</ele>
        <time>2022-07-30T13:07:28Z</time>
      </trkpt>
      <trkpt lat="46.73233" lon="5.98536">
        <ele>636.53</ele>
        <time>2022-07-30T13:07:43Z</time>
      </trkpt>
      <trkpt lat="46.73274" lon="5.98468">
        <ele>633.17</ele>
        <time>2022-07-30T13:07:55Z</time>
      </trkpt>
      <trkpt lat="46.73323" lon="5.98388">
        <ele>632.68</ele>
        <time>2022-07-30T13:08:09Z</time>
      </trkpt>
      <trkpt lat="46.73372" lon="5.98328">
        <ele>633.17</ele>
        <time>2022-07-30T13:08:26Z</time>
      </trkpt>
      <trkpt lat="46.73411" lon="5.98274">
        <ele>632.2</ele>
        <time>2022-07-30T13:08:40Z</time>
      </trkpt>
      <trkpt lat="46.73446" lon="5.98221">
        <ele>631.24</ele>
        <time>2022-07-30T13:08:51Z</time>
      </trkpt>
      <trkpt lat="46.73449" lon="5.98214">
        <ele>631.24</ele>
        <time>2022-07-30T13:08:52Z</time>
      </trkpt>
      <trkpt lat="46.7345" lon="5.98207">
        <ele>631.24</ele>
        <time>2022-07-30T13:08:53Z</time>
      </trkpt>
      <trkpt lat="46.73449" lon="5.98199">
        <ele>630.76</ele>
        <time>2022-07-30T13:08:54Z</time>
      </trkpt>
      <trkpt lat="46.73447" lon="5.98192">
        <ele>630.28</ele>
        <time>2022-07-30T13:08:55Z</time>
      </trkpt>
      <trkpt lat="46.73444" lon="5.98184">
        <ele>629.32</ele>
        <time>2022-07-30T13:08:56Z</time>
      </trkpt>
      <trkpt lat="46.73442" lon="5.98175">
        <ele>629.8</ele>
        <time>2022-07-30T13:08:57Z</time>
      </trkpt>
      <trkpt lat="46.73436" lon="5.98139">
        <ele>629.8</ele>
        <time>2022-07-30T13:09:01Z</time>
      </trkpt>
      <trkpt lat="46.73437" lon="5.9813">
        <ele>629.32</ele>
        <time>2022-07-30T13:09:02Z</time>
      </trkpt>
      <trkpt lat="46.73439" lon="5.98122">
        <ele>629.32</ele>
        <time>2022-07-30T13:09:03Z</time>
      </trkpt>
      <trkpt lat="46.73441" lon="5.98115">
        <ele>629.32</ele>
        <time>2022-07-30T13:09:04Z</time>
      </trkpt>
      <trkpt lat="46.73444" lon="5.98108">
        <ele>629.8</ele>
        <time>2022-07-30T13:09:05Z</time>
      </trkpt>
      <trkpt lat="46.73446" lon="5.98102">
        <ele>629.32</ele>
        <time>2022-07-30T13:09:06Z</time>
      </trkpt>
      <trkpt lat="46.73449" lon="5.98096">
        <ele>629.32</ele>
        <time>2022-07-30T13:09:07Z</time>
      </trkpt>
      <trkpt lat="46.73473" lon="5.98041">
        <ele>628.36</ele>
        <time>2022-07-30T13:09:16Z</time>
      </trkpt>
      <trkpt lat="46.73479" lon="5.98011">
        <ele>627.88</ele>
        <time>2022-07-30T13:09:20Z</time>
      </trkpt>
      <trkpt lat="46.73487" lon="5.97988">
        <ele>627.4</ele>
        <time>2022-07-30T13:09:23Z</time>
      </trkpt>
      <trkpt lat="46.7349" lon="5.97982">
        <ele>627.88</ele>
        <time>2022-07-30T13:09:24Z</time>
      </trkpt>
      <trkpt lat="46.73494" lon="5.97978">
        <ele>627.4</ele>
        <time>2022-07-30T13:09:25Z</time>
      </trkpt>
      <trkpt lat="46.73497" lon="5.97974">
        <ele>627.88</ele>
        <time>2022-07-30T13:09:26Z</time>
      </trkpt>
      <trkpt lat="46.73501" lon="5.97971">
        <ele>627.88</ele>
        <time>2022-07-30T13:09:27Z</time>
      </trkpt>
      <trkpt lat="46.73506" lon="5.97969">
        <ele>627.88</ele>
        <time>2022-07-30T13:09:28Z</time>
      </trkpt>
      <trkpt lat="46.73544" lon="5.97931">
        <ele>629.32</ele>
        <time>2022-07-30T13:09:41Z</time>
      </trkpt>
      <trkpt lat="46.73546" lon="5.97867">
        <ele>630.28</ele>
        <time>2022-07-30T13:09:55Z</time>
      </trkpt>
      <trkpt lat="46.73537" lon="5.97782">
        <ele>630.28</ele>
        <time>2022-07-30T13:10:10Z</time>
      </trkpt>
      <trkpt lat="46.73527" lon="5.97674">
        <ele>631.24</ele>
        <time>2022-07-30T13:10:29Z</time>
      </trkpt>
      <trkpt lat="46.73525" lon="5.97586">
        <ele>632.68</ele>
        <time>2022-07-30T13:10:45Z</time>
      </trkpt>
      <trkpt lat="46.73498" lon="5.97504">
        <ele>634.61</ele>
        <time>2022-07-30T13:11:03Z</time>
      </trkpt>
      <trkpt lat="46.73476" lon="5.9742">
        <ele>635.57</ele>
        <time>2022-07-30T13:11:20Z</time>
      </trkpt>
      <trkpt lat="46.73464" lon="5.97348">
        <ele>637.49</ele>
        <time>2022-07-30T13:11:35Z</time>
      </trkpt>
      <trkpt lat="46.73441" lon="5.97256">
        <ele>638.45</ele>
        <time>2022-07-30T13:11:54Z</time>
      </trkpt>
      <trkpt lat="46.73419" lon="5.97177">
        <ele>639.89</ele>
        <time>2022-07-30T13:12:10Z</time>
      </trkpt>
      <trkpt lat="46.73421" lon="5.97105">
        <ele>640.86</ele>
        <time>2022-07-30T13:12:25Z</time>
      </trkpt>
      <trkpt lat="46.73429" lon="5.97013">
        <ele>641.34</ele>
        <time>2022-07-30T13:12:43Z</time>
      </trkpt>
      <trkpt lat="46.73437" lon="5.9691">
        <ele>641.82</ele>
        <time>2022-07-30T13:13:01Z</time>
      </trkpt>
      <trkpt lat="46.73429" lon="5.96833">
        <ele>644.22</ele>
        <time>2022-07-30T13:13:18Z</time>
      </trkpt>
      <trkpt lat="46.73415" lon="5.96778">
        <ele>645.66</ele>
        <time>2022-07-30T13:13:34Z</time>
      </trkpt>
      <trkpt lat="46.73401" lon="5.96722">
        <ele>645.66</ele>
        <time>2022-07-30T13:13:51Z</time>
      </trkpt>
      <trkpt lat="46.7338" lon="5.96683">
        <ele>646.62</ele>
        <time>2022-07-30T13:14:06Z</time>
      </trkpt>
      <trkpt lat="46.73365" lon="5.96647">
        <ele>646.14</ele>
        <time>2022-07-30T13:14:21Z</time>
      </trkpt>
      <trkpt lat="46.73364" lon="5.96605">
        <ele>647.1</ele>
        <time>2022-07-30T13:14:32Z</time>
      </trkpt>
      <trkpt lat="46.734" lon="5.96516">
        <ele>646.62</ele>
        <time>2022-07-30T13:14:49Z</time>
      </trkpt>
      <trkpt lat="46.73402" lon="5.9651">
        <ele>648.07</ele>
        <time>2022-07-30T13:14:50Z</time>
      </trkpt>
      <trkpt lat="46.73429" lon="5.96411">
        <ele>647.1</ele>
        <time>2022-07-30T13:15:02Z</time>
      </trkpt>
      <trkpt lat="46.73405" lon="5.96422">
        <ele>630</ele>
      </trkpt>
      <trkpt lat="46.7337" lon="5.96403">
        <ele>627.6</ele>
      </trkpt>
      <trkpt lat="46.73323" lon="5.96382">
        <ele>620.6</ele>
      </trkpt>
      <trkpt lat="46.73263" lon="5.96362">
        <ele>619</ele>
      </trkpt>
      <trkpt lat="46.73214" lon="5.96317">
        <ele>612.1</ele>
      </trkpt>
      <trkpt lat="46.73149" lon="5.96264">
        <ele>605.5</ele>
      </trkpt>
      <trkpt lat="46.73063" lon="5.96223">
        <ele>601</ele>
      </trkpt>
      <trkpt lat="46.72968" lon="5.96154">
        <ele>597.8</ele>
      </trkpt>
      <trkpt lat="46.72901" lon="5.96098">
        <ele>594.2</ele>
      </trkpt>
      <trkpt lat="46.7286" lon="5.96026">
        <ele>587.9</ele>
      </trkpt>
      <trkpt lat="46.7282" lon="5.95963">
        <ele>583.3</ele>
      </trkpt>
      <trkpt lat="46.72808" lon="5.95938">
        <ele>581.6</ele>
      </trkpt>
      <trkpt lat="46.72817" lon="5.95865">
        <ele>580.4</ele>
      </trkpt>
      <trkpt lat="46.72774" lon="5.95802">
        <ele>578.7</ele>
      </trkpt>
      <trkpt lat="46.72735" lon="5.95759">
        <ele>574.8</ele>
      </trkpt>
      <trkpt lat="46.72696" lon="5.95727">
        <ele>571.2</ele>
      </trkpt>
      <trkpt lat="46.72676" lon="5.95678">
        <ele>567.9</ele>
      </trkpt>
      <trkpt lat="46.72624" lon="5.95654">
        <ele>560.6</ele>
      </trkpt>
      <trkpt lat="46.72564" lon="5.95659">
        <ele>551.9</ele>
      </trkpt>
      <trkpt lat="46.72524" lon="5.95691">
        <ele>546.7</ele>
      </trkpt>
      <trkpt lat="46.72498" lon="5.95663">
        <ele>542.3</ele>
      </trkpt>
      <trkpt lat="46.72455" lon="5.95609">
        <ele>537.3</ele>
      </trkpt>
      <trkpt lat="46.72421" lon="5.95652">
        <ele>536.1</ele>
      </trkpt>
      <trkpt lat="46.72446" lon="5.95635">
        <ele>534.5</ele>
      </trkpt>
      <trkpt lat="46.72483" lon="5.95641">
        <ele>539.2</ele>
      </trkpt>
      <trkpt lat="46.72505" lon="5.95684">
        <ele>541.7</ele>
      </trkpt>
      <trkpt lat="46.72545" lon="5.9568">
        <ele>550.9</ele>
      </trkpt>
      <trkpt lat="46.72595" lon="5.95656">
        <ele>557</ele>
      </trkpt>
      <trkpt lat="46.72651" lon="5.95665">
        <ele>563.1</ele>
      </trkpt>
      <trkpt lat="46.72682" lon="5.95704">
        <ele>571.2</ele>
      </trkpt>
      <trkpt lat="46.72712" lon="5.95738">
        <ele>573.1</ele>
      </trkpt>
      <trkpt lat="46.72754" lon="5.95785">
        <ele>576.8</ele>
      </trkpt>
      <trkpt lat="46.72808" lon="5.95835">
        <ele>581</ele>
      </trkpt>
      <trkpt lat="46.7281" lon="5.95895">
        <ele>580.3</ele>
      </trkpt>
      <trkpt lat="46.72836" lon="5.95987">
        <ele>584.6</ele>
      </trkpt>
      <trkpt lat="46.72888" lon="5.96066">
        <ele>588.9</ele>
      </trkpt>
      <trkpt lat="46.72935" lon="5.96131">
        <ele>599.3</ele>
      </trkpt>
      <trkpt lat="46.72993" lon="5.96178">
        <ele>603.3</ele>
      </trkpt>
      <trkpt lat="46.73043" lon="5.96221">
        <ele>608</ele>
      </trkpt>
      <trkpt lat="46.73089" lon="5.96236">
        <ele>602.7</ele>
      </trkpt>
      <trkpt lat="46.7313" lon="5.96257">
        <ele>606.5</ele>
      </trkpt>
      <trkpt lat="46.73182" lon="5.96294">
        <ele>611.6</ele>
      </trkpt>
      <trkpt lat="46.73235" lon="5.96343">
        <ele>620.5</ele>
      </trkpt>
      <trkpt lat="46.73286" lon="5.96382">
        <ele>629.9</ele>
      </trkpt>
      <trkpt lat="46.73343" lon="5.96392">
        <ele>625.2</ele>
      </trkpt>
      <trkpt lat="46.73386" lon="5.9642">
        <ele>633.4</ele>
      </trkpt>
      <trkpt lat="46.73405" lon="5.96448">
        <ele>645.1</ele>
        <time>2022-07-30T13:15:03Z</time>
      </trkpt>
      <trkpt lat="46.73439" lon="5.96435">
        <ele>646.62</ele>
        <time>2022-07-30T13:15:04Z</time>
      </trkpt>
      <trkpt lat="46.73465" lon="5.96451">
        <ele>646.14</ele>
        <time>2022-07-30T13:15:08Z</time>
      </trkpt>
      <trkpt lat="46.7347" lon="5.96452">
        <ele>646.62</ele>
        <time>2022-07-30T13:15:09Z</time>
      </trkpt>
      <trkpt lat="46.73475" lon="5.96454">
        <ele>646.14</ele>
        <time>2022-07-30T13:15:10Z</time>
      </trkpt>
      <trkpt lat="46.7348" lon="5.96454">
        <ele>646.14</ele>
        <time>2022-07-30T13:15:11Z</time>
      </trkpt>
      <trkpt lat="46.73486" lon="5.96453">
        <ele>645.66</ele>
        <time>2022-07-30T13:15:12Z</time>
      </trkpt>
      <trkpt lat="46.73505" lon="5.96451">
        <ele>644.22</ele>
        <time>2022-07-30T13:15:15Z</time>
      </trkpt>
      <trkpt lat="46.73512" lon="5.96448">
        <ele>644.22</ele>
        <time>2022-07-30T13:15:16Z</time>
      </trkpt>
      <trkpt lat="46.7352" lon="5.96444">
        <ele>643.26</ele>
        <time>2022-07-30T13:15:17Z</time>
      </trkpt>
      <trkpt lat="46.73528" lon="5.96439">
        <ele>642.78</ele>
        <time>2022-07-30T13:15:18Z</time>
      </trkpt>
      <trkpt lat="46.73537" lon="5.96432">
        <ele>642.3</ele>
        <time>2022-07-30T13:15:19Z</time>
      </trkpt>
      <trkpt lat="46.7359" lon="5.96364">
        <ele>639.41</ele>
        <time>2022-07-30T13:15:26Z</time>
      </trkpt>
      <trkpt lat="46.73603" lon="5.96343">
        <ele>637.97</ele>
        <time>2022-07-30T13:15:28Z</time>
      </trkpt>
      <trkpt lat="46.73621" lon="5.96307">
        <ele>636.05</ele>
        <time>2022-07-30T13:15:31Z</time>
      </trkpt>
      <trkpt lat="46.73647" lon="5.96259">
        <ele>634.13</ele>
        <time>2022-07-30T13:15:35Z</time>
      </trkpt>
      <trkpt lat="46.73655" lon="5.9625">
        <ele>633.65</ele>
        <time>2022-07-30T13:15:36Z</time>
      </trkpt>
      <trkpt lat="46.73664" lon="5.96244">
        <ele>632.68</ele>
        <time>2022-07-30T13:15:37Z</time>
      </trkpt>
      <trkpt lat="46.73673" lon="5.96241">
        <ele>632.2</ele>
        <time>2022-07-30T13:15:38Z</time>
      </trkpt>
      <trkpt lat="46.73684" lon="5.9624">
        <ele>631.72</ele>
        <time>2022-07-30T13:15:39Z</time>
      </trkpt>
      <trkpt lat="46.73752" lon="5.9623">
        <ele>628.84</ele>
        <time>2022-07-30T13:15:45Z</time>
      </trkpt>
      <trkpt lat="46.73807" lon="5.9621">
        <ele>626.44</ele>
        <time>2022-07-30T13:15:50Z</time>
      </trkpt>
      <trkpt lat="46.73816" lon="5.96201">
        <ele>624.99</ele>
        <time>2022-07-30T13:15:51Z</time>
      </trkpt>
      <trkpt lat="46.73824" lon="5.9619">
        <ele>624.03</ele>
        <time>2022-07-30T13:15:52Z</time>
      </trkpt>
      <trkpt lat="46.73829" lon="5.96177">
        <ele>623.55</ele>
        <time>2022-07-30T13:15:53Z</time>
      </trkpt>
      <trkpt lat="46.73831" lon="5.96163">
        <ele>623.55</ele>
        <time>2022-07-30T13:15:54Z</time>
      </trkpt>
      <trkpt lat="46.73832" lon="5.96148">
        <ele>622.59</ele>
        <time>2022-07-30T13:15:55Z</time>
      </trkpt>
      <trkpt lat="46.73833" lon="5.96132">
        <ele>621.63</ele>
        <time>2022-07-30T13:15:56Z</time>
      </trkpt>
      <trkpt lat="46.73832" lon="5.9606">
        <ele>618.26</ele>
        <time>2022-07-30T13:16:00Z</time>
      </trkpt>
      <trkpt lat="46.73841" lon="5.96031">
        <ele>617.78</ele>
        <time>2022-07-30T13:16:02Z</time>
      </trkpt>
      <trkpt lat="46.73847" lon="5.9602">
        <ele>619.71</ele>
        <time>2022-07-30T13:16:03Z</time>
      </trkpt>
      <trkpt lat="46.73856" lon="5.96015">
        <ele>619.71</ele>
        <time>2022-07-30T13:16:04Z</time>
      </trkpt>
      <trkpt lat="46.73868" lon="5.96013">
        <ele>617.3</ele>
        <time>2022-07-30T13:16:05Z</time>
      </trkpt>
      <trkpt lat="46.73898" lon="5.96015">
        <ele>614.9</ele>
        <time>2022-07-30T13:16:07Z</time>
      </trkpt>
      <trkpt lat="46.73959" lon="5.96022">
        <ele>611.54</ele>
        <time>2022-07-30T13:16:12Z</time>
      </trkpt>
      <trkpt lat="46.74007" lon="5.96024">
        <ele>610.57</ele>
        <time>2022-07-30T13:16:16Z</time>
      </trkpt>
      <trkpt lat="46.74019" lon="5.96022">
        <ele>609.61</ele>
        <time>2022-07-30T13:16:17Z</time>
      </trkpt>
      <trkpt lat="46.74087" lon="5.96008">
        <ele>606.25</ele>
        <time>2022-07-30T13:16:23Z</time>
      </trkpt>
      <trkpt lat="46.74109" lon="5.96002">
        <ele>604.33</ele>
        <time>2022-07-30T13:16:25Z</time>
      </trkpt>
      <trkpt lat="46.7412" lon="5.96002">
        <ele>604.33</ele>
        <time>2022-07-30T13:16:26Z</time>
      </trkpt>
      <trkpt lat="46.74132" lon="5.96003">
        <ele>603.85</ele>
        <time>2022-07-30T13:16:27Z</time>
      </trkpt>
      <trkpt lat="46.74143" lon="5.96005">
        <ele>603.36</ele>
        <time>2022-07-30T13:16:28Z</time>
      </trkpt>
      <trkpt lat="46.74154" lon="5.96009">
        <ele>602.4</ele>
        <time>2022-07-30T13:16:29Z</time>
      </trkpt>
      <trkpt lat="46.74165" lon="5.96014">
        <ele>601.92</ele>
        <time>2022-07-30T13:16:30Z</time>
      </trkpt>
      <trkpt lat="46.74175" lon="5.96019">
        <ele>600.96</ele>
        <time>2022-07-30T13:16:31Z</time>
      </trkpt>
      <trkpt lat="46.74185" lon="5.96024">
        <ele>600.96</ele>
        <time>2022-07-30T13:16:32Z</time>
      </trkpt>
      <trkpt lat="46.74297" lon="5.9607">
        <ele>601.44</ele>
        <time>2022-07-30T13:16:44Z</time>
      </trkpt>
      <trkpt lat="46.74332" lon="5.9609">
        <ele>603.36</ele>
        <time>2022-07-30T13:16:51Z</time>
      </trkpt>
      <trkpt lat="46.7438" lon="5.9611">
        <ele>605.77</ele>
        <time>2022-07-30T13:17:06Z</time>
      </trkpt>
      <trkpt lat="46.74409" lon="5.9612">
        <ele>607.21</ele>
        <time>2022-07-30T13:17:17Z</time>
      </trkpt>
      <trkpt lat="46.74432" lon="5.96129">
        <ele>609.13</ele>
        <time>2022-07-30T13:17:32Z</time>
      </trkpt>
      <trkpt lat="46.74461" lon="5.96138">
        <ele>611.06</ele>
        <time>2022-07-30T13:17:46Z</time>
      </trkpt>
      <trkpt lat="46.74496" lon="5.96126">
        <ele>611.54</ele>
        <time>2022-07-30T13:17:58Z</time>
      </trkpt>
      <trkpt lat="46.74546" lon="5.96063">
        <ele>608.17</ele>
        <time>2022-07-30T13:18:12Z</time>
      </trkpt>
      <trkpt lat="46.74628" lon="5.96016">
        <ele>608.17</ele>
        <time>2022-07-30T13:18:26Z</time>
      </trkpt>
      <trkpt lat="46.7465" lon="5.95977">
        <ele>608.17</ele>
        <time>2022-07-30T13:18:39Z</time>
      </trkpt>
      <trkpt lat="46.74681" lon="5.95887">
        <ele>606.25</ele>
        <time>2022-07-30T13:18:57Z</time>
      </trkpt>
      <trkpt lat="46.74725" lon="5.95783">
        <ele>603.85</ele>
        <time>2022-07-30T13:19:13Z</time>
      </trkpt>
      <trkpt lat="46.74729" lon="5.95777">
        <ele>603.36</ele>
        <time>2022-07-30T13:19:14Z</time>
      </trkpt>
      <trkpt lat="46.74735" lon="5.95762">
        <ele>602.4</ele>
        <time>2022-07-30T13:19:16Z</time>
      </trkpt>
      <trkpt lat="46.74736" lon="5.95753">
        <ele>602.4</ele>
        <time>2022-07-30T13:19:17Z</time>
      </trkpt>
      <trkpt lat="46.74737" lon="5.95641">
        <ele>600.96</ele>
        <time>2022-07-30T13:19:28Z</time>
      </trkpt>
      <trkpt lat="46.74739" lon="5.95634">
        <ele>600.96</ele>
        <time>2022-07-30T13:19:29Z</time>
      </trkpt>
      <trkpt lat="46.7474" lon="5.95629">
        <ele>600.96</ele>
        <time>2022-07-30T13:19:30Z</time>
      </trkpt>
      <trkpt lat="46.74742" lon="5.95624">
        <ele>601.44</ele>
        <time>2022-07-30T13:19:31Z</time>
      </trkpt>
      <trkpt lat="46.74744" lon="5.9562">
        <ele>601.92</ele>
        <time>2022-07-30T13:19:32Z</time>
      </trkpt>
      <trkpt lat="46.74765" lon="5.95589">
        <ele>603.85</ele>
        <time>2022-07-30T13:19:46Z</time>
      </trkpt>
      <trkpt lat="46.74785" lon="5.95566">
        <ele>605.77</ele>
        <time>2022-07-30T13:20:02Z</time>
      </trkpt>
      <trkpt lat="46.74809" lon="5.95542">
        <ele>608.17</ele>
        <time>2022-07-30T13:20:19Z</time>
      </trkpt>
      <trkpt lat="46.74837" lon="5.95516">
        <ele>609.61</ele>
        <time>2022-07-30T13:20:35Z</time>
      </trkpt>
      <trkpt lat="46.74871" lon="5.95466">
        <ele>611.06</ele>
        <time>2022-07-30T13:20:52Z</time>
      </trkpt>
      <trkpt lat="46.74896" lon="5.95387">
        <ele>612.02</ele>
        <time>2022-07-30T13:21:09Z</time>
      </trkpt>
      <trkpt lat="46.74898" lon="5.95382">
        <ele>612.02</ele>
        <time>2022-07-30T13:21:10Z</time>
      </trkpt>
      <trkpt lat="46.749" lon="5.95378">
        <ele>612.5</ele>
        <time>2022-07-30T13:21:11Z</time>
      </trkpt>
      <trkpt lat="46.74902" lon="5.95373">
        <ele>612.02</ele>
        <time>2022-07-30T13:21:12Z</time>
      </trkpt>
      <trkpt lat="46.74905" lon="5.95369">
        <ele>612.5</ele>
        <time>2022-07-30T13:21:13Z</time>
      </trkpt>
      <trkpt lat="46.74907" lon="5.95365">
        <ele>612.98</ele>
        <time>2022-07-30T13:21:14Z</time>
      </trkpt>
      <trkpt lat="46.7491" lon="5.95363">
        <ele>612.5</ele>
        <time>2022-07-30T13:21:15Z</time>
      </trkpt>
      <trkpt lat="46.74931" lon="5.9534">
        <ele>614.42</ele>
        <time>2022-07-30T13:21:27Z</time>
      </trkpt>
      <trkpt lat="46.74967" lon="5.95315">
        <ele>616.34</ele>
        <time>2022-07-30T13:21:44Z</time>
      </trkpt>
      <trkpt lat="46.75003" lon="5.95282">
        <ele>618.75</ele>
        <time>2022-07-30T13:22:01Z</time>
      </trkpt>
      <trkpt lat="46.75027" lon="5.95232">
        <ele>620.67</ele>
        <time>2022-07-30T13:22:19Z</time>
      </trkpt>
      <trkpt lat="46.75055" lon="5.95205">
        <ele>623.07</ele>
        <time>2022-07-30T13:22:35Z</time>
      </trkpt>
      <trkpt lat="46.75091" lon="5.95184">
        <ele>625.47</ele>
        <time>2022-07-30T13:22:52Z</time>
      </trkpt>
      <trkpt lat="46.75128" lon="5.95165">
        <ele>627.4</ele>
        <time>2022-07-30T13:23:08Z</time>
      </trkpt>
      <trkpt lat="46.75165" lon="5.95137">
        <ele>629.8</ele>
        <time>2022-07-30T13:23:24Z</time>
      </trkpt>
      <trkpt lat="46.75198" lon="5.9509">
        <ele>631.24</ele>
        <time>2022-07-30T13:23:43Z</time>
      </trkpt>
      <trkpt lat="46.75236" lon="5.95051">
        <ele>633.65</ele>
        <time>2022-07-30T13:24:01Z</time>
      </trkpt>
      <trkpt lat="46.75267" lon="5.95023">
        <ele>635.57</ele>
        <time>2022-07-30T13:24:17Z</time>
      </trkpt>
      <trkpt lat="46.75274" lon="5.95014">
        <ele>637.01</ele>
        <time>2022-07-30T13:24:21Z</time>
      </trkpt>
      <trkpt lat="46.75297" lon="5.94977">
        <ele>637.97</ele>
        <time>2022-07-30T13:24:36Z</time>
      </trkpt>
      <trkpt lat="46.75311" lon="5.94931">
        <ele>639.89</ele>
        <time>2022-07-30T13:24:51Z</time>
      </trkpt>
      <trkpt lat="46.7531" lon="5.94887">
        <ele>641.34</ele>
        <time>2022-07-30T13:25:05Z</time>
      </trkpt>
      <trkpt lat="46.75291" lon="5.94835">
        <ele>643.26</ele>
        <time>2022-07-30T13:25:22Z</time>
      </trkpt>
      <trkpt lat="46.75277" lon="5.9479">
        <ele>644.7</ele>
        <time>2022-07-30T13:25:37Z</time>
      </trkpt>
      <trkpt lat="46.75256" lon="5.94727">
        <ele>644.7</ele>
        <time>2022-07-30T13:25:54Z</time>
      </trkpt>
      <trkpt lat="46.75238" lon="5.94677">
        <ele>644.7</ele>
        <time>2022-07-30T13:26:08Z</time>
      </trkpt>
      <trkpt lat="46.7522" lon="5.94622">
        <ele>643.26</ele>
        <time>2022-07-30T13:26:19Z</time>
      </trkpt>
      <trkpt lat="46.7519" lon="5.94517">
        <ele>641.82</ele>
        <time>2022-07-30T13:26:32Z</time>
      </trkpt>
      <trkpt lat="46.75189" lon="5.94508">
        <ele>641.82</ele>
        <time>2022-07-30T13:26:33Z</time>
      </trkpt>
      <trkpt lat="46.7519" lon="5.94499">
        <ele>641.82</ele>
        <time>2022-07-30T13:26:34Z</time>
      </trkpt>
      <trkpt lat="46.75191" lon="5.94491">
        <ele>641.34</ele>
        <time>2022-07-30T13:26:35Z</time>
      </trkpt>
      <trkpt lat="46.75193" lon="5.94484">
        <ele>640.86</ele>
        <time>2022-07-30T13:26:36Z</time>
      </trkpt>
      <trkpt lat="46.75196" lon="5.94477">
        <ele>640.86</ele>
        <time>2022-07-30T13:26:37Z</time>
      </trkpt>
      <trkpt lat="46.75199" lon="5.94471">
        <ele>641.34</ele>
        <time>2022-07-30T13:26:38Z</time>
      </trkpt>
      <trkpt lat="46.75202" lon="5.94466">
        <ele>641.82</ele>
        <time>2022-07-30T13:26:39Z</time>
      </trkpt>
      <trkpt lat="46.75206" lon="5.94461">
        <ele>640.86</ele>
        <time>2022-07-30T13:26:40Z</time>
      </trkpt>
      <trkpt lat="46.75232" lon="5.94422">
        <ele>641.34</ele>
        <time>2022-07-30T13:26:47Z</time>
      </trkpt>
      <trkpt lat="46.75233" lon="5.94415">
        <ele>641.34</ele>
        <time>2022-07-30T13:26:48Z</time>
      </trkpt>
      <trkpt lat="46.75235" lon="5.94408">
        <ele>641.34</ele>
        <time>2022-07-30T13:26:49Z</time>
      </trkpt>
      <trkpt lat="46.75235" lon="5.94401">
        <ele>640.38</ele>
        <time>2022-07-30T13:26:50Z</time>
      </trkpt>
      <trkpt lat="46.75235" lon="5.94393">
        <ele>640.38</ele>
        <time>2022-07-30T13:26:51Z</time>
      </trkpt>
      <trkpt lat="46.75233" lon="5.94386">
        <ele>640.38</ele>
        <time>2022-07-30T13:26:52Z</time>
      </trkpt>
      <trkpt lat="46.75231" lon="5.94378">
        <ele>640.86</ele>
        <time>2022-07-30T13:26:53Z</time>
      </trkpt>
      <trkpt lat="46.75229" lon="5.94372">
        <ele>639.89</ele>
        <time>2022-07-30T13:26:54Z</time>
      </trkpt>
      <trkpt lat="46.75224" lon="5.94363">
        <ele>639.89</ele>
        <time>2022-07-30T13:26:55Z</time>
      </trkpt>
      <trkpt lat="46.75222" lon="5.94359">
        <ele>639.89</ele>
        <time>2022-07-30T13:26:56Z</time>
      </trkpt>
      <trkpt lat="46.75172" lon="5.94269">
        <ele>638.93</ele>
        <time>2022-07-30T13:27:12Z</time>
      </trkpt>
      <trkpt lat="46.75133" lon="5.94168">
        <ele>636.05</ele>
        <time>2022-07-30T13:27:27Z</time>
      </trkpt>
      <trkpt lat="46.75129" lon="5.9416">
        <ele>634.61</ele>
        <time>2022-07-30T13:27:28Z</time>
      </trkpt>
      <trkpt lat="46.75124" lon="5.94153">
        <ele>635.09</ele>
        <time>2022-07-30T13:27:29Z</time>
      </trkpt>
      <trkpt lat="46.75118" lon="5.94147">
        <ele>634.13</ele>
        <time>2022-07-30T13:27:30Z</time>
      </trkpt>
      <trkpt lat="46.75111" lon="5.94142">
        <ele>633.17</ele>
        <time>2022-07-30T13:27:31Z</time>
      </trkpt>
      <trkpt lat="46.75104" lon="5.94138">
        <ele>632.68</ele>
        <time>2022-07-30T13:27:32Z</time>
      </trkpt>
      <trkpt lat="46.75096" lon="5.94135">
        <ele>632.68</ele>
        <time>2022-07-30T13:27:33Z</time>
      </trkpt>
      <trkpt lat="46.75088" lon="5.94132">
        <ele>632.2</ele>
        <time>2022-07-30T13:27:34Z</time>
      </trkpt>
      <trkpt lat="46.75079" lon="5.94129">
        <ele>631.72</ele>
        <time>2022-07-30T13:27:35Z</time>
      </trkpt>
      <trkpt lat="46.75052" lon="5.94122">
        <ele>630.28</ele>
        <time>2022-07-30T13:27:38Z</time>
      </trkpt>
      <trkpt lat="46.74984" lon="5.94104">
        <ele>626.44</ele>
        <time>2022-07-30T13:27:45Z</time>
      </trkpt>
      <trkpt lat="46.74964" lon="5.94099">
        <ele>625.47</ele>
        <time>2022-07-30T13:27:47Z</time>
      </trkpt>
      <trkpt lat="46.74915" lon="5.94087">
        <ele>623.07</ele>
        <time>2022-07-30T13:27:52Z</time>
      </trkpt>
      <trkpt lat="46.74896" lon="5.94081">
        <ele>623.07</ele>
        <time>2022-07-30T13:27:54Z</time>
      </trkpt>
      <trkpt lat="46.74888" lon="5.94077">
        <ele>622.11</ele>
        <time>2022-07-30T13:27:55Z</time>
      </trkpt>
      <trkpt lat="46.74831" lon="5.94027">
        <ele>619.23</ele>
        <time>2022-07-30T13:28:02Z</time>
      </trkpt>
      <trkpt lat="46.74776" lon="5.93966">
        <ele>615.86</ele>
        <time>2022-07-30T13:28:09Z</time>
      </trkpt>
      <trkpt lat="46.74755" lon="5.93935">
        <ele>613.94</ele>
        <time>2022-07-30T13:28:12Z</time>
      </trkpt>
      <trkpt lat="46.74749" lon="5.93923">
        <ele>612.98</ele>
        <time>2022-07-30T13:28:13Z</time>
      </trkpt>
      <trkpt lat="46.74745" lon="5.9391">
        <ele>612.98</ele>
        <time>2022-07-30T13:28:14Z</time>
      </trkpt>
      <trkpt lat="46.74741" lon="5.93896">
        <ele>612.5</ele>
        <time>2022-07-30T13:28:15Z</time>
      </trkpt>
      <trkpt lat="46.74739" lon="5.93881">
        <ele>612.02</ele>
        <time>2022-07-30T13:28:16Z</time>
      </trkpt>
      <trkpt lat="46.74737" lon="5.93866">
        <ele>611.54</ele>
        <time>2022-07-30T13:28:17Z</time>
      </trkpt>
      <trkpt lat="46.74736" lon="5.9385">
        <ele>610.57</ele>
        <time>2022-07-30T13:28:18Z</time>
      </trkpt>
      <trkpt lat="46.74736" lon="5.93835">
        <ele>610.57</ele>
        <time>2022-07-30T13:28:19Z</time>
      </trkpt>
      <trkpt lat="46.74735" lon="5.9376">
        <ele>607.21</ele>
        <time>2022-07-30T13:28:24Z</time>
      </trkpt>
      <trkpt lat="46.74733" lon="5.93643">
        <ele>604.33</ele>
        <time>2022-07-30T13:28:32Z</time>
      </trkpt>
      <trkpt lat="46.74732" lon="5.9357">
        <ele>600.96</ele>
        <time>2022-07-30T13:28:37Z</time>
      </trkpt>
      <trkpt lat="46.74731" lon="5.93525">
        <ele>599.52</ele>
        <time>2022-07-30T13:28:40Z</time>
      </trkpt>
      <trkpt lat="46.74727" lon="5.93404">
        <ele>596.64</ele>
        <time>2022-07-30T13:28:48Z</time>
      </trkpt>
      <trkpt lat="46.74725" lon="5.93389">
        <ele>596.15</ele>
        <time>2022-07-30T13:28:49Z</time>
      </trkpt>
      <trkpt lat="46.7472" lon="5.93374">
        <ele>595.67</ele>
        <time>2022-07-30T13:28:50Z</time>
      </trkpt>
      <trkpt lat="46.74715" lon="5.93359">
        <ele>595.19</ele>
        <time>2022-07-30T13:28:51Z</time>
      </trkpt>
      <trkpt lat="46.74709" lon="5.93345">
        <ele>594.71</ele>
        <time>2022-07-30T13:28:52Z</time>
      </trkpt>
      <trkpt lat="46.74703" lon="5.93331">
        <ele>593.75</ele>
        <time>2022-07-30T13:28:53Z</time>
      </trkpt>
      <trkpt lat="46.7468" lon="5.93277">
        <ele>590.87</ele>
        <time>2022-07-30T13:28:57Z</time>
      </trkpt>
      <trkpt lat="46.74631" lon="5.93159">
        <ele>587.5</ele>
        <time>2022-07-30T13:29:05Z</time>
      </trkpt>
      <trkpt lat="46.74569" lon="5.93056">
        <ele>584.14</ele>
        <time>2022-07-30T13:29:14Z</time>
      </trkpt>
      <trkpt lat="46.74479" lon="5.92938">
        <ele>583.66</ele>
        <time>2022-07-30T13:29:28Z</time>
      </trkpt>
      <trkpt lat="46.74431" lon="5.9284">
        <ele>581.25</ele>
        <time>2022-07-30T13:29:41Z</time>
      </trkpt>
      <trkpt lat="46.74375" lon="5.9273">
        <ele>578.85</ele>
        <time>2022-07-30T13:29:57Z</time>
      </trkpt>
      <trkpt lat="46.7433" lon="5.9264">
        <ele>575.49</ele>
        <time>2022-07-30T13:30:06Z</time>
      </trkpt>
      <trkpt lat="46.74249" lon="5.92483">
        <ele>572.6</ele>
        <time>2022-07-30T13:30:23Z</time>
      </trkpt>
      <trkpt lat="46.7424" lon="5.92468">
        <ele>572.6</ele>
        <time>2022-07-30T13:30:25Z</time>
      </trkpt>
      <trkpt lat="46.74235" lon="5.92459">
        <ele>571.64</ele>
        <time>2022-07-30T13:30:26Z</time>
      </trkpt>
      <trkpt lat="46.74232" lon="5.92451">
        <ele>572.12</ele>
        <time>2022-07-30T13:30:27Z</time>
      </trkpt>
      <trkpt lat="46.7423" lon="5.92442">
        <ele>571.16</ele>
        <time>2022-07-30T13:30:28Z</time>
      </trkpt>
      <trkpt lat="46.74231" lon="5.92431">
        <ele>571.16</ele>
        <time>2022-07-30T13:30:29Z</time>
      </trkpt>
      <trkpt lat="46.74234" lon="5.9242">
        <ele>570.68</ele>
        <time>2022-07-30T13:30:30Z</time>
      </trkpt>
      <trkpt lat="46.74259" lon="5.92349">
        <ele>569.24</ele>
        <time>2022-07-30T13:30:37Z</time>
      </trkpt>
      <trkpt lat="46.7426" lon="5.92338">
        <ele>568.76</ele>
        <time>2022-07-30T13:30:38Z</time>
      </trkpt>
      <trkpt lat="46.74264" lon="5.923">
        <ele>570.68</ele>
        <time>2022-07-30T13:30:42Z</time>
      </trkpt>
      <trkpt lat="46.7427" lon="5.92276">
        <ele>568.76</ele>
        <time>2022-07-30T13:30:45Z</time>
      </trkpt>
      <trkpt lat="46.74276" lon="5.92264">
        <ele>567.8</ele>
        <time>2022-07-30T13:30:47Z</time>
      </trkpt>
      <trkpt lat="46.74278" lon="5.92257">
        <ele>567.8</ele>
        <time>2022-07-30T13:30:48Z</time>
      </trkpt>
      <trkpt lat="46.74279" lon="5.92249">
        <ele>567.32</ele>
        <time>2022-07-30T13:30:49Z</time>
      </trkpt>
      <trkpt lat="46.74281" lon="5.92225">
        <ele>567.8</ele>
        <time>2022-07-30T13:30:52Z</time>
      </trkpt>
      <trkpt lat="46.74283" lon="5.92218">
        <ele>567.32</ele>
        <time>2022-07-30T13:30:53Z</time>
      </trkpt>
      <trkpt lat="46.74286" lon="5.92211">
        <ele>567.32</ele>
        <time>2022-07-30T13:30:54Z</time>
      </trkpt>
      <trkpt lat="46.74335" lon="5.92117">
        <ele>566.35</ele>
        <time>2022-07-30T13:31:10Z</time>
      </trkpt>
      <trkpt lat="46.7435" lon="5.92097">
        <ele>565.87</ele>
        <time>2022-07-30T13:31:14Z</time>
      </trkpt>
      <trkpt lat="46.74373" lon="5.92082">
        <ele>566.35</ele>
        <time>2022-07-30T13:31:19Z</time>
      </trkpt>
      <trkpt lat="46.74378" lon="5.92081">
        <ele>565.87</ele>
        <time>2022-07-30T13:31:20Z</time>
      </trkpt>
      <trkpt lat="46.74388" lon="5.92081">
        <ele>565.87</ele>
        <time>2022-07-30T13:31:22Z</time>
      </trkpt>
      <trkpt lat="46.74392" lon="5.92081">
        <ele>565.87</ele>
        <time>2022-07-30T13:31:23Z</time>
      </trkpt>
      <trkpt lat="46.74397" lon="5.92082">
        <ele>565.87</ele>
        <time>2022-07-30T13:31:24Z</time>
      </trkpt>
      <trkpt lat="46.74418" lon="5.92089">
        <ele>566.83</ele>
        <time>2022-07-30T13:31:29Z</time>
      </trkpt>
      <trkpt lat="46.74421" lon="5.92092">
        <ele>566.83</ele>
        <time>2022-07-30T13:31:30Z</time>
      </trkpt>
      <trkpt lat="46.74502" lon="5.92152">
        <ele>567.32</ele>
        <time>2022-07-30T13:31:50Z</time>
      </trkpt>
      <trkpt lat="46.74577" lon="5.92209">
        <ele>566.35</ele>
        <time>2022-07-30T13:32:08Z</time>
      </trkpt>
      <trkpt lat="46.74585" lon="5.92213">
        <ele>566.83</ele>
        <time>2022-07-30T13:32:10Z</time>
      </trkpt>
      <trkpt lat="46.7459" lon="5.92215">
        <ele>566.83</ele>
        <time>2022-07-30T13:32:11Z</time>
      </trkpt>
      <trkpt lat="46.74595" lon="5.92216">
        <ele>566.83</ele>
        <time>2022-07-30T13:32:12Z</time>
      </trkpt>
      <trkpt lat="46.746" lon="5.92216">
        <ele>566.83</ele>
        <time>2022-07-30T13:32:13Z</time>
      </trkpt>
      <trkpt lat="46.74604" lon="5.92216">
        <ele>566.83</ele>
        <time>2022-07-30T13:32:14Z</time>
      </trkpt>
      <trkpt lat="46.74609" lon="5.92216">
        <ele>566.83</ele>
        <time>2022-07-30T13:32:15Z</time>
      </trkpt>
      <trkpt lat="46.74658" lon="5.92204">
        <ele>566.83</ele>
        <time>2022-07-30T13:32:25Z</time>
      </trkpt>
      <trkpt lat="46.74662" lon="5.92204">
        <ele>567.8</ele>
        <time>2022-07-30T13:32:26Z</time>
      </trkpt>
      <trkpt lat="46.74666" lon="5.92206">
        <ele>567.32</ele>
        <time>2022-07-30T13:32:27Z</time>
      </trkpt>
      <trkpt lat="46.7467" lon="5.9221">
        <ele>567.8</ele>
        <time>2022-07-30T13:32:28Z</time>
      </trkpt>
      <trkpt lat="46.74673" lon="5.92215">
        <ele>567.8</ele>
        <time>2022-07-30T13:32:29Z</time>
      </trkpt>
      <trkpt lat="46.74676" lon="5.92221">
        <ele>567.8</ele>
        <time>2022-07-30T13:32:30Z</time>
      </trkpt>
      <trkpt lat="46.74679" lon="5.92226">
        <ele>567.8</ele>
        <time>2022-07-30T13:32:31Z</time>
      </trkpt>
      <trkpt lat="46.74682" lon="5.9223">
        <ele>568.28</ele>
        <time>2022-07-30T13:32:32Z</time>
      </trkpt>
      <trkpt lat="46.74686" lon="5.92233">
        <ele>567.8</ele>
        <time>2022-07-30T13:32:33Z</time>
      </trkpt>
      <trkpt lat="46.7469" lon="5.92235">
        <ele>567.8</ele>
        <time>2022-07-30T13:32:34Z</time>
      </trkpt>
      <trkpt lat="46.74695" lon="5.92235">
        <ele>567.8</ele>
        <time>2022-07-30T13:32:35Z</time>
      </trkpt>
      <trkpt lat="46.74699" lon="5.92235">
        <ele>568.28</ele>
        <time>2022-07-30T13:32:36Z</time>
      </trkpt>
      <trkpt lat="46.74703" lon="5.92234">
        <ele>567.8</ele>
        <time>2022-07-30T13:32:37Z</time>
      </trkpt>
      <trkpt lat="46.74707" lon="5.92231">
        <ele>567.8</ele>
        <time>2022-07-30T13:32:38Z</time>
      </trkpt>
      <trkpt lat="46.74711" lon="5.92227">
        <ele>567.8</ele>
        <time>2022-07-30T13:32:39Z</time>
      </trkpt>
      <trkpt lat="46.74714" lon="5.92223">
        <ele>567.8</ele>
        <time>2022-07-30T13:32:40Z</time>
      </trkpt>
      <trkpt lat="46.74717" lon="5.92218">
        <ele>567.32</ele>
        <time>2022-07-30T13:32:41Z</time>
      </trkpt>
      <trkpt lat="46.7472" lon="5.92213">
        <ele>567.8</ele>
        <time>2022-07-30T13:32:42Z</time>
      </trkpt>
      <trkpt lat="46.74721" lon="5.92207">
        <ele>567.8</ele>
        <time>2022-07-30T13:32:43Z</time>
      </trkpt>
      <trkpt lat="46.74723" lon="5.922">
        <ele>567.8</ele>
        <time>2022-07-30T13:32:44Z</time>
      </trkpt>
      <trkpt lat="46.74725" lon="5.92194">
        <ele>567.8</ele>
        <time>2022-07-30T13:32:45Z</time>
      </trkpt>
      <trkpt lat="46.74727" lon="5.92188">
        <ele>567.8</ele>
        <time>2022-07-30T13:32:46Z</time>
      </trkpt>
      <trkpt lat="46.74731" lon="5.92183">
        <ele>567.8</ele>
        <time>2022-07-30T13:32:47Z</time>
      </trkpt>
      <trkpt lat="46.74734" lon="5.92178">
        <ele>567.32</ele>
        <time>2022-07-30T13:32:48Z</time>
      </trkpt>
      <trkpt lat="46.74739" lon="5.92174">
        <ele>567.32</ele>
        <time>2022-07-30T13:32:49Z</time>
      </trkpt>
      <trkpt lat="46.74744" lon="5.92171">
        <ele>566.83</ele>
        <time>2022-07-30T13:32:50Z</time>
      </trkpt>
      <trkpt lat="46.74753" lon="5.92163">
        <ele>566.83</ele>
        <time>2022-07-30T13:32:52Z</time>
      </trkpt>
      <trkpt lat="46.74757" lon="5.92159">
        <ele>566.83</ele>
        <time>2022-07-30T13:32:53Z</time>
      </trkpt>
      <trkpt lat="46.74761" lon="5.92153">
        <ele>566.83</ele>
        <time>2022-07-30T13:32:54Z</time>
      </trkpt>
      <trkpt lat="46.74764" lon="5.92147">
        <ele>566.83</ele>
        <time>2022-07-30T13:32:55Z</time>
      </trkpt>
      <trkpt lat="46.74766" lon="5.9214">
        <ele>566.35</ele>
        <time>2022-07-30T13:32:56Z</time>
      </trkpt>
      <trkpt lat="46.74768" lon="5.92131">
        <ele>566.83</ele>
        <time>2022-07-30T13:32:57Z</time>
      </trkpt>
      <trkpt lat="46.74769" lon="5.92115">
        <ele>566.83</ele>
        <time>2022-07-30T13:32:59Z</time>
      </trkpt>
      <trkpt lat="46.74779" lon="5.9204">
        <ele>565.39</ele>
        <time>2022-07-30T13:33:12Z</time>
      </trkpt>
      <trkpt lat="46.7478" lon="5.92033">
        <ele>564.91</ele>
        <time>2022-07-30T13:33:15Z</time>
      </trkpt>
      <trkpt lat="46.74795" lon="5.92029">
        <ele>564.91</ele>
        <time>2022-07-30T13:38:54Z</time>
      </trkpt>
      <trkpt lat="46.74793" lon="5.92028">
        <ele>564.91</ele>
        <time>2022-07-30T13:38:55Z</time>
      </trkpt>
      <trkpt lat="46.74786" lon="5.92026">
        <ele>564.43</ele>
        <time>2022-07-30T13:39:08Z</time>
      </trkpt>
      <trkpt lat="46.74784" lon="5.92022">
        <ele>564.43</ele>
        <time>2022-07-30T13:39:13Z</time>
      </trkpt>
      <trkpt lat="46.74788" lon="5.91974">
        <ele>564.91</ele>
        <time>2022-07-30T13:39:24Z</time>
      </trkpt>
      <trkpt lat="46.74793" lon="5.91928">
        <ele>564.91</ele>
        <time>2022-07-30T13:39:32Z</time>
      </trkpt>
      <trkpt lat="46.74804" lon="5.91828">
        <ele>563.47</ele>
        <time>2022-07-30T13:39:47Z</time>
      </trkpt>
      <trkpt lat="46.74815" lon="5.91718">
        <ele>562.51</ele>
        <time>2022-07-30T13:40:03Z</time>
      </trkpt>
      <trkpt lat="46.74817" lon="5.9169">
        <ele>562.99</ele>
        <time>2022-07-30T13:40:07Z</time>
      </trkpt>
      <trkpt lat="46.74799" lon="5.91592">
        <ele>561.55</ele>
        <time>2022-07-30T13:40:20Z</time>
      </trkpt>
      <trkpt lat="46.7479" lon="5.91474">
        <ele>561.07</ele>
        <time>2022-07-30T13:40:35Z</time>
      </trkpt>
      <trkpt lat="46.74788" lon="5.91467">
        <ele>562.03</ele>
        <time>2022-07-30T13:40:36Z</time>
      </trkpt>
      <trkpt lat="46.74785" lon="5.91461">
        <ele>561.55</ele>
        <time>2022-07-30T13:40:37Z</time>
      </trkpt>
      <trkpt lat="46.74782" lon="5.91455">
        <ele>561.55</ele>
        <time>2022-07-30T13:40:38Z</time>
      </trkpt>
      <trkpt lat="46.74778" lon="5.9145">
        <ele>561.07</ele>
        <time>2022-07-30T13:40:39Z</time>
      </trkpt>
      <trkpt lat="46.74773" lon="5.91446">
        <ele>561.55</ele>
        <time>2022-07-30T13:40:40Z</time>
      </trkpt>
      <trkpt lat="46.74756" lon="5.91427">
        <ele>560.59</ele>
        <time>2022-07-30T13:40:44Z</time>
      </trkpt>
      <trkpt lat="46.74753" lon="5.9142">
        <ele>560.11</ele>
        <time>2022-07-30T13:40:45Z</time>
      </trkpt>
      <trkpt lat="46.74751" lon="5.91412">
        <ele>560.11</ele>
        <time>2022-07-30T13:40:46Z</time>
      </trkpt>
      <trkpt lat="46.74751" lon="5.91404">
        <ele>559.62</ele>
        <time>2022-07-30T13:40:47Z</time>
      </trkpt>
      <trkpt lat="46.74752" lon="5.91396">
        <ele>560.11</ele>
        <time>2022-07-30T13:40:48Z</time>
      </trkpt>
      <trkpt lat="46.74753" lon="5.91389">
        <ele>560.11</ele>
        <time>2022-07-30T13:40:49Z</time>
      </trkpt>
      <trkpt lat="46.74755" lon="5.91381">
        <ele>560.59</ele>
        <time>2022-07-30T13:40:50Z</time>
      </trkpt>
      <trkpt lat="46.74762" lon="5.91346">
        <ele>560.11</ele>
        <time>2022-07-30T13:40:55Z</time>
      </trkpt>
      <trkpt lat="46.74763" lon="5.91339">
        <ele>559.62</ele>
        <time>2022-07-30T13:40:56Z</time>
      </trkpt>
      <trkpt lat="46.74755" lon="5.91203">
        <ele>558.18</ele>
        <time>2022-07-30T13:41:13Z</time>
      </trkpt>
      <trkpt lat="46.74725" lon="5.91074">
        <ele>555.78</ele>
        <time>2022-07-30T13:41:27Z</time>
      </trkpt>
      <trkpt lat="46.74696" lon="5.90949">
        <ele>554.82</ele>
        <time>2022-07-30T13:41:41Z</time>
      </trkpt>
      <trkpt lat="46.74696" lon="5.90942">
        <ele>554.82</ele>
        <time>2022-07-30T13:41:42Z</time>
      </trkpt>
      <trkpt lat="46.74697" lon="5.90935">
        <ele>554.82</ele>
        <time>2022-07-30T13:41:43Z</time>
      </trkpt>
      <trkpt lat="46.747" lon="5.90922">
        <ele>555.3</ele>
        <time>2022-07-30T13:41:45Z</time>
      </trkpt>
      <trkpt lat="46.74705" lon="5.90909">
        <ele>554.82</ele>
        <time>2022-07-30T13:41:47Z</time>
      </trkpt>
      <trkpt lat="46.74703" lon="5.90889">
        <ele>554.34</ele>
        <time>2022-07-30T13:41:50Z</time>
      </trkpt>
      <trkpt lat="46.74707" lon="5.90869">
        <ele>554.34</ele>
        <time>2022-07-30T13:41:53Z</time>
      </trkpt>
      <trkpt lat="46.74711" lon="5.90864">
        <ele>554.34</ele>
        <time>2022-07-30T13:41:54Z</time>
      </trkpt>
      <trkpt lat="46.74715" lon="5.9086">
        <ele>554.82</ele>
        <time>2022-07-30T13:41:55Z</time>
      </trkpt>
      <trkpt lat="46.74718" lon="5.90854">
        <ele>553.86</ele>
        <time>2022-07-30T13:41:56Z</time>
      </trkpt>
      <trkpt lat="46.7472" lon="5.90847">
        <ele>553.86</ele>
        <time>2022-07-30T13:41:57Z</time>
      </trkpt>
      <trkpt lat="46.74719" lon="5.9084">
        <ele>553.86</ele>
        <time>2022-07-30T13:41:58Z</time>
      </trkpt>
      <trkpt lat="46.74719" lon="5.90833">
        <ele>554.34</ele>
        <time>2022-07-30T13:41:59Z</time>
      </trkpt>
      <trkpt lat="46.7472" lon="5.90826">
        <ele>553.86</ele>
        <time>2022-07-30T13:42:00Z</time>
      </trkpt>
      <trkpt lat="46.74722" lon="5.90818">
        <ele>552.9</ele>
        <time>2022-07-30T13:42:01Z</time>
      </trkpt>
      <trkpt lat="46.74724" lon="5.9081">
        <ele>553.38</ele>
        <time>2022-07-30T13:42:02Z</time>
      </trkpt>
      <trkpt lat="46.74724" lon="5.90801">
        <ele>553.38</ele>
        <time>2022-07-30T13:42:03Z</time>
      </trkpt>
      <trkpt lat="46.74722" lon="5.90792">
        <ele>552.41</ele>
        <time>2022-07-30T13:42:04Z</time>
      </trkpt>
      <trkpt lat="46.74721" lon="5.90783">
        <ele>551.93</ele>
        <time>2022-07-30T13:42:05Z</time>
      </trkpt>
      <trkpt lat="46.74722" lon="5.90775">
        <ele>551.45</ele>
        <time>2022-07-30T13:42:06Z</time>
      </trkpt>
      <trkpt lat="46.74723" lon="5.90768">
        <ele>551.93</ele>
        <time>2022-07-30T13:42:07Z</time>
      </trkpt>
      <trkpt lat="46.74727" lon="5.90764">
        <ele>551.93</ele>
        <time>2022-07-30T13:42:08Z</time>
      </trkpt>
      <trkpt lat="46.74731" lon="5.90762">
        <ele>551.93</ele>
        <time>2022-07-30T13:42:09Z</time>
      </trkpt>
      <trkpt lat="46.74736" lon="5.9076">
        <ele>551.93</ele>
        <time>2022-07-30T13:42:10Z</time>
      </trkpt>
      <trkpt lat="46.74781" lon="5.90749">
        <ele>553.38</ele>
        <time>2022-07-30T13:42:23Z</time>
      </trkpt>
      <trkpt lat="46.74814" lon="5.9074">
        <ele>555.78</ele>
        <time>2022-07-30T13:42:39Z</time>
      </trkpt>
      <trkpt lat="46.74835" lon="5.90743">
        <ele>556.74</ele>
        <time>2022-07-30T13:42:48Z</time>
      </trkpt>
      <trkpt lat="46.74841" lon="5.90734">
        <ele>556.26</ele>
        <time>2022-07-30T13:42:52Z</time>
      </trkpt>
      <trkpt lat="46.74841" lon="5.9073">
        <ele>556.74</ele>
        <time>2022-07-30T13:42:53Z</time>
      </trkpt>
      <trkpt lat="46.74841" lon="5.90726">
        <ele>556.74</ele>
        <time>2022-07-30T13:42:54Z</time>
      </trkpt>
      <trkpt lat="46.74839" lon="5.90678">
        <ele>556.74</ele>
        <time>2022-07-30T13:43:05Z</time>
      </trkpt>
      <trkpt lat="46.74858" lon="5.90593">
        <ele>559.62</ele>
        <time>2022-07-30T13:43:25Z</time>
      </trkpt>
      <trkpt lat="46.74878" lon="5.90494">
        <ele>559.62</ele>
        <time>2022-07-30T13:43:46Z</time>
      </trkpt>
      <trkpt lat="46.749" lon="5.90401">
        <ele>559.62</ele>
        <time>2022-07-30T13:44:03Z</time>
      </trkpt>
      <trkpt lat="46.74916" lon="5.90324">
        <ele>559.14</ele>
        <time>2022-07-30T13:44:15Z</time>
      </trkpt>
      <trkpt lat="46.74919" lon="5.90298">
        <ele>559.14</ele>
        <time>2022-07-30T13:44:19Z</time>
      </trkpt>
      <trkpt lat="46.74918" lon="5.90291">
        <ele>559.14</ele>
        <time>2022-07-30T13:44:20Z</time>
      </trkpt>
      <trkpt lat="46.74916" lon="5.90285">
        <ele>558.66</ele>
        <time>2022-07-30T13:44:21Z</time>
      </trkpt>
      <trkpt lat="46.74914" lon="5.90279">
        <ele>558.66</ele>
        <time>2022-07-30T13:44:22Z</time>
      </trkpt>
      <trkpt lat="46.74911" lon="5.90274">
        <ele>558.66</ele>
        <time>2022-07-30T13:44:23Z</time>
      </trkpt>
      <trkpt lat="46.74907" lon="5.90269">
        <ele>558.18</ele>
        <time>2022-07-30T13:44:24Z</time>
      </trkpt>
      <trkpt lat="46.74902" lon="5.90264">
        <ele>558.66</ele>
        <time>2022-07-30T13:44:25Z</time>
      </trkpt>
      <trkpt lat="46.74898" lon="5.9026">
        <ele>558.18</ele>
        <time>2022-07-30T13:44:26Z</time>
      </trkpt>
      <trkpt lat="46.74885" lon="5.90246">
        <ele>557.7</ele>
        <time>2022-07-30T13:44:29Z</time>
      </trkpt>
      <trkpt lat="46.74808" lon="5.90172">
        <ele>557.7</ele>
        <time>2022-07-30T13:44:46Z</time>
      </trkpt>
      <trkpt lat="46.74788" lon="5.90152">
        <ele>558.18</ele>
        <time>2022-07-30T13:44:51Z</time>
      </trkpt>
      <trkpt lat="46.74778" lon="5.90139">
        <ele>558.66</ele>
        <time>2022-07-30T13:44:54Z</time>
      </trkpt>
      <trkpt lat="46.74775" lon="5.90134">
        <ele>558.66</ele>
        <time>2022-07-30T13:44:55Z</time>
      </trkpt>
      <trkpt lat="46.74772" lon="5.90129">
        <ele>558.66</ele>
        <time>2022-07-30T13:44:56Z</time>
      </trkpt>
      <trkpt lat="46.7477" lon="5.90124">
        <ele>559.14</ele>
        <time>2022-07-30T13:44:57Z</time>
      </trkpt>
      <trkpt lat="46.74768" lon="5.90118">
        <ele>559.14</ele>
        <time>2022-07-30T13:44:58Z</time>
      </trkpt>
      <trkpt lat="46.74766" lon="5.90113">
        <ele>559.14</ele>
        <time>2022-07-30T13:44:59Z</time>
      </trkpt>
      <trkpt lat="46.74752" lon="5.90077">
        <ele>558.66</ele>
        <time>2022-07-30T13:45:05Z</time>
      </trkpt>
      <trkpt lat="46.74749" lon="5.90071">
        <ele>559.14</ele>
        <time>2022-07-30T13:45:06Z</time>
      </trkpt>
      <trkpt lat="46.74745" lon="5.90065">
        <ele>559.14</ele>
        <time>2022-07-30T13:45:07Z</time>
      </trkpt>
      <trkpt lat="46.74741" lon="5.9006">
        <ele>558.66</ele>
        <time>2022-07-30T13:45:08Z</time>
      </trkpt>
      <trkpt lat="46.74737" lon="5.90054">
        <ele>558.66</ele>
        <time>2022-07-30T13:45:09Z</time>
      </trkpt>
      <trkpt lat="46.7471" lon="5.90016">
        <ele>557.22</ele>
        <time>2022-07-30T13:45:15Z</time>
      </trkpt>
      <trkpt lat="46.74701" lon="5.90004">
        <ele>556.74</ele>
        <time>2022-07-30T13:45:17Z</time>
      </trkpt>
      <trkpt lat="46.74697" lon="5.89997">
        <ele>556.74</ele>
        <time>2022-07-30T13:45:18Z</time>
      </trkpt>
      <trkpt lat="46.74679" lon="5.8996">
        <ele>556.74</ele>
        <time>2022-07-30T13:45:23Z</time>
      </trkpt>
      <trkpt lat="46.74677" lon="5.89952">
        <ele>557.22</ele>
        <time>2022-07-30T13:45:24Z</time>
      </trkpt>
      <trkpt lat="46.74677" lon="5.89944">
        <ele>556.74</ele>
        <time>2022-07-30T13:45:25Z</time>
      </trkpt>
      <trkpt lat="46.74677" lon="5.89936">
        <ele>556.26</ele>
        <time>2022-07-30T13:45:26Z</time>
      </trkpt>
      <trkpt lat="46.74677" lon="5.89929">
        <ele>556.26</ele>
        <time>2022-07-30T13:45:27Z</time>
      </trkpt>
      <trkpt lat="46.74685" lon="5.89898">
        <ele>556.26</ele>
        <time>2022-07-30T13:45:37Z</time>
      </trkpt>
      <trkpt lat="46.74688" lon="5.89896">
        <ele>556.26</ele>
        <time>2022-07-30T13:45:44Z</time>
      </trkpt>
      <trkpt lat="46.74689" lon="5.89894">
        <ele>556.26</ele>
        <time>2022-07-30T13:45:45Z</time>
      </trkpt>
      <trkpt lat="46.7469" lon="5.89892">
        <ele>556.26</ele>
        <time>2022-07-30T13:45:46Z</time>
      </trkpt>
      <trkpt lat="46.7469" lon="5.8989">
        <ele>555.78</ele>
        <time>2022-07-30T13:45:47Z</time>
      </trkpt>
      <trkpt lat="46.74691" lon="5.89887">
        <ele>556.74</ele>
        <time>2022-07-30T13:45:48Z</time>
      </trkpt>
      <trkpt lat="46.74692" lon="5.89885">
        <ele>555.78</ele>
        <time>2022-07-30T13:45:49Z</time>
      </trkpt>
      <trkpt lat="46.74693" lon="5.89882">
        <ele>555.78</ele>
        <time>2022-07-30T13:45:50Z</time>
      </trkpt>
      <trkpt lat="46.74693" lon="5.89879">
        <ele>555.78</ele>
        <time>2022-07-30T13:45:51Z</time>
      </trkpt>
      <trkpt lat="46.74693" lon="5.89875">
        <ele>555.78</ele>
        <time>2022-07-30T13:45:52Z</time>
      </trkpt>
      <trkpt lat="46.74694" lon="5.89871">
        <ele>555.78</ele>
        <time>2022-07-30T13:45:53Z</time>
      </trkpt>
      <trkpt lat="46.74695" lon="5.89867">
        <ele>555.78</ele>
        <time>2022-07-30T13:45:54Z</time>
      </trkpt>
      <trkpt lat="46.74706" lon="5.89825">
        <ele>554.82</ele>
        <time>2022-07-30T13:46:05Z</time>
      </trkpt>
      <trkpt lat="46.74703" lon="5.89821">
        <ele>554.34</ele>
        <time>2022-07-30T13:46:06Z</time>
      </trkpt>
      <trkpt lat="46.74699" lon="5.89818">
        <ele>553.86</ele>
        <time>2022-07-30T13:46:07Z</time>
      </trkpt>
      <trkpt lat="46.74695" lon="5.89818">
        <ele>554.82</ele>
        <time>2022-07-30T13:46:08Z</time>
      </trkpt>
      <trkpt lat="46.74691" lon="5.89818">
        <ele>554.82</ele>
        <time>2022-07-30T13:46:09Z</time>
      </trkpt>
      <trkpt lat="46.74687" lon="5.8982">
        <ele>554.34</ele>
        <time>2022-07-30T13:46:10Z</time>
      </trkpt>
      <trkpt lat="46.74683" lon="5.89822">
        <ele>554.34</ele>
        <time>2022-07-30T13:46:11Z</time>
      </trkpt>
      <trkpt lat="46.74665" lon="5.8983">
        <ele>552.9</ele>
        <time>2022-07-30T13:46:16Z</time>
      </trkpt>
      <trkpt lat="46.74662" lon="5.89828">
        <ele>552.9</ele>
        <time>2022-07-30T13:46:17Z</time>
      </trkpt>
      <trkpt lat="46.74661" lon="5.89825">
        <ele>552.9</ele>
        <time>2022-07-30T13:46:18Z</time>
      </trkpt>
      <trkpt lat="46.7466" lon="5.89821">
        <ele>552.41</ele>
        <time>2022-07-30T13:46:19Z</time>
      </trkpt>
      <trkpt lat="46.7466" lon="5.89816">
        <ele>551.93</ele>
        <time>2022-07-30T13:46:20Z</time>
      </trkpt>
      <trkpt lat="46.7466" lon="5.8981">
        <ele>551.45</ele>
        <time>2022-07-30T13:46:21Z</time>
      </trkpt>
      <trkpt lat="46.74661" lon="5.89802">
        <ele>550.49</ele>
        <time>2022-07-30T13:46:22Z</time>
      </trkpt>
      <trkpt lat="46.74661" lon="5.89794">
        <ele>550.49</ele>
        <time>2022-07-30T13:46:23Z</time>
      </trkpt>
      <trkpt lat="46.74668" lon="5.89753">
        <ele>549.53</ele>
        <time>2022-07-30T13:46:28Z</time>
      </trkpt>
      <trkpt lat="46.74669" lon="5.89746">
        <ele>549.53</ele>
        <time>2022-07-30T13:46:29Z</time>
      </trkpt>
      <trkpt lat="46.74668" lon="5.89739">
        <ele>549.53</ele>
        <time>2022-07-30T13:46:30Z</time>
      </trkpt>
      <trkpt lat="46.74667" lon="5.89732">
        <ele>549.05</ele>
        <time>2022-07-30T13:46:31Z</time>
      </trkpt>
      <trkpt lat="46.74666" lon="5.89726">
        <ele>549.53</ele>
        <time>2022-07-30T13:46:32Z</time>
      </trkpt>
      <trkpt lat="46.74666" lon="5.89719">
        <ele>549.53</ele>
        <time>2022-07-30T13:46:33Z</time>
      </trkpt>
      <trkpt lat="46.74667" lon="5.89712">
        <ele>549.53</ele>
        <time>2022-07-30T13:46:34Z</time>
      </trkpt>
      <trkpt lat="46.74663" lon="5.89687">
        <ele>549.05</ele>
        <time>2022-07-30T13:46:39Z</time>
      </trkpt>
      <trkpt lat="46.74659" lon="5.89687">
        <ele>548.57</ele>
        <time>2022-07-30T13:46:40Z</time>
      </trkpt>
      <trkpt lat="46.74655" lon="5.89688">
        <ele>549.05</ele>
        <time>2022-07-30T13:46:41Z</time>
      </trkpt>
      <trkpt lat="46.74651" lon="5.89688">
        <ele>548.57</ele>
        <time>2022-07-30T13:46:42Z</time>
      </trkpt>
      <trkpt lat="46.74648" lon="5.89688">
        <ele>548.57</ele>
        <time>2022-07-30T13:46:43Z</time>
      </trkpt>
      <trkpt lat="46.74646" lon="5.89686">
        <ele>548.09</ele>
        <time>2022-07-30T13:46:44Z</time>
      </trkpt>
      <trkpt lat="46.74644" lon="5.89682">
        <ele>548.57</ele>
        <time>2022-07-30T13:46:45Z</time>
      </trkpt>
      <trkpt lat="46.74642" lon="5.89678">
        <ele>547.61</ele>
        <time>2022-07-30T13:46:46Z</time>
      </trkpt>
      <trkpt lat="46.74638" lon="5.89656">
        <ele>547.13</ele>
        <time>2022-07-30T13:46:56Z</time>
      </trkpt>
    </trkseg>
  </trk>
</gpx>